[[{"header":{"parameterUnit":"m.s-1","parameterCategory":1,"la1":30.6,"la2":28.766,"lo1":-90.7593,"lo2":-88.6598,"dy":0.0162,"dx":0.0183,"nx":116,"ny":114,"refTime":"2024-05-17T06:00:00:Z","depth":0,"parameterNumber":2,"parameterNumberName":"U-component_of_WINDS"},"data":[0.0,0.0,0.0,0.0,0.0,0.0,0.0,0.0,0.0,0.0,0.0,0.0,0.0,0.0,0.0,0.0,0.0,0.0,0.0,0.0,0.0,0.0,0.0,0.0,0.0,0.0,0.0,0.0,0.0,0.0,0.0,0.0,0.0,0.0,0.0,0.0,0.0,0.0,0.0,0.0,0.0,0.0,0.0,0.0,0.0,0.0,0.0,0.0,0.0,0.0,0.0,0.0,0.0,0.0,0.0,0.0,0.0,0.0,0.0,0.0,0.0,0.0,0.0,0.0,0.0,0.0,0.0,0.0,0.0,0.0,0.0,0.0,0.0,0.0,0.0,0.0,0.0,0.0,0.0,0.0,0.0,0.0,0.0,0.0,0.0,0.0,0.0,0.0,0.0,0.0,0.0,0.0,0.0,0.0,0.0,0.0,0.0,0.0,0.0,0.0,0.0,0.0,0.0,0.0,0.0,0.0,0.0,0.0,0.0,0.0,0.0,0.0,0.0,0.0,0.0,0.0,0.0,0.0,0.0,0.0,0.0,0.0,0.0,0.0,0.0,0.0,0.0,0.0,0.0,0.0,0.0,0.0,0.0,0.0,0.0,0.0,0.0,0.0,0.0,0.0,0.0,0.0,0.0,0.0,0.0,0.0,0.0,0.0,0.0,0.0,0.0,0.0,0.0,0.0,0.0,0.0,0.0,0.0,0.0,0.0,0.0,0.0,0.0,0.0,0.0,0.0,0.0,0.0,0.0,0.0,0.0,0.0,0.0,0.0,0.0,0.0,0.0,0.0,0.0,0.0,0.0,0.0,0.0,0.0,0.0,0.0,0.0,0.0,0.0,0.0,0.0,0.0,0.0,0.0,0.0,0.0,0.0,0.0,0.0,0.0,0.0,0.0,0.0,0.0,0.0,0.0,0.0,0.0,0.0,0.0,0.0,0.0,0.0,0.0,0.0,0.0,0.0,0.0,0.0,0.0,0.0,0.0,0.0,0.0,0.0,0.0,0.0,0.0,0.0,0.0,0.0,0.0,0.0,0.0,0.0,0.0,0.0,0.0,0.0,0.0,0.0,0.0,0.0,0.0,0.0,0.0,0.0,0.0,0.0,0.0,0.0,0.0,0.0,0.0,0.0,0.0,0.0,0.0,0.0,0.0,0.0,0.0,0.0,0.0,0.0,0.0,0.0,0.0,0.0,0.0,0.0,0.0,0.0,0.0,0.0,0.0,0.0,0.0,0.0,0.0,0.0,0.0,0.0,0.0,0.0,0.0,0.0,0.0,0.0,0.0,0.0,0.0,0.0,0.0,0.0,0.0,0.0,0.0,0.0,0.0,0.0,0.0,0.0,0.0,0.0,0.0,0.0,0.0,0.0,0.0,0.0,0.0,0.0,0.0,0.0,0.0,0.0,0.0,0.0,0.0,0.0,0.0,0.0,0.0,0.0,0.0,0.0,0.0,0.0,0.0,0.0,0.0,0.0,0.0,0.0,0.0,0.0,0.0,0.0,0.0,0.0,0.0,0.0,0.0,0.0,0.0,0.0,0.0,0.0,0.0,0.0,0.0,0.0,0.0,0.0,0.0,0.0,0.0,0.0,0.0,0.0,0.0,0.0,0.0,0.0,0.0,0.0,0.0,0.0,0.0,0.0,0.0,0.0,0.0,0.0,0.0,0.0,0.0,0.0,0.0,0.0,0.0,0.0,0.0,0.0,0.0,0.0,0.0,0.0,0.0,0.0,0.0,0.0,0.0,0.0,0.0,0.0,0.0,0.0,0.0,0.0,0.0,0.0,0.0,0.0,0.0,0.0,0.0,0.0,0.0,0.0,0.0,0.0,0.0,0.0,0.0,0.0,0.0,0.0,0.0,0.0,0.0,0.0,0.0,0.0,0.0,0.0,0.0,0.0,0.0,0.0,0.0,0.0,0.0,0.0,0.0,0.0,0.0,0.0,0.0,0.0,0.0,0.0,0.0,0.0,0.0,0.0,0.0,0.0,0.0,0.0,0.0,0.0,0.0,0.0,0.0,0.0,0.0,0.0,0.0,0.0,0.0,0.0,0.0,0.0,0.0,0.0,0.0,0.0,0.0,0.0,0.0,0.0,0.0,0.0,0.0,0.0,0.0,0.0,0.0,0.0,0.0,0.0,0.0,0.0,0.0,0.0,0.0,0.0,0.0,0.0,0.0,0.0,0.0,0.0,0.0,0.0,0.0,0.0,0.0,0.0,0.0,0.0,0.0,0.0,0.0,0.0,0.0,0.0,0.0,0.0,0.0,0.0,0.0,0.0,0.0,0.0,0.0,0.0,0.0,0.0,0.0,0.0,0.0,0.0,0.0,0.0,0.0,0.0,0.0,0.0,0.0,0.0,0.0,0.0,0.0,0.0,0.0,0.0,0.0,0.0,0.0,0.0,0.0,0.0,0.0,0.0,0.0,0.0,0.0,0.0,0.0,0.0,0.0,0.0,0.0,0.0,0.0,0.0,0.0,0.0,0.0,0.0,0.0,0.0,0.0,0.0,0.0,0.0,0.0,0.0,0.0,0.0,0.0,0.0,0.0,0.0,0.0,0.0,0.0,0.0,0.0,0.0,0.0,0.0,0.0,0.0,0.0,0.0,0.0,0.0,0.0,0.0,0.0,0.0,0.0,0.0,0.0,0.0,0.0,0.0,0.0,0.0,0.0,0.0,0.0,0.0,0.0,0.0,0.0,0.0,0.0,0.0,0.0,0.0,0.0,0.0,0.0,0.0,0.0,0.0,0.0,0.0,0.0,0.0,0.0,0.0,0.0,0.0,0.0,0.0,0.0,0.0,0.0,0.0,0.0,0.0,0.0,0.0,0.0,0.0,0.0,0.0,0.0,0.0,0.0,0.0,0.0,0.0,0.0,0.0,0.0,0.0,0.0,0.0,0.0,0.0,0.0,0.0,0.0,0.0,0.0,0.0,0.0,0.0,0.0,0.0,0.0,0.0,0.0,0.0,0.0,0.0,0.0,0.0,0.0,0.0,0.0,0.0,0.0,0.0,0.0,0.0,0.0,0.0,0.0,0.0,0.0,0.0,0.0,0.0,0.0,0.0,0.0,0.0,0.0,0.0,0.0,0.0,0.0,0.0,0.0,0.0,0.0,0.0,0.0,0.0,0.0,0.0,0.0,0.0,0.0,0.0,0.0,0.0,0.0,0.0,0.0,0.0,0.0,0.0,0.0,0.0,0.0,0.0,0.0,0.0,0.0,0.0,0.0,0.0,0.0,0.0,0.0,0.0,0.0,0.0,0.0,0.0,0.0,0.0,0.0,0.0,0.0,0.0,0.0,0.0,0.0,0.0,0.0,0.0,0.0,0.0,0.0,0.0,0.0,0.0,0.0,0.0,0.0,0.0,0.0,0.0,0.0,0.0,0.0,0.0,0.0,0.0,0.0,0.0,0.0,0.0,0.0,0.0,0.0,0.0,0.0,0.0,0.0,0.0,0.0,0.0,0.0,0.0,0.0,0.0,0.0,0.0,0.0,0.0,0.0,0.0,0.0,0.0,0.0,0.0,0.0,0.0,0.0,0.0,0.0,0.0,0.0,0.0,0.0,0.0,0.0,0.0,0.0,0.0,0.0,0.0,0.0,0.0,0.0,0.0,0.0,0.0,0.0,0.0,0.0,0.0,0.0,0.0,0.0,0.0,0.0,0.0,0.0,0.0,0.0,0.0,0.0,0.0,0.0,0.0,0.0,0.0,0.0,0.0,0.0,0.0,0.0,0.0,0.0,0.0,0.0,0.0,0.0,0.0,0.0,0.0,0.0,0.0,0.0,0.0,0.0,0.0,0.0,0.0,0.0,0.0,0.0,0.0,0.0,0.0,0.0,0.0,0.0,0.0,0.0,0.0,0.0,0.0,0.0,0.0,0.0,0.0,0.0,0.0,0.0,0.0,0.0,0.0,0.0,0.0,0.0,0.0,0.0,0.0,0.0,0.0,0.0,0.0,0.0,0.0,0.0,0.0,0.0,0.0,0.0,0.0,0.0,0.0,0.0,0.0,0.0,0.0,0.0,0.0,0.0,0.0,0.0,0.0,0.0,0.0,0.0,0.0,0.0,0.0,0.0,0.0,0.0,0.0,0.0,0.0,0.0,0.0,0.0,0.0,0.0,0.0,0.0,0.0,0.0,0.0,0.0,0.0,0.0,0.0,0.0,0.0,0.0,0.0,0.0,0.0,0.0,0.0,0.0,0.0,0.0,0.0,0.0,0.0,0.0,0.0,0.0,0.0,0.0,0.0,0.0,0.0,0.0,0.0,0.0,0.0,0.0,0.0,0.0,0.0,0.0,0.0,0.0,0.0,0.0,0.0,0.0,0.0,0.0,0.0,0.0,0.0,0.0,0.0,0.0,0.0,0.0,0.0,0.0,0.0,0.0,0.0,0.0,0.0,0.0,0.0,0.0,0.0,0.0,0.0,0.0,0.0,0.0,0.0,0.0,0.0,0.0,0.0,0.0,0.0,0.0,0.0,0.0,0.0,0.0,0.0,0.0,0.0,0.0,0.0,0.0,0.0,0.0,0.0,0.0,0.0,0.0,0.0,0.0,0.0,0.0,0.0,0.0,0.0,0.0,0.0,0.0,0.0,0.0,0.0,0.0,0.0,0.0,0.0,0.0,0.0,0.0,0.0,0.0,0.0,0.0,0.0,0.0,0.0,0.0,0.0,0.0,0.0,0.0,0.0,0.0,0.0,0.0,0.0,0.0,0.0,0.0,0.0,0.0,0.0,0.0,0.0,0.0,0.0,0.0,0.0,0.0,0.0,0.0,0.0,0.0,0.0,0.0,0.0,0.0,0.0,0.0,0.0,0.0,0.0,0.0,0.0,0.0,0.0,0.0,0.0,0.0,0.0,0.0,0.0,0.0,0.0,0.0,0.0,0.0,0.0,0.0,0.0,0.0,0.0,0.0,0.0,0.0,0.0,0.0,0.0,0.0,0.0,0.0,0.0,0.0,0.0,0.0,0.0,0.0,0.0,0.0,0.0,0.0,0.0,0.0,0.0,0.0,0.0,0.0,0.0,0.0,0.0,0.0,0.0,0.0,0.0,0.0,0.0,0.0,0.0,0.0,0.0,0.0,0.0,0.0,0.0,0.0,0.0,0.0,0.0,0.0,0.0,0.0,0.0,0.0,0.0,0.0,0.0,0.0,0.0,0.0,0.0,0.0,0.0,0.0,0.0,0.0,0.0,0.0,0.0,0.0,0.0,0.0,0.0,0.0,0.0,0.0,0.0,0.0,0.0,0.0,0.0,0.0,0.0,0.0,0.0,0.0,0.0,0.0,0.0,0.0,0.0,0.0,0.0,0.0,0.0,0.0,0.0,0.0,0.0,0.0,0.0,0.0,0.0,0.0,0.0,0.0,0.0,0.0,0.0,0.0,0.0,0.0,0.0,0.0,0.0,0.0,0.0,0.0,0.0,0.0,0.0,0.0,0.0,0.0,0.0,0.0,0.0,0.0,0.0,0.0,0.0,0.0,0.0,0.0,0.0,0.0,0.0,0.0,0.0,0.0,0.0,0.0,0.0,0.0,0.0,0.0,0.0,0.0,0.0,0.0,0.0,0.0,0.0,0.0,0.0,0.0,0.0,0.0,0.0,0.0,0.0,0.0,0.0,0.0,0.0,0.0,0.0,0.0,0.0,0.0,0.0,0.0,0.0,0.0,0.0,0.0,0.0,0.0,0.0,0.0,0.0,0.0,0.0,0.0,0.0,0.0,0.0,0.0,0.0,0.0,0.0,0.0,0.0,0.0,0.0,0.0,0.0,0.0,0.0,0.0,0.0,0.0,0.0,0.0,0.0,0.0,0.0,0.0,0.0,0.0,0.0,0.0,0.0,0.0,0.0,0.0,0.0,0.0,0.0,0.0,0.0,0.0,0.0,0.0,0.0,0.0,0.0,0.0,0.0,0.0,0.0,0.0,0.0,0.0,0.0,0.0,0.0,0.0,0.0,0.0,0.0,0.0,0.0,0.0,0.0,0.0,0.0,0.0,0.0,0.0,0.0,0.0,0.0,0.0,0.0,0.0,0.0,0.0,0.0,0.0,0.0,0.0,0.0,0.0,0.0,0.0,0.0,0.0,0.0,0.0,0.0,0.0,-1.4472,0.0,0.0,0.0,0.0,0.0,0.0,0.0,0.0,0.0,0.0,0.0,0.0,0.0,0.0,0.0,0.0,0.0,0.0,0.0,0.0,0.0,0.0,0.0,0.0,-1.0293,-1.0293,-1.0293,-1.0293,-1.0293,-1.0293,0.0,0.0,0.0,0.0,0.0,-1.0201,-1.0205,-1.0593,-1.1402,-1.1402,-1.2058,-1.3268,-1.2804,-1.2171,-1.1394,0.0,0.0,0.0,0.0,0.0,0.0,0.0,0.0,0.0,0.0,0.0,0.0,0.0,0.0,0.0,0.0,0.0,0.0,0.0,0.0,0.0,0.0,0.0,0.0,0.0,0.0,0.0,0.0,0.0,0.0,0.0,0.0,0.0,0.0,0.0,0.0,0.0,0.0,0.0,0.0,0.0,0.0,0.0,0.0,0.0,0.0,0.0,0.0,0.0,0.0,0.0,0.0,0.0,0.0,0.0,0.0,0.0,0.0,0.0,0.0,0.0,0.0,0.0,0.0,0.0,0.0,0.0,0.0,0.0,0.0,0.0,-1.6077,0.0,0.0,0.0,0.0,0.0,0.0,0.0,0.0,0.0,0.0,0.0,0.0,0.0,0.0,0.0,0.0,0.0,0.0,0.0,0.0,0.0,-1.0293,-1.0293,-1.0293,-1.0352,-1.0508,-1.0391,-1.0352,-1.0527,-1.0329,0.0,0.0,0.0,-1.0198,-1.0191,-1.0337,-1.1163,-1.2702,-1.3299,-1.4352,-1.5868,-1.6019,-1.5353,-1.4,-1.3409,0.0,0.0,0.0,0.0,0.0,0.0,0.0,0.0,0.0,0.0,0.0,0.0,0.0,0.0,0.0,0.0,0.0,0.0,0.0,0.0,0.0,0.0,0.0,0.0,0.0,0.0,0.0,0.0,0.0,0.0,0.0,0.0,0.0,0.0,0.0,0.0,0.0,0.0,0.0,0.0,0.0,0.0,0.0,0.0,0.0,0.0,0.0,0.0,0.0,0.0,0.0,0.0,0.0,0.0,0.0,0.0,0.0,0.0,0.0,0.0,0.0,0.0,0.0,-1.8393,-1.9004,-2.044,-1.9953,-2.0621,-2.2111,-2.0977,-1.9688,-1.8295,-1.7484,0.0,0.0,0.0,0.0,0.0,0.0,0.0,0.0,0.0,0.0,0.0,0.0,0.0,0.0,0.0,0.0,0.0,0.0,0.0,-1.0293,-1.0293,-1.0293,-1.0605,-1.1367,-1.0742,-1.0625,-1.1387,-1.0661,0.0,0.0,-1.019,-1.0195,-1.0191,-1.0884,-1.1725,-1.2702,-1.5624,-1.7545,-1.8511,-1.9273,-1.9508,-1.9179,-1.6204,-1.5238,-1.5705,0.0,0.0,0.0,0.0,0.0,0.0,0.0,0.0,0.0,0.0,0.0,0.0,0.0,0.0,0.0,0.0,0.0,0.0,0.0,0.0,0.0,0.0,0.0,0.0,0.0,0.0,0.0,0.0,0.0,0.0,0.0,0.0,0.0,0.0,0.0,0.0,0.0,0.0,0.0,0.0,0.0,-1.2394,-1.3214,0.0,0.0,0.0,0.0,0.0,0.0,0.0,0.0,0.0,0.0,0.0,0.0,0.0,-1.8005,-1.882,-2.0362,-2.1277,-2.1496,-2.2858,-2.4076,-2.5114,-2.5032,-2.5518,-2.64,-2.6381,0.0,-2.0946,-2.0135,0.0,0.0,0.0,0.0,0.0,0.0,0.0,0.0,0.0,0.0,0.0,0.0,0.0,0.0,0.0,0.0,0.0,0.0,0.0,0.0,0.0,-1.1871,-1.2587,-1.2978,-1.3061,-1.2857,-1.2263,-1.1831,-1.1176,-1.0232,-1.0166,-1.0363,-1.0864,-1.1691,-1.3486,-1.6231,-1.9158,-2.0758,-2.1143,-2.1528,-2.1716,-2.1639,-2.0146,-1.8648,-1.7131,-1.5552,0.0,0.0,0.0,0.0,0.0,0.0,0.0,0.0,0.0,0.0,0.0,0.0,0.0,0.0,0.0,0.0,0.0,0.0,0.0,0.0,0.0,0.0,0.0,0.0,0.0,0.0,0.0,0.0,0.0,0.0,0.0,0.0,0.0,0.0,0.0,0.0,0.0,0.0,0.0,-1.3303,-1.4771,-1.4925,-1.5386,-1.5466,0.0,0.0,0.0,0.0,0.0,0.0,0.0,0.0,0.0,-1.941,-2.0364,-2.1235,-2.2051,-2.3676,-2.4523,-2.4589,-2.5328,-2.5912,-2.634,-2.6458,-2.6697,-2.7043,-2.725,-2.633,-2.4582,-2.3064,-2.1412,-1.9754,0.0,0.0,0.0,0.0,-1.9311,-1.9504,0.0,0.0,0.0,0.0,0.0,0.0,0.0,0.0,0.0,0.0,0.0,0.0,-1.2187,-1.3348,-1.4268,-1.4699,-1.5086,-1.4845,-1.3772,-1.3078,-1.2148,-1.0883,-1.0587,-1.0848,-1.1716,-1.3431,-1.6179,-1.9981,-2.2081,-2.324,-2.3447,-2.3447,-2.3447,-2.3447,-2.3447,-2.1948,-1.9329,-1.803,-1.6382,0.0,0.0,0.0,0.0,0.0,0.0,0.0,0.0,0.0,0.0,0.0,0.0,0.0,0.0,0.0,0.0,0.0,0.0,0.0,0.0,0.0,0.0,0.0,0.0,0.0,0.0,0.0,0.0,0.0,0.0,0.0,0.0,0.0,0.0,0.0,0.0,0.0,0.0,-1.5042,-1.6705,-1.6605,-1.7587,-1.7866,0.0,0.0,0.0,0.0,0.0,0.0,-1.93,-2.0115,-2.0923,-2.1722,-2.3153,-2.4198,-2.4814,-2.6007,-2.6602,-2.6602,-2.6602,-2.6722,-2.6906,-2.7066,-2.7277,-2.7559,-2.7749,-2.7743,-2.7483,-2.5707,-2.4062,-2.2657,-2.2122,-2.1788,-2.1673,-2.25,-2.2793,-2.3024,0.0,0.0,0.0,0.0,0.0,0.0,0.0,0.0,0.0,0.0,0.0,-1.2207,-1.3809,-1.4052,-1.4738,-1.6343,-1.5754,-1.56,0.0,0.0,-1.2666,-1.257,-1.1778,-1.1735,-1.2625,-1.6606,-1.9973,-2.2605,-2.3567,-2.4432,-2.5173,-2.5173,-2.5173,-2.5173,-2.5173,-2.4659,-2.3614,-2.1158,-2.0025,-1.9645,0.0,0.0,0.0,0.0,0.0,0.0,0.0,0.0,0.0,0.0,0.0,0.0,0.0,0.0,0.0,0.0,0.0,0.0,0.0,0.0,0.0,0.0,0.0,0.0,0.0,0.0,0.0,0.0,0.0,0.0,0.0,0.0,0.0,0.0,0.0,0.0,0.0,0.0,0.0,-1.8131,-1.9635,0.0,0.0,0.0,0.0,-2.0199,-2.0309,-2.1025,-2.2676,-2.3529,-2.4328,-2.5136,-2.597,-2.6437,-2.6473,-2.6547,-2.6602,-2.6602,-2.6602,-2.6998,-2.7732,-2.7754,-2.831,-2.9292,-2.9485,-2.9255,-2.8639,-2.7712,-2.679,-2.5977,-2.6192,-2.5769,-2.5154,-2.6019,-2.6351,-2.6467,0.0,0.0,0.0,0.0,0.0,-1.0204,-1.0205,-1.0253,-1.041,-1.0723,-1.2187,-1.3652,-1.4805,-1.6867,-1.8622,-1.9779,-1.9527,-1.8963,-1.8187,-1.6256,-1.5146,-1.5146,-1.4319,-1.5022,-1.7542,-2.0123,-2.2162,-2.3644,-2.4466,-2.5019,-2.5308,-2.5308,-2.5308,-2.5308,-2.5308,-2.5135,-2.4736,-2.2757,-2.1282,-2.0092,-1.7829,-1.5867,0.0,0.0,0.0,0.0,0.0,0.0,0.0,0.0,0.0,0.0,0.0,0.0,0.0,0.0,0.0,0.0,0.0,0.0,0.0,0.0,0.0,0.0,0.0,0.0,0.0,0.0,0.0,0.0,0.0,0.0,0.0,0.0,0.0,0.0,0.0,0.0,0.0,-2.0613,-2.1704,0.0,-2.1011,-2.1382,-2.2006,-2.2832,-2.3364,-2.4135,-2.5262,-2.5603,-2.5878,-2.6153,-2.6943,-2.7365,-2.7365,-2.7886,-2.8143,-2.8143,-2.8143,-2.829,-2.8565,-2.8565,-2.8768,-2.9167,-2.9395,-2.9383,-2.9192,-2.9133,-2.8389,-2.7288,-2.7407,-2.7255,-2.7005,-2.7313,-2.7448,-2.7486,0.0,0.0,0.0,0.0,-1.0203,-1.0206,-1.0229,-1.0273,-1.0508,-1.1094,-1.2871,-1.4766,-1.6523,-1.8927,-2.0861,-2.2038,-2.1752,-2.1023,-1.9912,-1.8007,-1.691,-1.691,-1.6635,-1.7942,-2.1081,-2.2528,-2.3644,-2.4509,-2.5038,-2.5308,-2.5308,-2.5308,-2.5308,-2.5308,-2.5308,-2.5308,-2.5231,-2.412,-2.2851,-2.147,-2.006,-1.8458,-1.6808,0.0,0.0,0.0,0.0,0.0,0.0,0.0,0.0,0.0,0.0,0.0,0.0,0.0,0.0,0.0,0.0,0.0,0.0,0.0,0.0,0.0,0.0,0.0,0.0,0.0,0.0,0.0,0.0,0.0,0.0,0.0,0.0,0.0,0.0,0.0,-2.2142,-2.2402,-2.3726,-2.4228,-2.3219,-2.3841,-2.4534,-2.5069,-2.5535,-2.6043,-2.6565,-2.6869,-2.7126,-2.7391,-2.8191,-2.8741,-2.901,-2.9549,-2.9812,-2.9812,-2.9812,-2.9812,-2.9812,-2.9812,-2.9853,-2.995,-3.0234,-3.0386,-3.0471,-3.0834,-3.0427,-2.9525,-2.8967,-2.8736,-2.8736,-2.8736,-2.8736,-2.8698,0.0,0.0,0.0,-1.0184,-1.0194,-1.021,-1.0292,-1.0293,-1.0937,-1.2676,-1.3613,-1.5469,-1.8965,-2.0021,-2.1174,-2.2899,-2.2126,-2.1523,-2.1504,-1.9138,-1.7757,-1.7815,-1.8692,-2.0346,-2.2816,-2.3701,-2.4529,-2.5308,-2.5308,-2.5308,-2.5308,-2.5327,-2.5327,-2.5308,-2.5365,-2.5365,-2.5346,-2.5346,-2.4889,-2.411,-2.3201,-2.185,-2.02,0.0,0.0,0.0,0.0,0.0,0.0,0.0,0.0,0.0,0.0,0.0,0.0,0.0,0.0,0.0,0.0,0.0,0.0,0.0,0.0,0.0,0.0,0.0,0.0,0.0,0.0,0.0,0.0,0.0,0.0,0.0,0.0,0.0,-2.0031,-2.2212,-2.3663,-2.3456,-2.567,-2.682,-2.5849,-2.6477,-2.6944,-2.6944,-2.6796,-2.6712,-2.6712,-2.7475,-2.8264,-2.9042,-2.9831,-3.0625,-3.1391,-3.1409,-3.1409,-3.1409,-3.1409,-3.1409,-3.1409,-3.1397,-3.1548,-3.1815,-3.2059,-3.2304,-3.2507,-3.2767,-3.2885,-3.2731,-3.1115,-3.0462,-3.0442,-3.0442,-3.0423,-3.0288,0.0,0.0,-1.0117,-1.0195,-1.0202,-1.0206,-1.0228,-1.0273,-1.0937,-1.2676,-1.4141,-1.6346,-1.9791,-2.1445,-2.2715,-2.3785,-2.2995,-2.2177,-2.1543,-1.9719,-1.918,-2.0408,-2.2442,-2.3904,-2.4596,-2.4846,-2.5077,-2.5308,-2.5308,-2.5308,-2.5308,-2.5942,-2.5904,-2.5365,-2.6621,-2.6832,-2.6231,-2.6231,-2.612,-2.5793,-2.4336,-2.3086,-2.1989,0.0,0.0,0.0,0.0,0.0,0.0,0.0,0.0,0.0,0.0,0.0,0.0,0.0,0.0,0.0,0.0,0.0,0.0,0.0,0.0,0.0,0.0,0.0,0.0,0.0,0.0,0.0,0.0,0.0,0.0,0.0,0.0,-2.2534,-2.2916,-2.3941,-2.5082,-2.6291,-2.6919,-2.7171,-2.6898,-2.7407,-2.7774,-2.7774,-2.8669,-2.9219,-2.9219,-2.9971,-3.0515,-3.0723,-3.0944,-3.1267,-3.1678,-3.1689,-3.1689,-3.1689,-3.1689,-3.1689,-3.1678,-3.1489,-3.156,-3.18,-3.1883,-3.1946,-3.2019,-3.2431,-3.26,-3.2576,-3.2321,-3.1872,-3.1346,-3.1346,-3.0942,-3.0365,0.0,-1.0094,-1.0113,-1.0183,-1.0197,-1.0204,-1.0205,-1.0253,-1.1055,-1.3125,-1.457,-1.6718,-2.0167,-2.1685,-2.28,-2.3625,-2.2809,-2.1908,-2.1058,-2.0081,-2.0469,-2.2509,-2.4005,-2.4966,-2.5288,-2.5308,-2.5308,-2.5308,-2.5308,-2.55,-2.5865,-2.6365,-2.6524,-2.6428,-2.7448,-2.7621,-2.714,-2.714,-2.6928,-2.6505,-2.5548,-2.4625,-2.3755,-2.2908,-2.197,-2.1031,-2.0308,-1.9712,-1.9184,-1.8538,0.0,0.0,0.0,0.0,0.0,0.0,0.0,0.0,0.0,0.0,0.0,0.0,0.0,0.0,0.0,0.0,0.0,0.0,0.0,0.0,0.0,0.0,0.0,0.0,-2.3289,-2.4802,-2.6019,-2.6333,-2.6837,-2.7973,-2.8296,-2.8408,-2.8312,-2.8883,-2.9232,-2.9143,-3.0109,-3.0759,-3.0863,-3.1307,-3.1765,-3.2218,-3.2236,-3.2493,-3.301,-3.301,-3.2927,-3.2806,-3.2957,-3.2946,-3.2806,-3.2787,-3.2866,-3.302,-3.3132,-3.3182,-3.3202,-3.3481,-3.3582,0.0,0.0,0.0,0.0,0.0,-3.1891,-3.1442,0.0,-1.0094,-1.0111,-1.0177,-1.0192,-1.02,-1.0203,-1.0251,-1.1211,-1.3769,0.0,-1.6719,-2.0214,-2.1252,-2.2017,-2.2775,-2.2023,-2.1196,0.0,0.0,0.0,-2.3995,-2.4187,-2.4567,-2.5288,-2.5308,-2.5346,-2.5442,-2.5442,-2.5885,-2.6755,-2.6832,-2.7255,-2.7915,-2.8102,-2.8126,-2.8049,-2.8049,-2.7582,-2.6871,-2.6678,-2.6077,-2.5212,-2.4509,-2.424,-2.4028,-2.2485,-2.1927,-2.1696,-2.02,0.0,0.0,0.0,0.0,0.0,0.0,0.0,0.0,0.0,0.0,0.0,0.0,0.0,0.0,0.0,0.0,0.0,0.0,0.0,0.0,0.0,0.0,0.0,0.0,-2.5067,-2.6484,-2.8775,-2.8796,-2.8671,-2.8898,-2.9644,-3.0057,-2.9854,-3.0563,-3.0979,-3.0787,-3.1309,-3.173,-3.1966,0.0,0.0,0.0,0.0,-3.3941,-3.4734,-3.4753,-3.4593,-3.4304,-3.4603,-3.4593,-3.4304,-3.4572,-3.4733,-3.4773,-3.4963,-3.5043,-3.5062,-3.5088,-3.5113,-3.5002,-3.3554,-3.3026,-3.3026,-3.2949,-3.2891,-3.2891,0.0,-1.0094,-1.0098,-1.0129,-1.0153,-1.0192,-1.0199,-1.0201,-1.115,-1.3769,-1.4863,-1.6717,-2.014,-2.1232,-2.1745,-2.1867,-2.1632,-2.1427,0.0,0.0,-2.2855,-2.4052,-2.4716,-2.5135,-2.5308,-2.5308,-2.5635,-2.6351,-2.6351,-2.6794,-2.7659,-2.8319,-2.8357,-2.7953,-2.9313,-2.9525,-2.8876,-2.8876,-2.878,-2.8511,-2.714,-2.6077,-2.5288,-2.5135,-2.5077,-2.5019,-2.4692,-2.4577,-2.4519,-2.4192,-2.3062,-2.1797,-2.1624,0.0,0.0,0.0,0.0,0.0,0.0,0.0,0.0,0.0,0.0,0.0,0.0,0.0,0.0,0.0,0.0,0.0,0.0,0.0,0.0,-2.4846,-2.6799,-2.8358,-2.9014,-2.9448,-2.9714,-2.9751,-3.0525,-3.0953,-3.0694,-3.144,-3.1921,-3.1892,-3.2597,-3.3039,-3.3089,-3.3747,-3.4239,-3.444,-3.4459,-3.4633,-3.5016,-3.5016,-3.499,-3.4925,0.0,0.0,-3.4925,-3.4764,-3.4832,-3.5008,-3.486,-3.4793,-3.4784,-3.5008,-3.5223,-3.5302,-3.411,-3.376,-3.3859,-3.316,-3.2891,-3.2891,-1.0094,-1.0094,-1.0094,-1.0094,-1.0161,-1.0202,-1.0191,-1.0196,-1.1148,-1.3769,-1.4473,-1.5898,-1.8919,-1.9579,-1.9781,-1.9754,-2.0088,0.0,0.0,-2.235,-2.3386,-2.4698,-2.5096,-2.5308,-2.5308,-2.5731,-2.6154,-2.6601,-2.7044,-2.7678,-2.8511,-2.8915,-2.9127,-2.9198,-3.0038,-3.0154,-2.9756,-2.9756,-2.9506,-2.8992,-2.7755,-2.6736,-2.5904,-2.5462,-2.5308,-2.5308,-2.5308,-2.5308,-2.5308,-2.5308,-2.4485,-2.3451,-2.3451,-2.1681,-1.935,0.0,0.0,0.0,0.0,0.0,0.0,0.0,0.0,0.0,0.0,0.0,0.0,0.0,0.0,-2.1412,0.0,0.0,-2.576,-2.7005,-2.8194,-2.9148,-2.9687,-3.0394,-3.086,-3.086,-3.123,-3.158,-3.1727,-3.2507,-3.2956,-3.2798,-3.3582,-3.4112,-3.4234,-3.467,-3.4963,-3.5096,-3.5105,-3.5155,-3.5297,-3.5297,-3.5231,-3.5105,-3.5231,-3.5223,-3.5105,-3.5105,-3.5163,-3.5297,-3.5166,-3.5105,-3.5105,-3.5105,-3.5182,-3.5232,-3.4669,-3.4604,-3.4782,-3.4203,-3.4098,-3.4192,-1.0094,-1.0094,-1.0094,-1.0094,-1.0133,-1.017,-1.0203,-1.0191,-1.1028,-1.33,-1.375,-1.4727,-1.6992,-1.7355,-1.7474,0.0,0.0,0.0,0.0,-2.2543,-2.3758,-2.5328,-2.5339,-2.5317,-2.5322,-2.6169,-2.6678,-2.6851,-2.7717,-2.8549,-2.9357,-2.9357,-2.9737,-3.0404,-3.0404,-3.0404,-3.0404,-3.0404,-2.9981,-2.928,-2.8299,-2.7486,-2.6736,-2.5692,-2.5308,-2.5308,-2.5308,-2.5308,-2.5308,-2.5308,-2.487,-2.4336,-2.4336,-2.3259,-2.1716,-2.0185,-1.9511,0.0,0.0,0.0,0.0,0.0,0.0,0.0,0.0,0.0,-2.0473,-2.2158,-2.3178,-2.4197,-2.5558,-2.6505,-2.7525,-2.8876,-2.9377,-2.9852,-3.0558,-3.1385,-3.2006,-3.2179,-3.2148,-3.2272,-3.2705,-3.3544,-3.397,-3.3753,-3.4434,-3.4954,-3.5174,-3.5182,-3.5281,-3.5493,-3.55,-3.55,-3.55,-3.55,-3.5383,-3.5182,-3.541,-3.5383,-3.519,-3.5391,-3.55,-3.55,-3.55,-3.55,-3.5486,-3.5273,-3.5182,-3.5163,-3.5122,-3.5254,-3.546,-3.5266,-3.5312,-3.55,0.0,-1.0094,-1.0094,-1.0094,-1.01,-1.0122,-1.019,-1.0203,-1.058,-1.1653,-1.2519,-1.3418,-1.4434,-1.5225,-1.5977,0.0,0.0,0.0,-2.1553,-2.3079,-2.439,-2.5356,-2.5335,-2.534,-2.5399,-2.6174,-2.6986,-2.7755,-2.8569,-2.941,-3.025,-3.025,-3.0308,-3.0404,-3.0404,-3.0404,-3.0404,-3.0404,-3.0346,-3.0115,-2.8544,-2.7838,-2.7563,-2.5923,-2.5308,-2.5308,-2.5308,-2.5308,-2.5308,-2.5308,-2.525,-2.5173,-2.5173,-2.4543,-2.3629,-2.2663,0.0,-2.0096,-1.9808,-1.9865,-2.0154,-2.0773,-2.0462,-2.0788,0.0,0.0,-2.4009,-2.5678,-2.6717,-2.7395,-2.7563,-2.828,-2.8876,-2.9069,-3.039,-3.1448,-3.1545,-3.2256,-3.3045,-3.384,-3.3707,-3.35,-3.3318,-3.4315,-3.4935,-3.4918,-3.5224,-3.5424,-3.5446,-3.5472,-3.5479,-3.55,-3.55,-3.55,-3.55,-3.55,-3.5467,-3.5453,-3.5493,-3.5486,-3.5453,-3.5493,-3.55,-3.55,-3.55,-3.55,-3.55,-3.5479,-3.5472,-3.5432,-3.5198,-3.5254,-3.55,-3.5479,-3.546,-3.55,0.0,-1.0094,-1.0094,-1.0094,-1.0094,-1.0115,-1.0184,-1.0198,-1.0518,-1.1397,-1.1874,-1.2461,-1.3301,-1.4139,-1.4777,0.0,0.0,0.0,-2.0906,-2.292,-2.4482,-2.5363,-2.5335,-2.5313,-2.5344,-2.6665,-2.7544,-2.7895,-2.9217,-3.0038,-3.0404,-3.0404,-3.0404,-3.0404,-3.0404,-3.0404,-3.0404,-3.0404,-3.0115,-2.9544,-2.8371,-2.7601,-2.7005,-2.5769,-2.5308,-2.5308,-2.5308,-2.5308,0.0,0.0,-2.5308,-2.5308,-2.5308,-2.4755,-2.4033,-2.3663,-2.3067,0.0,-2.3077,-2.287,-2.2697,0.0,-2.3846,-2.4327,-2.5731,-2.6197,-2.651,-2.7217,-2.803,-2.8607,-2.8607,-2.9294,-3.0025,0.0,-3.1218,-3.1852,-3.2333,-3.2699,-3.3045,-3.3391,-3.3344,-3.363,-3.453,-3.5051,-3.5327,-3.5327,-3.5439,-3.55,-3.55,-3.55,-3.55,-3.55,-3.55,-3.55,-3.55,-3.55,-3.5731,-3.6192,-3.5712,-3.575,-3.6173,-3.5712,-3.575,-3.6231,-3.6731,-3.6949,-3.693,-3.6404,-3.6192,-3.6147,-3.5568,-3.5391,-3.5486,-3.532,-3.5369,-3.55,0.0,-1.0094,-1.0094,-1.0094,-1.0094,-1.0129,-1.0167,-1.0184,-1.043,-1.1059,-1.1188,-1.1464,-1.2109,-1.3125,-1.3769,0.0,0.0,0.0,0.0,-2.2768,-2.4508,-2.5389,-2.5357,0.0,-2.5321,-2.6775,-2.7544,-2.7544,-2.9006,-2.9712,-2.9712,-2.9712,-2.9712,-2.9712,-2.9712,-2.9712,-2.9717,-2.9732,-2.9366,-2.8703,-2.7893,-2.7171,-2.6505,-2.5635,-2.5154,-2.4962,-2.4962,-2.4962,0.0,0.0,-2.4404,-2.4577,-2.4327,-2.4024,-2.3783,-2.4033,-2.4259,-2.4471,-2.4577,0.0,0.0,-2.5212,-2.6135,-2.6967,-2.6967,-2.7621,-2.8222,-2.8222,-2.8896,-2.9467,-2.9467,-2.9962,-3.0692,-3.1564,-3.1891,-3.2314,-3.3141,-3.3256,-3.3256,-3.3256,-3.3045,-3.3487,-3.5007,-3.5135,-3.5231,-3.5481,-3.55,-3.55,-3.55,-3.55,-3.55,-3.55,-3.55,-3.5615,-3.5827,-3.5827,-3.6231,-3.7038,-3.6462,-3.6481,-3.7038,-3.6462,-3.65,-3.7077,-3.7738,-3.8007,-3.795,-3.7315,-3.6923,-3.6635,-3.6058,-3.5692,-3.5486,-3.5281,-3.5327,-3.55,0.0,0.0,-1.0094,-1.0094,-1.0094,-1.0096,-1.0098,-1.0162,-1.0205,-1.0232,-1.0237,-1.0289,-1.0371,-1.1914,-1.2949,0.0,0.0,0.0,-2.0439,-2.2768,-2.452,-2.5467,-2.5379,-2.533,-2.5406,-2.6202,-2.664,-2.664,-2.7544,-2.7992,-2.7992,-2.7992,-2.7992,-2.7992,-2.7992,-2.7992,-2.7978,-2.8052,-2.8019,-2.7867,-2.7052,-2.6682,-2.6505,-2.5635,-2.4812,-2.4149,-2.4149,0.0,0.0,0.0,-2.2177,-2.274,-2.1889,-2.2177,0.0,-2.386,-2.4639,0.0,0.0,0.0,-2.6332,-2.5519,-2.6601,-2.7857,-2.7857,-2.8472,-2.9069,-2.9069,-2.9756,-3.0365,-3.0365,-3.0385,-3.0692,-3.1564,-3.2352,-3.316,-3.4032,-3.4167,-3.4167,-3.4167,-3.341,-3.3256,0.0,-3.4244,-3.4584,-3.5442,-3.55,-3.55,-3.55,-3.55,-3.55,-3.55,-3.55,-3.5865,-3.6654,-3.6654,-3.7103,-3.7969,-3.793,-3.793,-3.7969,-3.793,-3.793,-3.7969,-3.7988,-3.8007,-3.8007,-3.7969,-3.7469,-3.6692,-3.6673,-3.6192,-3.55,-3.5493,-3.5493,-3.55,0.0,0.0,0.0,-1.0094,-1.0094,-1.0094,-1.0094,-1.0161,-1.0195,-1.0206,-1.0209,0.0,0.0,0.0,0.0,0.0,0.0,0.0,-1.9541,-2.1484,-2.3179,-2.4516,-2.5074,-2.535,-2.5335,-2.6179,-2.6601,-2.6601,-2.7467,-2.7895,-2.7895,-2.7895,-2.7895,-2.7895,-2.7895,-2.7895,-2.7895,-2.7918,-2.7913,-2.7838,-2.6974,-2.6617,-2.6505,-2.5635,-2.4793,-2.3956,0.0,0.0,0.0,0.0,-2.1696,-2.1985,-2.2274,0.0,0.0,-2.299,-2.462,-2.6038,-2.5466,0.0,-2.7525,-2.7755,-2.8261,-2.8857,-2.9429,-2.9769,-2.9794,-2.9223,-2.9338,-2.9371,-2.8832,-2.9179,-3.0006,-3.1468,-3.2372,-3.341,-3.4853,-3.4564,-3.3994,-3.341,-3.3083,0.0,0.0,0.0,0.0,-3.5423,-3.55,-3.55,-3.55,-3.55,-3.5731,-3.6269,-3.6308,-3.6692,-3.7546,-3.7565,-3.8007,-3.8854,-3.8854,-3.8565,-3.8027,-3.8604,-3.8854,-3.8892,-3.9438,-3.9669,-3.9631,-3.9084,-3.8681,-3.8373,-3.7796,-3.7046,-3.6308,-3.6308,-3.5962,-3.55,0.0,0.0,0.0,0.0,0.0,0.0,0.0,0.0,0.0,0.0,0.0,0.0,0.0,0.0,0.0,0.0,0.0,0.0,0.0,0.0,-2.1586,-2.3209,-2.3485,-2.3874,-2.4424,-2.4685,-2.511,-2.5717,-2.6279,-2.6708,-2.7017,-2.7017,-2.7021,-2.7037,-2.7016,-2.7017,-2.7017,-2.7017,-2.6993,-2.6895,-2.6073,-2.5741,-2.5601,-2.4736,-2.3716,0.0,0.0,0.0,0.0,0.0,0.0,0.0,0.0,0.0,0.0,-2.3447,-2.5063,-2.6678,-2.6986,-2.7678,-2.8453,-2.8973,-2.9338,-2.9717,-3.0269,-3.0154,-2.9775,-2.9223,-2.8876,-2.8511,-2.8011,-2.8319,-2.9338,-3.1371,-3.2122,-3.3179,-3.5212,-3.4757,-3.3994,-3.343,-3.3083,-3.3026,0.0,0.0,0.0,-3.5423,-3.5769,-3.5923,-3.5923,-3.6212,-3.6635,-3.7161,-3.7161,-3.7584,-3.845,-3.845,-3.8892,-3.9727,-3.9727,-3.9438,-3.8911,-3.9477,-3.9727,-3.9765,-4.0285,-4.0496,-4.0458,-3.9938,-3.9554,-3.9246,-3.8681,-3.793,-3.7142,-3.6808,-3.6365,-3.5885,0.0,0.0,0.0,0.0,0.0,0.0,0.0,0.0,0.0,0.0,0.0,0.0,0.0,0.0,0.0,0.0,0.0,0.0,0.0,0.0,0.0,-2.1593,-2.0903,-2.1208,-2.2804,-2.2075,-2.2458,-2.4047,-2.4042,-2.4465,-2.5274,-2.527,-2.5295,-2.5362,-2.5292,-2.5274,-2.5274,-2.5281,-2.5259,-2.5178,-2.4432,-2.4126,-2.4008,-2.308,0.0,0.0,0.0,0.0,0.0,0.0,0.0,0.0,0.0,0.0,0.0,-2.5058,-2.5942,-2.6851,-2.7736,-2.8549,-2.9165,-2.9165,-2.9794,-3.0385,-3.0346,-2.9698,-2.9088,-2.8992,-2.8357,-2.7818,0.0,0.0,-2.8698,-3.1179,-3.1679,-3.2641,-3.5154,-3.4795,-3.4244,0.0,0.0,0.0,0.0,0.0,0.0,-3.5577,0.0,-3.6712,-3.675,-3.7546,-3.8027,-3.8065,-3.8065,-3.8469,-3.9361,-3.9361,-3.9746,-4.0496,-4.0496,-4.0496,-4.0496,-4.0496,-4.0496,-4.0496,-4.0496,-4.0496,-4.0496,-4.0496,-4.0054,-3.9361,-3.9361,-3.8834,-3.7969,-3.7084,-3.6731,-3.6577,0.0,0.0,0.0,0.0,0.0,0.0,0.0,0.0,0.0,0.0,0.0,0.0,0.0,0.0,0.0,0.0,0.0,0.0,0.0,0.0,0.0,0.0,0.0,0.0,-2.1997,-2.2427,0.0,0.0,0.0,-2.3322,-2.354,-2.3493,-2.3477,-2.3485,-2.3522,-2.354,-2.3543,-2.36,-2.3952,-2.441,0.0,-2.3642,-2.4003,0.0,0.0,0.0,0.0,0.0,0.0,0.0,0.0,0.0,0.0,0.0,-2.4259,0.0,0.0,-2.7755,-2.8569,-2.9429,-3.0077,-3.0077,-3.0231,-3.0231,-2.9583,-2.9261,-2.8742,-2.7486,-2.7063,-2.6544,0.0,0.0,0.0,-2.9569,-3.1352,0.0,-3.5231,-3.5308,0.0,-3.4282,0.0,-3.5577,-3.5212,-3.6295,0.0,0.0,-3.6942,-3.6981,-3.7623,-3.7873,-3.8296,-3.8957,-3.8977,-3.9361,-4.0189,-4.0189,-4.0304,-4.0496,-4.0496,-4.0496,-4.0496,-4.0496,-4.0496,-4.0496,-4.0496,-4.0496,-4.0496,-4.0496,-4.0381,-4.0189,-4.0189,-3.9688,-3.8854,-3.7988,-3.7257,-3.6577,0.0,0.0,0.0,0.0,0.0,0.0,0.0,0.0,0.0,0.0,0.0,0.0,0.0,0.0,0.0,0.0,0.0,0.0,0.0,0.0,0.0,0.0,0.0,0.0,-2.0013,-2.0501,0.0,0.0,0.0,0.0,0.0,-2.1804,-2.1804,-2.1838,-2.184,-2.184,-2.184,0.0,0.0,0.0,0.0,0.0,0.0,0.0,0.0,0.0,0.0,0.0,0.0,0.0,0.0,-2.3908,-2.3908,-2.4755,-2.5933,-2.6736,0.0,-2.8607,-2.9448,-3.0019,-3.0404,-3.0404,-3.0404,-3.0173,-2.93,-2.8838,-2.8088,-2.6385,-2.5755,0.0,-2.3778,0.0,0.0,0.0,0.0,0.0,-3.4641,-3.525,-3.5442,0.0,-3.6142,0.0,-3.6596,-3.745,-3.8161,0.0,-3.8123,-3.8046,-3.8546,-3.8911,-3.9323,-3.9804,-3.9823,-4.0035,-4.0496,-4.0496,-4.0496,-4.0496,-4.0496,-4.0496,-4.0496,-4.0496,-4.0496,-4.0496,-4.0496,-4.0496,-4.0496,-4.0496,-4.0496,-4.0496,-4.0496,-4.0227,-3.9727,-3.8873,-3.8257,-3.768,0.0,0.0,0.0,0.0,0.0,0.0,0.0,0.0,0.0,0.0,0.0,0.0,0.0,0.0,0.0,0.0,0.0,0.0,0.0,0.0,0.0,0.0,0.0,0.0,0.0,0.0,0.0,0.0,0.0,0.0,0.0,0.0,0.0,0.0,0.0,0.0,0.0,0.0,0.0,0.0,0.0,0.0,0.0,0.0,0.0,0.0,0.0,0.0,0.0,0.0,-2.4008,-2.5481,-2.5486,-2.6582,-2.8068,-2.8857,-2.9107,-2.9319,-3.0308,-3.05,-3.0423,-3.0538,-3.0404,-3.0,-2.9146,-2.8222,-2.7101,-2.5462,0.0,-2.3706,-2.2932,-2.3605,-2.5067,-2.7511,0.0,-3.1288,-3.384,-3.4853,-3.5673,-3.6596,-3.6788,-3.7219,-3.8084,-3.8277,-3.8642,-3.94,-3.9457,-3.9457,-3.9457,-4.0131,-4.0496,-4.0496,-4.0496,-4.0496,-4.0496,-4.0496,-4.0496,-4.0496,-4.0496,-4.0496,-4.0496,-4.0496,-4.0496,-4.0496,-4.0496,-4.0496,-4.0496,-4.0496,-4.0496,-4.0496,-4.0496,-4.0496,-4.04,-3.9611,-3.9304,-3.9053,0.0,0.0,0.0,0.0,0.0,0.0,0.0,0.0,0.0,0.0,-1.3505,-1.3711,0.0,0.0,0.0,0.0,0.0,0.0,0.0,0.0,0.0,0.0,0.0,0.0,0.0,0.0,0.0,0.0,0.0,0.0,0.0,0.0,0.0,0.0,0.0,0.0,0.0,0.0,0.0,0.0,0.0,0.0,0.0,0.0,0.0,0.0,0.0,0.0,0.0,0.0,-2.4482,-2.6457,-2.6381,-2.7082,-2.8068,-2.8857,-2.9107,-2.9454,-3.1044,-3.0942,-3.0577,-3.1288,-3.039,-2.9107,-2.8299,-2.689,0.0,0.0,-2.3624,-2.299,-2.2836,-2.4062,-2.5717,-2.7582,0.0,0.0,0.0,0.0,-3.4988,0.0,0.0,0.0,0.0,0.0,0.0,0.0,-4.0285,-4.0285,-4.0285,-4.0419,-4.0496,-4.0496,-4.0496,-4.0496,-4.0496,-4.0496,-4.0496,-4.0496,-4.0496,-4.0496,-4.0496,-4.0496,-4.0496,-4.0496,-4.0496,0.0,-4.0496,-4.0496,-4.0496,-4.0496,-4.0496,-4.0496,-4.04,-3.9611,-3.9304,-3.9053,0.0,0.0,0.0,0.0,0.0,0.0,0.0,-1.2425,-1.3327,-1.5038,-1.5615,-1.5553,-1.4721,-1.4997,-1.5255,0.0,0.0,0.0,0.0,0.0,0.0,0.0,0.0,0.0,0.0,0.0,0.0,0.0,0.0,0.0,0.0,0.0,0.0,0.0,0.0,0.0,0.0,0.0,0.0,0.0,0.0,0.0,0.0,0.0,0.0,0.0,0.0,0.0,0.0,0.0,-2.3963,-2.6151,-2.6482,-2.7486,-2.8607,-2.8992,-2.941,-3.0063,-3.1352,-3.1385,-3.1173,-3.1602,-3.0737,-2.9333,-2.7601,0.0,0.0,0.0,-2.2408,-2.2004,-2.1581,0.0,0.0,0.0,0.0,0.0,0.0,0.0,0.0,0.0,0.0,0.0,0.0,0.0,0.0,0.0,-4.0496,-4.0496,-4.0496,-4.0496,-4.0496,-4.0496,-4.0496,-4.0496,-4.0496,-4.0496,-4.0496,-4.0496,-4.0496,-4.0496,-4.0496,-4.0496,-4.0496,-4.0496,-4.0496,-4.0496,-4.0496,-4.0496,-4.0496,-4.0496,-4.0496,-4.0496,-4.0458,-4.0073,-3.9919,-3.9688,0.0,0.0,0.0,0.0,0.0,0.0,0.0,-1.35,-1.4651,-1.6756,-1.7411,-1.7199,-1.5888,-1.5577,-1.543,0.0,0.0,0.0,0.0,0.0,0.0,0.0,0.0,0.0,0.0,0.0,0.0,0.0,0.0,0.0,0.0,0.0,0.0,0.0,0.0,0.0,0.0,0.0,0.0,0.0,0.0,0.0,0.0,0.0,0.0,0.0,0.0,0.0,0.0,0.0,-2.3032,-2.4824,-2.5579,-2.7214,-2.8876,-2.905,-2.9583,-3.0346,-3.141,-3.1564,-3.1468,-3.166,-3.0769,-2.9288,-2.7101,-2.5654,0.0,0.0,-2.137,-2.1096,-2.0635,0.0,0.0,0.0,0.0,0.0,0.0,0.0,0.0,0.0,0.0,0.0,0.0,0.0,0.0,-4.0496,-4.0496,-4.0496,-4.0496,-4.0496,-4.0496,-4.0496,-4.0496,-4.0496,-4.0496,-4.0496,-4.0496,-4.0496,-4.0496,-4.0496,-4.0496,-4.0496,-4.0496,-4.0496,-4.0496,-4.0496,-4.0496,-4.0496,-4.0496,-4.0496,-4.0496,-4.0496,-4.0496,-4.0496,-4.04,-4.0035,0.0,0.0,0.0,0.0,0.0,0.0,0.0,-1.3841,-1.5074,-1.8337,-1.8145,-1.7641,-1.7487,-1.6814,-1.6064,0.0,0.0,0.0,0.0,0.0,0.0,0.0,0.0,0.0,0.0,0.0,0.0,0.0,0.0,0.0,0.0,0.0,0.0,0.0,0.0,0.0,0.0,0.0,0.0,0.0,0.0,0.0,0.0,0.0,0.0,0.0,0.0,0.0,0.0,0.0,0.0,-2.2207,-2.3064,-2.5472,-2.8145,-2.8896,0.0,0.0,-3.1256,-3.1115,-3.0712,-3.1506,-2.989,-2.7852,-2.6832,0.0,0.0,-2.1716,-2.0923,-2.0615,-2.1273,-2.1523,0.0,0.0,0.0,0.0,0.0,0.0,0.0,0.0,0.0,0.0,0.0,0.0,0.0,-4.0496,-4.0496,-4.0496,-4.0496,-4.0496,-4.0496,-4.0496,-4.0496,-4.0496,-4.0496,-4.0496,-4.0496,-4.0496,-4.0496,-4.0496,-4.0496,-4.0496,-4.0496,-4.0496,-4.0496,-4.0496,0.0,-4.0496,-4.0496,-4.0496,-4.0496,-4.0496,-4.0496,-4.0496,-4.0035,-3.9284,0.0,0.0,0.0,0.0,0.0,0.0,-1.3514,-1.3898,-1.5135,-1.8549,-1.8703,-1.8472,-1.8472,-1.7738,-1.6676,-1.5327,0.0,0.0,0.0,0.0,0.0,0.0,0.0,0.0,0.0,0.0,0.0,0.0,0.0,0.0,0.0,0.0,0.0,0.0,0.0,0.0,0.0,0.0,0.0,0.0,0.0,0.0,0.0,0.0,0.0,0.0,0.0,0.0,0.0,0.0,0.0,0.0,-2.2174,-2.3516,0.0,0.0,-2.7952,-2.9428,-3.06,-3.1058,-3.1269,-3.1621,-3.014,-2.8126,-2.625,0.0,-2.2412,-2.1062,-2.0519,-2.0404,-2.0712,-2.1173,-2.2004,0.0,-2.4235,-2.5582,-2.8486,0.0,0.0,0.0,0.0,0.0,0.0,0.0,0.0,-4.0496,-4.0496,-4.0496,-4.0496,-4.0496,-4.0496,-4.0496,-4.0496,-4.0496,-4.0496,-4.0496,-4.0496,-4.0496,-4.0496,-4.0496,-4.0496,-4.0496,-4.0496,-4.0496,-4.0496,-4.0496,0.0,-4.0496,-4.0496,-4.0496,-4.0496,-4.0496,-4.0496,-4.0496,-3.9996,-3.9188,0.0,0.0,0.0,0.0,0.0,-1.0959,-1.3514,-1.3898,-1.5036,-1.8203,-1.8626,-1.8626,-1.8626,-1.7853,-1.6872,-1.5692,-1.5397,0.0,0.0,0.0,0.0,0.0,0.0,0.0,0.0,0.0,0.0,0.0,0.0,0.0,0.0,0.0,0.0,0.0,0.0,0.0,0.0,0.0,0.0,0.0,0.0,0.0,0.0,0.0,0.0,0.0,0.0,0.0,0.0,0.0,0.0,0.0,0.0,0.0,0.0,0.0,-2.6671,-2.836,-2.9649,-3.0467,-3.0929,-3.0929,-2.9833,-2.8088,0.0,-2.3832,-2.2312,-2.0654,-2.0308,-2.0308,-2.0308,-2.075,-2.1504,0.0,-2.3317,-2.4606,-2.7159,0.0,0.0,0.0,0.0,0.0,0.0,0.0,-4.0496,-4.0496,-4.0496,-4.0496,-4.0496,-4.0496,-4.0496,-4.0496,-4.0496,-4.0496,-4.0496,-4.0496,-4.0496,-4.0496,-4.0496,-4.0496,-4.0496,-4.0496,-4.0496,-4.0496,-4.0496,-4.0496,0.0,-4.0496,-4.0496,-4.0496,-4.0496,-4.0496,-4.0477,-4.0227,-3.9631,-3.8796,0.0,0.0,0.0,0.0,0.0,0.0,-1.3514,-1.3898,-1.4824,-1.7372,-1.7718,-1.7718,-1.7718,-1.6987,-1.6506,-1.6487,-1.5695,0.0,0.0,0.0,0.0,0.0,0.0,0.0,0.0,0.0,0.0,0.0,0.0,0.0,0.0,0.0,0.0,0.0,0.0,0.0,0.0,0.0,0.0,0.0,0.0,0.0,0.0,0.0,0.0,0.0,0.0,0.0,0.0,0.0,0.0,0.0,0.0,0.0,0.0,0.0,-2.543,-2.5989,-2.8442,-2.9127,-2.9127,-2.9127,-2.8511,-2.7241,0.0,-2.3432,-2.2312,-2.0654,-2.0308,-2.0308,-2.0308,-2.0308,-2.0869,-2.2528,-2.2816,-2.3697,-2.6255,-2.8044,0.0,0.0,0.0,0.0,0.0,0.0,-4.0496,-4.0496,-4.0496,0.0,-4.0496,-4.0496,-4.0496,-4.0496,-4.0496,-4.0496,-4.0496,-4.0496,-4.0496,-4.0496,-4.0496,-4.0496,-4.0496,-4.0496,-4.0496,-4.0496,-4.0496,-4.0496,0.0,-4.0496,-4.0496,-4.0496,-4.0496,-4.0496,-4.04,-3.9611,-3.8757,-3.7892,0.0,0.0,0.0,0.0,0.0,0.0,0.0,-1.2192,-1.3118,-1.5657,-1.5462,-1.5558,-1.6756,-1.6118,-1.5615,-1.5615,-1.5365,0.0,0.0,0.0,0.0,0.0,0.0,0.0,0.0,0.0,-1.6426,-1.6699,-1.8496,0.0,0.0,0.0,0.0,0.0,0.0,0.0,0.0,0.0,0.0,0.0,0.0,0.0,0.0,0.0,0.0,0.0,0.0,0.0,0.0,0.0,0.0,0.0,0.0,0.0,0.0,0.0,0.0,0.0,-2.6378,-2.7009,-2.732,-2.666,-2.6308,-2.562,-2.3663,-2.3009,-2.2312,-2.0654,-2.0308,-2.0308,-2.0308,-2.0308,-2.1043,-2.3317,-2.3687,0.0,0.0,0.0,0.0,0.0,0.0,0.0,0.0,0.0,-4.0496,-4.0496,-4.0496,-4.0496,-4.0496,-4.0496,-4.0496,-4.0496,-4.0496,-4.0496,-4.0496,-4.0496,-4.0496,-4.0496,-4.0496,-4.0496,-4.0496,-4.0496,-4.0496,-4.0496,-4.0496,-4.0496,-4.0496,-4.0496,-4.0496,-4.0496,-4.0496,-4.0496,-4.04,-3.9611,-3.8738,-3.7873,0.0,0.0,0.0,0.0,0.0,0.0,0.0,-1.1408,-1.2082,-1.4003,-1.3788,-1.3981,-1.5365,-1.5038,-1.4843,-1.5173,-1.5192,0.0,0.0,0.0,0.0,0.0,0.0,0.0,0.0,-1.5936,-1.6699,-1.7676,-1.9316,-1.9883,-1.9492,-2.0586,0.0,0.0,0.0,0.0,0.0,0.0,0.0,0.0,0.0,0.0,0.0,0.0,0.0,0.0,0.0,0.0,0.0,0.0,0.0,0.0,0.0,0.0,0.0,0.0,-2.2956,0.0,0.0,-2.5337,-2.561,-2.5027,-2.4876,-2.4455,-2.2766,-2.2377,-2.1965,-2.0576,-2.0296,-2.0308,-2.0308,-2.0308,-2.1023,-2.324,-2.3605,0.0,0.0,0.0,0.0,0.0,0.0,0.0,0.0,-4.0131,-4.0496,-4.0496,-4.0496,-4.0496,-4.0496,-4.0496,-4.0496,-4.0496,-4.0496,-4.0496,-4.0496,-4.0496,-4.0496,-4.0496,-4.0496,-4.0496,-4.0496,-4.0496,-4.0496,-4.0496,-4.0496,-4.0496,0.0,-4.0496,-4.0496,-4.0477,-4.0169,-4.0054,-3.9919,-3.8738,-3.7988,-3.7392,0.0,0.0,0.0,0.0,0.0,0.0,0.0,-1.1312,-1.162,-1.2488,-1.2548,-1.2813,-1.3629,-1.3783,-1.4132,-1.4942,0.0,0.0,0.0,0.0,0.0,0.0,0.0,0.0,0.0,-1.5505,-1.6777,-1.9219,-1.9453,-2.0371,-2.1894,-2.2012,-2.0644,0.0,0.0,0.0,0.0,0.0,0.0,0.0,0.0,0.0,0.0,0.0,0.0,0.0,0.0,0.0,0.0,0.0,0.0,0.0,0.0,0.0,0.0,0.0,0.0,0.0,0.0,0.0,0.0,0.0,-2.3975,-2.3592,-2.1973,-2.1601,0.0,-2.0484,-2.0304,-2.0316,-2.0365,-2.0385,-2.0942,-2.2697,-2.3028,0.0,0.0,0.0,0.0,0.0,0.0,0.0,-3.818,-3.9592,-4.0496,-4.0496,-4.0496,-4.0496,-4.0496,-4.0496,-4.0496,-4.0496,-4.0496,-4.0496,-4.0496,-4.0496,-4.0496,-4.0496,-4.0496,-4.0496,-4.0496,-4.0496,-4.0496,0.0,-4.0496,-4.0496,-4.0496,-4.0496,-4.0477,-4.0342,-3.9592,-3.9265,-3.8996,-3.7315,-3.6692,-3.6577,0.0,0.0,0.0,0.0,0.0,0.0,0.0,0.0,0.0,0.0,-1.1118,-1.1041,-1.1887,-1.2582,-1.3063,0.0,0.0,0.0,0.0,0.0,0.0,0.0,0.0,0.0,0.0,-1.6624,-1.7633,-1.8301,-2.0977,-2.2148,-2.1934,-2.3203,-2.209,-1.8984,-1.8984,0.0,0.0,0.0,0.0,0.0,0.0,0.0,0.0,0.0,0.0,0.0,0.0,-1.6836,0.0,0.0,0.0,0.0,0.0,0.0,0.0,0.0,-2.043,-2.0136,-2.1166,0.0,-2.2184,-2.1463,-2.1798,-2.2012,0.0,-2.121,-2.142,0.0,0.0,0.0,-2.1093,-2.1216,-2.1981,-2.4327,-2.5274,-2.6159,0.0,0.0,0.0,0.0,0.0,-3.9919,-3.9919,-4.0265,-4.0496,-4.0496,-4.0496,-4.0496,-4.0496,-4.0496,-4.0496,-4.0496,-4.0496,-4.0496,-4.0496,-4.0496,-4.0496,-4.0496,-4.0496,-4.0496,-4.0496,-4.0496,-4.0496,-4.0496,-4.0496,-4.0496,-4.0496,-4.0496,-4.015,-3.9554,-3.9381,-3.8892,-3.818,-3.7103,-3.6692,-3.6577,0.0,0.0,0.0,0.0,0.0,0.0,0.0,0.0,0.0,0.0,0.0,0.0,0.0,0.0,0.0,0.0,0.0,0.0,0.0,0.0,0.0,0.0,0.0,0.0,-1.5305,-1.6649,-1.794,-1.9158,-2.1464,-2.2754,-2.3066,-2.3984,-2.2793,-1.9844,-1.8633,0.0,0.0,0.0,0.0,0.0,0.0,0.0,0.0,0.0,0.0,0.0,-1.5391,-1.6269,0.0,-1.7324,-1.8496,-1.9922,0.0,0.0,0.0,0.0,-1.9062,-1.8887,-1.9766,-2.0917,-2.1711,-2.1211,-2.144,-2.1673,-2.1207,0.0,0.0,0.0,0.0,0.0,0.0,0.0,0.0,0.0,-2.5447,0.0,0.0,0.0,0.0,0.0,-3.9477,-4.0496,0.0,-4.0496,-4.0496,-4.0496,-4.0496,-4.0496,-4.0496,-4.0496,-4.0496,-4.0496,-4.015,-4.0131,-4.0496,-4.0496,-4.0496,-4.0496,-4.0496,-4.0496,-4.0496,-4.0496,-4.0496,-4.0496,-4.0496,-4.0496,-4.0477,-4.0092,-3.9688,-3.9227,-3.8411,-3.7815,-3.7296,-3.6462,-3.6154,-3.6096,0.0,0.0,0.0,0.0,0.0,0.0,0.0,0.0,0.0,0.0,0.0,0.0,0.0,0.0,0.0,0.0,0.0,0.0,0.0,0.0,0.0,0.0,0.0,-1.5347,-1.5472,-1.6393,-1.8007,-2.0299,-2.1501,-2.2812,-2.4219,-2.4473,-2.3164,-2.0488,-1.8008,-1.6348,0.0,0.0,0.0,0.0,0.0,0.0,0.0,0.0,0.0,0.0,0.0,0.0,0.0,-1.7402,-1.8359,-1.9258,-1.8984,0.0,0.0,0.0,0.0,0.0,-1.9199,-2.0664,-2.1875,-2.1738,-2.1894,-2.2051,0.0,0.0,0.0,0.0,0.0,0.0,0.0,0.0,0.0,0.0,0.0,0.0,0.0,0.0,0.0,0.0,-3.9477,0.0,-4.0496,-4.0496,-4.0496,-4.0496,-4.0496,-4.0496,-4.0496,-4.0496,-4.0439,-4.0323,-3.9669,-3.9554,-4.0112,-4.0131,-4.0189,-4.0323,-4.0323,-4.0381,-4.0496,-4.0496,-4.0496,-4.0496,-4.0362,-4.0323,-4.0246,-3.9438,-3.9015,-3.8757,-3.7276,-3.6615,-3.6423,-3.575,-3.55,-3.55,0.0,0.0,0.0,0.0,0.0,0.0,0.0,0.0,0.0,0.0,0.0,0.0,0.0,0.0,0.0,0.0,0.0,0.0,0.0,0.0,0.0,0.0,-1.5204,-1.5568,-1.63,-1.7185,-1.821,-1.9395,-2.1762,-2.308,-2.3418,-2.4844,-2.375,-2.0527,-1.8633,-1.6914,-1.5391,0.0,0.0,0.0,0.0,0.0,0.0,0.0,0.0,0.0,0.0,0.0,0.0,-1.5996,-1.7363,-1.9043,-1.7559,0.0,0.0,0.0,0.0,0.0,-1.9766,-2.1133,-2.1719,-2.0977,-2.1875,-2.2734,-2.2051,0.0,0.0,0.0,0.0,0.0,0.0,0.0,0.0,0.0,0.0,0.0,0.0,0.0,-3.7019,-3.7892,0.0,-4.0496,-4.0496,-4.0496,-4.0496,-4.0496,-4.0496,-4.0496,-4.0496,-4.0496,-4.0189,-3.9515,-3.9361,-3.9015,-3.8392,-3.8373,-3.8738,-3.9477,-3.9477,-3.9842,-4.0496,-4.0496,-4.0496,-4.0458,-3.9785,-3.9477,-3.9419,-3.8546,-3.7757,-3.7065,-3.6788,-3.6269,-3.5673,-3.5558,-3.55,-3.55,0.0,0.0,0.0,0.0,0.0,0.0,0.0,0.0,0.0,0.0,0.0,0.0,0.0,0.0,0.0,0.0,0.0,0.0,0.0,0.0,0.0,-1.5888,-1.5907,-1.6098,-1.6499,-1.7821,-1.9151,-2.05,-2.2678,-2.4008,-2.4485,-2.4355,-2.2715,-1.9844,-1.8574,-1.7031,-1.5391,0.0,0.0,0.0,0.0,0.0,0.0,0.0,0.0,0.0,0.0,0.0,0.0,0.0,-1.7207,-1.8457,-1.7656,0.0,0.0,0.0,0.0,0.0,-1.8613,-1.9824,-2.0625,-2.1172,-2.2559,-2.3711,-2.334,0.0,0.0,0.0,0.0,0.0,0.0,0.0,0.0,0.0,0.0,-3.2524,-3.4133,-3.5776,-3.6965,0.0,0.0,-3.9167,-3.92,-3.9162,-3.9142,-3.9142,-3.9142,-3.9142,-3.9142,-3.9142,-3.8969,-3.8604,-3.8142,-3.77,-3.7296,-3.6873,-3.7546,-3.9304,-3.9746,-4.015,-4.0496,-4.0054,-3.9842,-3.9804,-3.895,-3.8604,-3.8527,-3.7661,-3.7058,-3.6654,-3.6212,-3.5827,-3.55,-3.55,-3.55,-3.55,0.0,0.0,0.0,0.0,0.0,0.0,0.0,0.0,0.0,0.0,0.0,0.0,0.0,0.0,0.0,0.0,0.0,0.0,0.0,0.0,-1.55,-1.6176,-1.6388,-1.6772,-1.7388,-1.8709,-2.0201,-2.1894,-2.3491,-2.4726,-2.5563,-2.4099,-2.2051,-1.957,-1.8691,-1.7227,-1.5391,-1.5391,0.0,0.0,0.0,0.0,0.0,0.0,0.0,0.0,0.0,0.0,0.0,0.0,0.0,0.0,0.0,0.0,0.0,-1.7207,-1.6387,-1.6133,-1.8086,-1.8945,-1.9766,-2.1699,0.0,-2.4453,-2.4668,0.0,0.0,0.0,0.0,0.0,0.0,0.0,0.0,0.0,-3.2569,-3.383,-3.4666,-3.6024,-3.6944,-3.6989,-3.763,-3.8099,-3.8135,-3.8073,-3.8013,-3.8013,-3.801,-3.8007,-3.8007,-3.8007,-3.7911,-3.77,-3.7038,-3.6615,-3.6423,-3.5981,-3.6757,-3.87,-3.9323,-3.9727,-3.99,-3.9284,-3.8996,-3.8957,-3.8065,-3.77,-3.7623,-3.6769,-3.6423,-3.6365,-3.5731,-3.55,-3.55,-3.55,-3.55,-3.55,0.0,0.0,0.0,0.0,0.0,0.0,0.0,0.0,0.0,0.0,0.0,0.0,0.0,0.0,0.0,0.0,0.0,0.0,0.0,0.0,-1.5231,-1.5288,-1.6061,-1.7619,-1.9962,-2.0142,-2.1077,-2.2801,-2.3757,-2.4696,-2.5582,-2.4704,-2.2949,-2.0469,-1.9609,-1.7793,-1.5391,0.0,0.0,0.0,0.0,0.0,0.0,0.0,0.0,0.0,0.0,0.0,0.0,0.0,0.0,0.0,0.0,0.0,-1.7988,-1.793,-1.7285,-1.7168,-1.9727,-1.9863,-1.9902,-2.2383,-2.3711,0.0,-2.543,-2.6172,0.0,0.0,0.0,0.0,0.0,0.0,0.0,-3.2837,-3.3885,-3.4766,-3.5503,0.0,-3.6985,-3.6993,-3.7755,-3.8287,-3.8295,-3.818,-3.8081,-3.8081,-3.8041,-3.8007,-3.8007,-3.8007,-3.7623,-3.6808,-3.6731,-3.6346,-3.5596,-3.6269,-3.6712,-3.6885,-3.6942,-3.7411,-3.818,-3.8123,-3.8084,-3.8046,-3.718,-3.6788,-3.6731,-3.5923,-3.5596,-3.5577,-3.5519,-3.55,-3.55,-3.55,-3.55,-3.55,0.0,0.0,0.0,0.0,0.0,0.0,0.0,0.0,0.0,0.0,0.0,0.0,0.0,0.0,0.0,0.0,0.0,0.0,0.0,0.0,-1.4882,-1.5965,-1.6792,-1.7949,-1.9469,-2.0504,-2.191,-2.3646,-2.4509,-2.4894,-2.4762,-2.3971,-2.2515,-2.0566,-1.9687,-1.8457,0.0,0.0,0.0,0.0,0.0,0.0,0.0,0.0,0.0,0.0,0.0,0.0,0.0,0.0,-1.6602,-1.7461,-1.7266,-1.7949,-1.8691,-1.8164,-1.7383,-1.7148,-1.9238,-1.9551,-1.9902,-2.2461,0.0,0.0,0.0,0.0,0.0,0.0,-2.9531,0.0,0.0,0.0,-3.207,-3.3179,-3.4545,-3.5578,-3.5841,-3.6126,-3.633,-3.6362,-3.6557,-3.6729,-3.6796,-3.6692,-3.6615,-3.6615,-3.657,-3.6566,-3.6566,-3.6522,-3.6354,-3.6026,-3.5984,-3.5808,-3.55,-3.5808,-3.5942,-3.5962,-3.7007,-3.768,-3.7988,-3.745,-3.7199,-3.7161,-3.6308,-3.5942,-3.5923,-3.5635,-3.55,-3.55,-3.55,-3.55,-3.55,-3.55,-3.55,-3.55,0.0,0.0,0.0,0.0,0.0,0.0,0.0,0.0,0.0,0.0,0.0,0.0,0.0,0.0,0.0,0.0,0.0,0.0,0.0,-1.3308,-1.444,-1.5635,-1.6734,-1.7718,-1.8568,-2.0254,-2.1966,-2.3687,-2.4571,-2.4618,-2.3848,-2.3053,-2.2076,-2.0936,-1.9804,-1.8965,0.0,0.0,0.0,0.0,0.0,0.0,0.0,0.0,0.0,0.0,0.0,0.0,0.0,0.0,-1.6426,-1.7227,0.0,0.0,-1.8828,-1.8496,-1.8184,-1.8184,-1.9394,-1.9902,-2.0605,0.0,0.0,0.0,0.0,0.0,0.0,0.0,-3.0898,0.0,0.0,0.0,0.0,0.0,-3.5039,-3.5996,-3.5996,-3.5951,-3.5948,-3.5996,-3.5876,-3.5832,-3.5918,-3.5821,-3.5764,-3.5764,-3.572,-3.5707,-3.5707,-3.5659,-3.5635,-3.5635,-3.5579,-3.5568,-3.5568,-3.5534,-3.5534,-3.5581,-3.6671,-3.7219,-3.7199,-3.6596,-3.6327,-3.6288,-3.5731,-3.55,-3.55,-3.55,-3.55,-3.55,-3.55,-3.55,-3.55,-3.55,-3.55,-3.55,0.0,0.0,0.0,0.0,0.0,0.0,0.0,0.0,0.0,0.0,0.0,0.0,0.0,0.0,0.0,0.0,0.0,0.0,-1.1408,-1.2959,-1.3898,-1.3898,-1.5577,-1.6872,-1.7661,-1.9388,-2.11,-2.2797,-2.374,-2.3751,-2.2869,-2.2155,-2.1798,-2.1721,-2.0057,0.0,0.0,0.0,0.0,0.0,0.0,0.0,0.0,0.0,0.0,0.0,0.0,0.0,0.0,0.0,-1.6113,-1.5859,0.0,0.0,0.0,-1.9043,-1.9902,-2.0605,-2.0605,-2.123,-2.2109,0.0,0.0,0.0,0.0,0.0,0.0,0.0,0.0,-3.2461,-3.3262,0.0,0.0,-3.4551,-3.543,-3.5996,-3.5996,-3.5996,-3.5996,-3.5996,-3.5996,-3.5996,-3.5996,-3.5944,-3.5903,-3.5903,-3.5772,-3.5707,-3.5707,-3.5707,-3.5707,-3.5707,-3.5707,-3.5707,-3.5707,-3.5639,-3.5639,-3.5703,-3.5574,-3.5507,-3.55,-3.55,-3.55,-3.55,-3.55,-3.55,-3.55,-3.55,-3.55,-3.55,-3.55,-3.55,-3.55,-3.55,-3.55,-3.55,0.0,0.0,0.0,0.0,0.0,0.0,0.0,0.0,0.0,0.0,0.0,0.0,0.0,0.0,0.0,0.0,0.0,0.0,-1.137,-1.2447,-1.331,-1.3879,-1.5577,-1.6311,-1.5945,-1.76,-1.9892,-2.2797,-2.3683,-2.3385,-2.2001,-2.2444,-2.2026,-2.09,-2.1053,0.0,0.0,0.0,0.0,0.0,0.0,0.0,0.0,0.0,0.0,0.0,0.0,0.0,0.0,0.0,0.0,0.0,-1.7227,0.0,-1.9648,-1.8672,-1.9434,-2.0605,-2.0605,-2.123,0.0,0.0,0.0,0.0,0.0,0.0,0.0,0.0,0.0,-3.4023,-3.4277,0.0,0.0,-3.4668,-3.543,-3.5996,-3.5996,-3.5996,-3.5996,-3.5996,-3.5996,-3.5996,-3.5996,-3.5975,-3.5973,-3.5973,-3.593,-3.5907,-3.5907,-3.5861,-3.5841,-3.5841,-3.5755,-3.5707,-3.5707,-3.5675,-3.5678,-3.5703,-3.5663,-3.5621,-3.5579,-3.5522,-3.55,-3.55,-3.55,-3.55,-3.55,-3.55,-3.55,-3.55,-3.55,-3.55,-3.55,-3.55,-3.55,-3.55,0.0,0.0,0.0,0.0,0.0,0.0,0.0,0.0,0.0,0.0,0.0,0.0,0.0,0.0,0.0,0.0,0.0,0.0,0.0,0.0,-1.2911,-1.3404,-1.508,-1.5907,-1.5715,-1.7353,-1.9065,-2.0777,-2.1647,-2.1579,-2.062,-2.1536,-2.1804,-2.1564,0.0,-2.1914,0.0,0.0,0.0,0.0,-1.7637,-1.7012,-1.6699,0.0,0.0,0.0,0.0,0.0,0.0,0.0,0.0,0.0,0.0,0.0,0.0,-1.8613,-1.9746,-2.1191,-2.1543,0.0,0.0,0.0,0.0,0.0,0.0,0.0,0.0,0.0,0.0,-3.4805,-3.5156,-3.4922,0.0,-3.5156,-3.5664,-3.5996,-3.5996,-3.5996,-3.5996,-3.5996,-3.5996,-3.5996,-3.5996,-3.5996,-3.5996,-3.5996,-3.5996,-3.5996,-3.5996,-3.5951,-3.5944,-3.5944,-3.5864,-3.581,-3.581,-3.5785,-3.5785,-3.583,-3.5738,-3.5712,-3.5725,-3.5626,-3.5582,-3.5582,-3.5582,-3.5582,-3.5577,-3.5558,-3.557,-3.5571,-3.5515,-3.5528,-3.5571,-3.5515,-3.5528,-3.5547,0.0,0.0,0.0,0.0,0.0,0.0,0.0,0.0,0.0,0.0,0.0,0.0,0.0,0.0,0.0,0.0,0.0,0.0,0.0,0.0,-1.2702,-1.2702,-1.4387,-1.5712,-1.6583,-1.803,-1.8376,-1.7584,-1.8537,-1.9043,-1.9115,-2.0072,-2.1405,-2.2991,0.0,-2.2617,0.0,0.0,0.0,-1.7988,-1.791,-1.7402,-1.6699,-1.6699,0.0,0.0,0.0,0.0,0.0,0.0,0.0,0.0,-1.6426,-1.6758,-1.7109,-1.8613,-2.041,-2.2051,-2.2773,0.0,0.0,0.0,0.0,0.0,0.0,0.0,0.0,-3.584,0.0,-3.5059,-3.5859,-3.5351,-3.5078,-3.5879,-3.5996,-3.5996,-3.5996,-3.5996,-3.5996,-3.5996,-3.5996,-3.5996,-3.5996,-3.5996,-3.5996,-3.5996,-3.5996,-3.5996,-3.5996,-3.5996,-3.5996,-3.5996,-3.5996,-3.5996,-3.5996,-3.5944,-3.5944,-3.5996,-3.5808,-3.5783,-3.5907,-3.5766,-3.5707,-3.5707,-3.5707,-3.5707,-3.57,-3.5639,-3.5657,-3.5689,-3.5574,-3.5595,-3.5686,-3.5568,-3.555,-3.5606,0.0,0.0,0.0,0.0,0.0,0.0,0.0,0.0,0.0,0.0,0.0,0.0,0.0,0.0,0.0,0.0,0.0,0.0,0.0,0.0,-1.2702,-1.2702,-1.4967,-1.6599,-1.743,-1.718,-1.6949,-1.6756,-1.8313,-1.9084,0.0,0.0,0.0,-2.2112,0.0,-2.2266,0.0,0.0,-1.834,-1.7949,-1.7266,-1.6875,-1.6699,-1.6699,-1.6152,0.0,0.0,0.0,0.0,0.0,0.0,0.0,-1.6426,-1.7168,-1.7656,-1.7344,-1.9453,-2.1797,0.0,-2.3379,0.0,0.0,0.0,0.0,0.0,0.0,0.0,-3.5957,-3.5859,-3.5781,-3.5976,-3.5859,-3.5781,-3.5976,-3.5996,-3.5996,-3.5996,-3.5996,-3.5996,-3.5996,-3.5996,-3.5996,-3.5996,-3.5996,-3.5996,-3.5996,-3.5996,-3.5996,-3.5996,-3.5996,-3.5996,-3.5996,-3.5996,-3.5996,-3.5996,-3.5995,-3.5995,-3.5996,-3.5954,-3.5953,-3.5974,-3.5788,-3.5707,-3.5707,-3.5707,-3.5707,-3.5703,-3.5682,-3.5686,-3.57,-3.5679,-3.5667,-3.57,-3.5675,-3.5675,-3.5675,0.0,0.0,0.0,0.0,0.0,0.0,0.0,0.0,0.0,0.0,0.0,0.0,0.0,0.0,0.0,0.0,0.0,0.0,0.0,0.0,-1.3065,-1.3851,-1.5564,-1.6503,-1.6503,-1.6503,-1.6292,-1.5888,-1.6818,0.0,0.0,0.0,0.0,-2.2456,0.0,-2.2559,0.0,0.0,-1.8516,-1.7363,-1.7344,-1.707,-1.6699,-1.6699,-1.6152,-1.5391,-1.5391,0.0,0.0,0.0,0.0,0.0,0.0,0.0,-1.6836,-1.7207,-1.8906,-2.082,0.0,0.0,0.0,0.0,0.0,0.0,0.0,0.0,0.0,-3.5996,-3.5996,-3.5996,-3.5996,-3.5996,-3.5996,-3.5996,-3.5996,-3.5996,-3.5996,-3.5996,-3.5996,-3.5996,-3.5996,-3.5996,-3.5996,-3.5996,-3.5996,-3.5996,-3.5996,-3.5996,-3.5996,-3.5996,-3.5996,-3.5996,-3.5996,-3.5996,-3.5996,-3.5996,-3.5996,-3.5996,-3.5996,-3.5996,-3.5996,-3.588,-3.5843,-3.5843,-3.5843,-3.5843,-3.5841,-3.5814,-3.5819,-3.5838,-3.5738,-3.5752,-3.5838,-3.5735,-3.5476,-3.5232,0.0,0.0,0.0,0.0,0.0,0.0,0.0,0.0,0.0,0.0,0.0,0.0,0.0,0.0,0.0,0.0,0.0,0.0,0.0,-1.2529,-1.3527,-1.5346,-1.6118,-1.6234,-1.5635,-1.6195,-1.6157,-1.5423,0.0,0.0,0.0,0.0,0.0,-2.3359,0.0,0.0,0.0,0.0,-1.873,-1.6543,-1.7266,-1.7129,-1.6484,-1.6484,-1.6035,-1.5391,-1.5391,-1.5391,-1.5391,-1.5391,0.0,0.0,0.0,0.0,-1.5684,-1.7129,-1.8262,-1.9551,0.0,0.0,0.0,0.0,0.0,0.0,0.0,0.0,0.0,-3.5976,-3.5996,-3.5996,-3.5996,-3.5996,-3.5996,-3.5996,-3.5996,-3.5996,-3.5996,-3.5996,-3.5996,-3.5996,-3.5996,-3.5996,-3.5996,-3.5996,-3.5996,-3.5996,-3.5996,-3.5996,-3.5996,-3.5996,-3.5937,-3.5781,-3.5781,-3.5703,-3.5547,-3.5547,-3.5547,-3.5547,-3.5547,-3.5625,-3.5781,-3.5781,-3.5859,-3.5996,-3.5996,-3.5996,-3.5996,-3.5945,-3.5948,-3.5976,-3.583,-3.5846,-3.5976,-3.5808,-3.5273,-3.474,0.0,0.0,0.0,0.0,0.0,0.0,0.0,0.0,0.0,0.0,0.0,-1.0094,-1.0094,-1.0094,0.0,0.0,0.0,0.0,-1.0423,0.0,0.0,-1.6215,-1.6445,-1.6776,-1.7353,-1.6795,-1.6445,-1.633,0.0,0.0,0.0,0.0,0.0,-2.4199,0.0,0.0,0.0,0.0,0.0,-1.5586,-1.5703,-1.5684,-1.5566,-1.5566,-1.5508,-1.5391,-1.5391,-1.5391,-1.5391,-1.5391,-1.5391,0.0,0.0,0.0,-1.5449,-1.5684,-1.6894,-1.8242,0.0,0.0,0.0,0.0,0.0,0.0,0.0,0.0,0.0,0.0,-3.5996,-3.5996,-3.5996,-3.5996,-3.5996,-3.5996,-3.5996,-3.5996,-3.5996,-3.5996,-3.5996,-3.5996,-3.5996,-3.5996,-3.5996,-3.5996,-3.5996,-3.5996,-3.5996,-3.5996,-3.5996,-3.5996,-3.5644,-3.4902,-3.4863,-3.4512,-3.375,-3.375,-3.375,-3.375,-3.375,-3.4141,-3.4863,-3.4863,-3.5293,-3.5996,-3.5996,-3.5996,-3.5996,-3.5996,-3.5996,-3.5996,-3.5975,-3.5976,-3.5996,-3.5975,-3.5428,-3.4804,0.0,0.0,0.0,0.0,0.0,0.0,0.0,0.0,0.0,0.0,0.0,-1.0094,-1.0094,-1.0094,0.0,0.0,0.0,0.0,-1.081,-1.2425,0.0,0.0,-1.55,-1.5945,-1.6292,-1.5462,-1.5288,0.0,0.0,0.0,0.0,-2.0324,-2.1909,0.0,0.0,0.0,0.0,0.0,0.0,-1.6094,-1.5605,-1.5996,-1.6758,-1.5762,-1.6016,-1.6738,-1.5742,-1.5391,-1.5391,-1.5391,-1.5391,-1.5391,-1.5391,0.0,0.0,0.0,0.0,0.0,0.0,0.0,0.0,0.0,0.0,0.0,0.0,0.0,0.0,-3.5098,-3.5273,-3.543,-3.5918,-3.5996,-3.5996,-3.5996,-3.5996,-3.5996,-3.5996,-3.5996,-3.5996,-3.5996,-3.5996,-3.5996,-3.5996,-3.5996,-3.5996,-3.5996,-3.5996,-3.5781,-3.5293,-3.5273,-3.4863,-3.4004,-3.3965,-3.3789,-3.3398,-3.3398,-3.3398,-3.3398,-3.3398,-3.3594,-3.3965,-3.3965,-3.4707,-3.5976,-3.5488,-3.5273,-3.5234,-3.4746,-3.4531,-3.4531,-3.4531,-3.4531,-3.4531,-3.4531,-3.4023,-3.3418,0.0,0.0,0.0,0.0,0.0,0.0,0.0,0.0,0.0,0.0,0.0,0.0,-1.0113,0.0,0.0,0.0,0.0,0.0,-1.1331,0.0,0.0,0.0,0.0,-1.4978,-1.5192,-1.4343,0.0,0.0,0.0,0.0,-2.0382,-2.0653,-2.2145,0.0,-2.3823,0.0,0.0,0.0,0.0,0.0,0.0,-1.6836,-1.791,-1.7051,-1.7539,-1.8437,-1.6699,-1.6055,-1.5996,-1.5547,-1.5391,-1.5391,-1.5391,0.0,0.0,0.0,0.0,0.0,0.0,0.0,0.0,0.0,0.0,0.0,0.0,0.0,-3.3066,0.0,-3.4375,-3.457,-3.5215,-3.5703,-3.5996,-3.5996,-3.5996,-3.5996,-3.5996,-3.5996,-3.5996,-3.5996,-3.5996,-3.5996,-3.5996,-3.5996,-3.5996,-3.5996,-3.5781,-3.5391,-3.4726,-3.4492,-3.3984,-3.3125,-3.3105,-3.2988,-3.2773,-3.2754,-3.2754,-3.2754,-3.2754,-3.2871,-3.3105,-3.3105,-3.3926,-3.5293,-3.4648,-3.4375,-3.4316,-3.3672,-3.3398,-3.3398,-3.3398,-3.3398,-3.3398,-3.3398,-3.2891,-3.2324,0.0,0.0,0.0,0.0,0.0,0.0,0.0,0.0,0.0,0.0,0.0,0.0,0.0,0.0,0.0,0.0,0.0,0.0,0.0,0.0,0.0,0.0,0.0,0.0,0.0,-1.4343,0.0,0.0,0.0,0.0,-2.0319,-2.1149,-2.2891,-2.5307,-2.4649,-2.3437,-2.1777,0.0,0.0,0.0,0.0,-1.793,-1.8164,-1.9727,-2.0391,-2.0234,-1.8496,-1.7852,0.0,0.0,0.0,-1.5391,-1.5391,-1.5391,-1.5391,0.0,0.0,0.0,0.0,0.0,0.0,0.0,0.0,0.0,0.0,0.0,0.0,0.0,-3.3476,-3.3476,-3.3535,-3.4883,-3.5996,-3.5996,-3.5996,-3.5996,-3.5996,-3.5996,-3.5996,-3.5996,-3.5996,-3.5996,-3.5996,-3.5996,-3.5996,-3.5996,-3.5234,-3.4746,-3.4707,-3.3926,-3.3105,-3.2285,-3.2266,-3.1875,-3.1035,-3.1035,-3.1035,-3.1035,-3.1035,-3.1465,-3.2266,-3.2266,-3.2734,-3.3535,-3.3496,-3.3476,-3.3457,-3.3418,-3.3398,-3.3398,-3.3398,-3.3398,-3.3398,-3.3398,-3.2891,-3.2324,0.0,0.0,0.0,0.0,0.0,0.0,0.0,0.0,0.0,0.0,0.0,0.0,0.0,-1.1543,-1.1271,-1.0964,0.0,0.0,0.0,0.0,0.0,0.0,0.0,0.0,0.0,0.0,0.0,0.0,0.0,-1.5314,-1.8642,-1.9566,-2.1357,-2.3795,-2.3599,-2.3458,-2.3181,-2.0373,0.0,0.0,0.0,0.0,0.0,-2.0515,-2.1207,-2.1908,-2.0166,0.0,0.0,0.0,0.0,-1.623,-1.623,-1.5859,-1.5391,-1.5391,0.0,0.0,0.0,0.0,0.0,0.0,0.0,0.0,0.0,0.0,-3.0391,-3.1562,-3.2246,-3.2793,-3.3301,-3.3906,-3.4336,-3.4336,-3.4336,-3.4336,-3.4336,-3.4336,-3.4336,-3.4336,-3.4336,-3.4336,-3.4336,-3.4336,-3.4336,-3.4336,-3.4043,-3.3633,-3.3125,-3.2793,-3.2246,-3.1387,-3.1367,-3.1211,-3.0898,-3.0898,-3.0898,-3.0898,-3.0898,-3.1055,-3.1367,-3.1367,-3.1523,-3.1797,-3.1797,-3.2109,-3.2598,-3.2031,-3.1797,-3.1797,-3.1797,-3.1797,-3.1797,-3.1797,-3.1601,-3.1406,0.0,0.0,0.0,0.0,0.0,0.0,0.0,0.0,0.0,-1.1327,0.0,0.0,0.0,0.0,-1.2137,-1.1851,-1.1041,-1.0538,-1.0538,0.0,0.0,0.0,0.0,0.0,0.0,0.0,0.0,0.0,0.0,0.0,0.0,-1.8205,-1.9979,-2.2415,-2.1883,-2.2593,0.0,0.0,0.0,-2.1318,0.0,0.0,-2.2256,-2.2512,-2.3112,-2.3648,-2.2207,0.0,0.0,0.0,0.0,0.0,-1.7157,-1.6303,-1.5408,-1.5408,-1.6425,0.0,0.0,0.0,0.0,0.0,0.0,0.0,0.0,0.0,-2.8691,-3.0156,-3.0918,-3.1582,-3.2402,-3.2559,-3.2754,-3.3301,-3.3398,-3.3398,-3.3398,-3.3398,-3.3398,-3.3398,-3.3398,-3.3398,-3.3398,-3.3398,-3.3398,-3.3398,-3.3144,-3.2754,-3.2226,-3.1914,-3.1504,-3.0918,-3.0898,-3.0898,-3.0898,-3.0898,-3.0898,-3.0898,-3.0898,-3.0898,-3.0898,-3.0898,-3.0898,-3.0898,-3.0898,-3.123,-3.1719,-3.1133,-3.0898,-3.0898,-3.0898,-3.0898,-3.0898,-3.0898,-3.0898,-3.0898,0.0,0.0,0.0,0.0,0.0,0.0,0.0,0.0,-1.1445,-1.1466,0.0,0.0,0.0,0.0,0.0,-1.2815,-1.1966,-1.1466,-1.1447,-1.0654,0.0,0.0,0.0,0.0,0.0,0.0,0.0,0.0,0.0,0.0,0.0,0.0,-1.8984,-2.137,-1.9719,-2.0892,-2.4037,0.0,-2.2937,-2.3093,0.0,-2.3036,-2.3422,0.0,-2.6295,-2.5462,-2.4619,-2.3783,0.0,-2.1131,0.0,0.0,-1.8129,-1.6745,-1.5471,-1.5432,-1.6069,0.0,0.0,0.0,0.0,0.0,0.0,0.0,0.0,0.0,-2.6367,-2.8945,-2.9512,-2.9785,-3.0664,-3.084,-3.1387,-3.3027,-3.3301,-3.332,-3.332,-3.332,-3.332,-3.332,-3.332,-3.332,-3.332,-3.332,-3.332,-3.332,-3.2598,-3.2168,-3.2168,-3.1367,-3.0898,-3.0898,-3.0898,-3.0898,-3.0898,-3.0898,-3.0898,-3.0898,-3.0898,-3.0898,-3.0898,-3.0898,-3.0898,-3.0898,-3.0898,-3.0898,-3.0898,-3.0898,-3.0898,-3.0898,-3.0898,-3.0898,-3.0898,-3.0898,-3.0898,-3.0898,0.0,0.0,0.0,0.0,0.0,-1.2057,-1.2189,-1.2205,-1.2432,0.0,0.0,0.0,-1.4522,-1.4712,-1.4497,-1.3632,-1.3344,-1.2962,-1.2373,-1.2103,-1.2466,-1.3517,-1.3574,-1.4077,-1.5173,0.0,0.0,0.0,0.0,0.0,-1.4632,-1.5481,-1.7253,0.0,-1.9215,-1.9883,-2.1283,-1.98,0.0,-2.2904,-2.2256,-2.3103,0.0,0.0,0.0,0.0,0.0,-2.6361,-2.5506,0.0,-2.305,-2.1478,0.0,0.0,0.0,-1.6446,0.0,0.0,-1.7019,0.0,0.0,0.0,0.0,0.0,0.0,0.0,0.0,-2.6387,-2.7285,-2.7988,-2.8867,-2.9531,-3.0117,-3.0586,-3.1172,-3.1582,-3.1582,-3.1582,-3.1582,-3.1582,-3.1582,-3.1582,-3.1582,-3.1582,-3.1582,0.0,-3.1387,-3.1269,-3.1269,-3.1035,-3.0898,-3.0898,-3.0898,-3.0898,-3.0898,-3.0898,-3.0898,-3.0898,-3.0898,-3.0898,-3.0898,-3.0898,-3.0898,-3.0898,-3.0898,-3.0898,-3.0898,-3.0898,-3.0898,-3.0898,-3.0898,-3.0898,-3.0898,-3.0898,-3.0898,-3.0898,0.0,0.0,0.0,0.0,0.0,-1.3474,-1.3895,-1.4011,-1.4251,0.0,0.0,0.0,-1.6234,-1.6561,-1.6426,-1.5558,-1.4843,-1.425,-1.3775,-1.3084,-1.3063,-1.386,-1.3898,-1.4305,-1.5173,-1.4709,-1.4036,-1.3195,-1.3195,-1.3442,-1.3918,-1.442,-1.5849,-1.7933,-1.7577,-1.8096,-1.91,-1.7388,0.0,0.0,-2.3466,0.0,0.0,-2.7256,-2.7783,0.0,0.0,0.0,-2.7113,-2.6611,-2.5096,0.0,0.0,0.0,0.0,-1.7441,0.0,0.0,0.0,0.0,0.0,0.0,0.0,0.0,-2.1929,-2.2692,0.0,0.0,-2.6641,-2.7266,-2.8144,-2.8711,-2.9062,-2.9062,-2.9785,-3.0488,-3.0859,-3.0898,-3.0898,-3.0898,-3.0898,-3.0898,-3.0898,-3.0898,-3.0898,-3.0898,-3.0898,-3.0898,-3.0898,-3.0898,-3.0898,-3.0898,-3.0898,-3.0898,-3.0898,-3.0898,-3.0898,-3.0898,-3.0898,-3.0898,-3.0898,-3.0898,-3.0898,-3.0898,-3.0898,-3.0898,-3.0898,-3.0898,-3.0898,-3.0898,-3.0898,-3.0898,-3.0898,-3.0898,-3.0898,-3.0898,0.0,0.0,-1.5082,-1.5941,-1.5527,-1.5367,-1.6201,-1.6345,-1.6436,0.0,-1.7424,-1.8065,-1.8257,-1.8799,-1.8876,-1.818,-1.6503,-1.5481,-1.5481,-1.3909,-1.3294,-1.4014,-1.4033,-1.442,-1.5173,-1.5192,-1.4766,-1.3898,-1.3898,-1.3898,-1.3898,-1.3898,-1.4786,-1.6311,-1.5558,-1.6022,-1.7353,-1.6231,0.0,-2.2804,-2.5123,-2.6351,0.0,0.0,-2.8714,-2.8275,-2.8992,-2.878,-2.8159,-2.8068,-2.6395,0.0,0.0,0.0,0.0,0.0,-1.9937,0.0,0.0,0.0,0.0,0.0,0.0,0.0,-2.3312,-2.3281,-2.3502,0.0,-2.6425,-2.6699,-2.7558,-2.7871,-2.7969,-2.7871,-2.8769,-2.9766,-3.0625,-3.084,-3.0898,-3.0898,-3.0898,-3.0898,-3.0898,-3.0898,-3.0898,-3.0898,-3.0898,-3.0898,-3.0898,-3.0898,-3.0898,-3.0898,-3.0898,-3.0898,-3.0898,-3.0898,-3.0898,-3.0898,-3.0898,-3.0898,-3.0898,-3.0898,-3.0898,-3.0898,-3.0898,-3.0898,-3.0898,-3.0898,-3.0898,-3.0898,-3.0898,-3.0898,-3.0898,-3.0898,-3.0898,-3.0898,0.0,-1.495,-1.5632,-1.6031,-1.6493,-1.7179,-1.8255,-1.7842,-1.7914,-1.9315,-1.9662,-2.0312,-2.1662,-2.0754,-2.0235,-2.0716,-1.8581,-1.7218,-1.7218,-1.5638,-1.4788,-1.4942,-1.4942,-1.5038,-1.5192,-1.5192,-1.4766,-1.3898,-1.3898,-1.3898,-1.3898,-1.3898,-1.4459,-1.5442,-1.5288,-1.5385,-1.5846,0.0,0.0,-2.0912,-2.2091,-2.4617,-2.7783,-2.8796,-2.9491,-2.9923,-3.0096,-3.0058,-2.9808,-2.9102,-2.7645,-2.5909,0.0,0.0,0.0,-2.1293,-2.1637,-2.2362,-2.1388,0.0,0.0,0.0,0.0,0.0,-2.0338,-2.0582,-2.1337,0.0,-2.2787,-2.3069,-2.3887,-2.5174,-2.5907,-2.5263,-2.7068,-2.8867,-2.9726,-3.0469,-3.0898,-3.0898,-3.0898,-3.0898,-3.0898,-3.0898,-3.0898,-3.0898,-3.0898,-3.0898,-3.0898,-3.0898,-3.0898,-3.0898,-3.0898,-3.0898,-3.0898,-3.0898,-3.0898,-3.0898,-3.0898,-3.0898,-3.0898,-3.0898,-3.0898,-3.0898,-3.0898,-3.0898,-3.0898,-3.0898,-3.0898,-3.0898,-3.0898,-3.0898,-3.0898,-3.0898,-3.0898,-3.0898,0.0,-1.555,-1.6618,-1.716,-1.7993,-1.9054,-2.044,-2.036,-2.0463,-2.1325,-2.1874,-2.2355,-2.2759,-2.2451,-2.2004,-2.1543,-1.9965,-1.8638,-1.7757,-1.6542,-1.5654,-1.5212,-1.5192,-1.5404,-1.5849,-1.5423,-1.5192,-1.5192,-1.4766,-1.4555,-1.4555,-1.4555,-1.5231,-1.6426,-1.6022,-1.6311,0.0,0.0,-1.9735,-2.1124,-2.3697,0.0,-2.8035,-2.9317,-3.0048,-3.0404,-3.0404,-3.0404,-3.0212,-2.8929,-2.8203,0.0,-2.5846,-2.562,-2.5568,0.0,-2.3701,-2.4423,-2.3183,0.0,0.0,-2.2564,0.0,0.0,0.0,-2.1665,-2.2058,-2.3333,-2.2968,-2.2648,-2.3484,-2.4358,-2.4822,-2.443,-2.6174,-2.759,-2.7561,-2.8747,-2.9609,-2.9609,-2.9609,-2.9609,-2.9609,-2.9609,-2.9609,-2.9609,-2.9609,-2.9609,-2.9609,-2.9609,-2.9805,-3.0234,-3.0254,-3.0469,-3.0898,-3.0898,-3.0898,-3.0898,-3.0898,-3.0898,-3.0898,-3.0898,-3.0898,-3.0898,-3.0898,-3.0898,-3.0898,-3.0898,-3.0898,-3.0898,-3.0898,-3.0898,-3.0898,-3.0898,-3.0898,-3.0898,0.0,-1.593,-1.7361,-1.8061,-1.9211,-2.0582,-2.2117,-2.2483,-2.2642,-2.2865,-2.388,-2.4317,-2.3605,-2.4009,-2.3894,0.0,-2.1385,-2.0004,-1.8757,-1.7468,-1.6484,-1.5965,-1.5462,-1.5673,-1.6718,-1.5734,-1.5538,-1.6253,-1.5538,-1.5192,-1.5192,-1.5192,-1.6003,-1.7449,0.0,0.0,0.0,0.0,0.0,-2.2331,0.0,-2.764,-2.7838,-2.9534,-3.0163,-3.0173,-3.0346,-3.0404,-3.0192,-2.8832,-2.8813,-2.8967,-2.6731,-2.7005,0.0,0.0,0.0,-2.6544,0.0,0.0,0.0,0.0,0.0,-2.446,0.0,0.0,0.0,-2.4727,-2.3915,0.0,0.0,0.0,0.0,0.0,0.0,0.0,0.0,-2.6365,0.0,-2.7988,-2.8183,-2.8301,-2.8301,-2.8144,-2.8125,-2.8281,-2.8144,-2.8125,-2.8281,-2.8301,-2.8613,-2.9336,-2.9355,-2.9766,-3.0644,-3.0644,-3.0723,-3.0898,-3.0898,-3.0898,-3.0898,-3.0898,-3.0898,-3.0898,-3.0898,-3.0898,-3.0898,-3.0898,-3.0898,-3.0898,-3.0898,-3.0898,-3.0898,-3.0898,-3.0898,-3.0898,-1.4682,-1.5808,-1.7019,-1.7298,-1.92,-2.1127,-2.2367,-2.2528,-2.2844,-2.3804,-2.5327,-2.6274,-2.6178,-2.5577,0.0,0.0,-2.3601,-2.162,-2.2182,-1.9296,-1.7853,-1.8549,-1.6407,-1.5945,-1.7526,-1.6003,-1.525,-1.5346,-1.525,-1.5192,-1.5192,-1.5192,-1.5712,-1.666,-1.7295,0.0,0.0,0.0,-2.2124,0.0,-2.5947,-2.6755,0.0,-2.8684,-2.9289,-2.9357,-3.0115,-3.0404,-3.0365,0.0,-3.0173,-3.0077,0.0,-2.88,-2.8761,-2.7761,0.0,0.0,0.0,0.0,0.0,0.0,-2.5731,-2.5721,-2.3469,0.0,-2.3798,-2.3237,0.0,0.0,0.0,0.0,0.0,0.0,0.0,0.0,-2.2366,-2.3644,-2.5325,-2.688,-2.7791,-2.8301,-2.8301,-2.7598,-2.7461,-2.8242,-2.7578,-2.748,-2.8262,-2.8301,-2.8359,-2.8437,-2.8457,-2.8867,-2.9746,-2.9746,-3.0137,-3.0898,-3.0898,-3.0898,-3.0898,-3.0898,-3.0898,-3.0898,-3.0898,-3.0898,-3.0898,-3.0898,-3.0898,-3.0898,-3.0898,-3.0898,-3.0898,-3.0898,-3.0898,-3.0898,-1.4682,-1.6434,0.0,-1.7496,-1.9513,-2.155,-2.2556,-2.3946,-2.4863,-2.4803,-2.5851,-2.6794,-2.7294,-2.6582,0.0,0.0,0.0,-2.3447,-2.2836,-2.0985,0.0,-1.9754,-1.8257,-1.7738,-1.8434,-1.6814,-1.5945,-1.5945,-1.5442,-1.5192,-1.5192,-1.5192,-1.6442,-1.8696,-1.8526,0.0,-2.2639,0.0,-2.297,0.0,0.0,-2.5846,0.0,-2.8858,-2.9883,-2.991,-3.0269,-3.0404,-3.0327,-2.9813,-2.9987,0.0,0.0,0.0,0.0,-2.8838,0.0,0.0,0.0,0.0,0.0,0.0,0.0,0.0,-2.462,-2.4171,-2.4131,0.0,0.0,0.0,0.0,0.0,0.0,0.0,-2.2972,0.0,0.0,0.0,-2.326,0.0,0.0,0.0,-2.597,-2.5702,-2.5859,-2.6738,-2.5977,-2.5879,-2.6738,-2.6797,-2.7012,-2.7539,-2.7559,-2.8203,-2.959,-2.9609,-3.0039,-3.0898,-3.0898,-3.0898,-3.0898,-3.0898,-3.0898,-3.0898,-3.0898,-3.0898,-3.0898,-3.0898,-3.0898,-3.0898,-3.0898,-3.0898,-3.0898,-3.0898,-3.0898,-3.0898,-1.5346,0.0,0.0,-1.7572,-1.9607,-2.1703,-2.2887,-2.4884,-2.6096,-2.5712,-2.6428,-2.7371,-2.8467,-2.8025,0.0,0.0,-2.7467,-2.5832,-2.4606,-2.3062,-2.2043,-2.1692,-2.0177,-1.945,-1.9684,-1.7815,-1.6718,-1.6506,-1.5635,-1.5327,-1.5558,-1.5558,-1.7135,-1.9942,-1.9758,-2.1643,-2.4909,0.0,-2.4259,-2.5491,-2.587,-2.6288,-2.6942,-2.9192,-3.0192,-3.0423,-3.0673,-3.075,-3.0692,-3.0275,-3.0564,-3.0962,-3.0333,-3.0429,-3.0635,0.0,0.0,0.0,-2.8736,0.0,0.0,0.0,-2.6967,-2.6678,-2.5558,-2.5024,-2.4875,0.0,0.0,0.0,0.0,0.0,0.0,0.0,0.0,-2.2276,0.0,-2.0891,0.0,0.0,0.0,0.0,0.0,-2.3823,-2.4159,-2.5254,-2.4531,-2.4531,-2.5644,-2.5703,-2.5996,-2.6621,-2.6641,-2.748,-2.9238,-2.9238,-2.9805,-3.0898,-3.0898,-3.0898,-3.0898,-3.0898,-3.0898,-3.0898,-3.0898,-3.0898,-3.0898,-3.0898,-3.0898,-3.0898,-3.0898,-3.0898,-3.0898,-3.0898,-3.0898,-3.0898,-1.7014,-1.6996,0.0,0.0,-1.9219,-2.1495,-2.3471,-2.467,-2.5635,-2.6447,-2.7313,-2.8486,-3.0135,-3.0288,-3.0942,0.0,-3.0435,-2.8953,-2.8896,-2.5837,-2.4356,-2.5115,-2.2,-2.0615,-2.1408,-1.895,-1.7276,-1.6506,-1.5635,-1.5635,-1.6465,-1.6465,-1.7385,0.0,-2.0712,-2.2432,-2.4187,-2.4909,-2.6659,-2.8876,-2.8126,-2.8794,-3.0154,0.0,-2.9679,-3.0519,-3.1371,-3.166,-3.1775,-3.2526,-3.2795,-3.2814,-3.2795,-3.2256,-3.166,0.0,0.0,0.0,-3.0327,-3.0327,-2.9923,-2.8275,-2.7857,-2.7409,-2.5692,-2.5923,-2.6294,-2.5462,-2.5923,0.0,0.0,0.0,0.0,0.0,0.0,0.0,0.0,0.0,0.0,0.0,0.0,0.0,0.0,-2.2385,-2.2589,0.0,-2.3633,-2.3887,-2.5605,-2.5703,-2.5703,-2.5742,-2.5742,-2.6582,-2.832,-2.834,-2.9199,-3.0898,-3.0898,-3.0898,-3.0898,-3.0898,-3.0898,-3.0898,-3.0898,-3.0898,-3.0898,-3.0898,-3.0898,-3.0898,-3.0898,-3.0898,-3.0898,-3.0898,-3.0898,-3.0898,0.0,0.0,0.0,0.0,0.0,-2.1589,-2.3515,-2.5027,-2.632,-2.7322,-2.8184,-2.9544,-3.1814,-3.1583,-3.1948,-3.3603,-3.1968,-3.0814,-3.0814,-2.8184,-2.6972,-2.7775,-2.4606,-2.2932,-2.3201,-2.1258,-1.9542,-1.815,-1.785,-1.7564,-1.7295,0.0,0.0,0.0,0.0,-2.3081,0.0,0.0,0.0,0.0,0.0,-3.0564,-3.1968,-3.1141,-3.1006,-3.1365,-3.2199,-3.2487,-3.2545,-3.2814,-3.2891,-3.2891,-3.2891,-3.2718,-3.2391,-3.1852,-3.1872,-3.1948,-3.1404,-3.166,-3.166,-2.9962,-2.9121,-2.8261,-2.6544,-2.639,-2.6346,-2.5481,-2.5981,-2.6327,0.0,0.0,0.0,0.0,0.0,0.0,0.0,0.0,0.0,0.0,0.0,0.0,0.0,0.0,0.0,-2.3387,-2.3208,-2.3781,-2.5536,-2.5634,-2.5659,-2.5703,-2.5703,-2.6269,-2.7422,-2.7441,-2.8301,-3.0039,-3.0039,-3.0332,-3.0898,-3.0898,-3.0898,-3.0898,-3.0898,-3.0898,-3.0898,-3.0898,-3.0898,-3.0898,-3.0898,-3.0898,-3.0898,-3.0898,-3.0898,-3.0898,-1.9344,0.0,0.0,0.0,-2.0367,-2.2606,-2.4107,-2.6272,-2.8114,-2.911,-3.0223,-3.1781,-3.4007,-3.3795,-3.4045,-3.543,-3.4276,-3.3237,-3.2622,-3.0756,-2.964,-2.9563,-2.7203,-2.5741,-2.5452,-2.3451,-2.1581,-1.9881,-1.96,-1.9027,-1.8164,0.0,0.0,0.0,0.0,-2.3524,-2.6173,-2.6794,-2.8217,0.0,0.0,-3.1948,0.0,-3.266,-3.2391,-3.2237,-3.3064,-3.3353,-3.341,-3.3718,-3.3814,-3.3814,-3.3814,-3.3603,-3.3256,-3.2737,-3.2737,-3.2795,-3.2275,-3.2506,-3.2564,-3.1192,-3.0448,-2.9506,-2.7525,-2.7274,-2.7159,-2.6,-2.6212,-2.6524,0.0,0.0,0.0,0.0,0.0,0.0,0.0,-1.7869,0.0,0.0,0.0,0.0,0.0,0.0,-2.093,-2.2427,-2.2249,0.0,0.0,-2.5439,-2.5629,-2.5661,-2.5661,-2.6092,-2.6992,-2.6971,-2.785,-2.9609,-2.9609,-3.0059,-3.0898,-3.0898,-3.0898,-3.0898,-3.0898,-3.0898,-3.0898,-3.0898,-3.0898,-3.0898,-3.0898,-3.0898,-3.0898,-3.0898,-3.0898,-3.0898,-2.1702,-2.1225,-2.0562,-2.0126,-2.2255,-2.4341,-2.5264,-2.8189,-3.0661,-3.1635,-3.3218,-3.4891,-3.6577,-3.675,-3.7103,-3.793,-3.7238,-3.6084,-3.4494,-3.3487,-3.2275,-3.0712,-2.9698,-2.8838,-2.8107,-2.5587,-2.3451,-2.1754,-2.0865,-1.9985,-1.9146,0.0,0.0,0.0,-2.2043,0.0,-2.5404,-2.7159,-2.939,-3.1833,-3.2699,-3.3026,-3.3122,-3.3955,-3.3757,-3.3141,-3.3975,-3.4263,-3.4398,-3.5212,-3.55,-3.55,-3.55,-3.493,-3.4263,-3.4205,-3.3641,-3.3026,-3.2987,-3.3006,-3.2833,-3.2025,-3.1795,-3.1102,-2.864,-2.8684,-2.8761,-2.7063,-2.6755,-2.7005,-2.7717,0.0,0.0,0.0,0.0,0.0,0.0,0.0,0.0,0.0,0.0,0.0,0.0,0.0,-1.8862,-2.1323,-2.0805,0.0,0.0,-2.5033,-2.552,-2.5599,-2.5599,-2.6022,-2.6914,-2.6863,-2.7742,-2.9531,-2.9531,-3.0,-3.0898,-3.0898,-3.0898,-3.0898,-3.0898,-3.0898,-3.0898,-3.0898,-3.0898,-3.0898,-3.0898,-3.0898,-3.0898,-3.0898,-3.0898,-3.0898,-2.2639,-2.3058,-2.3419,-2.3429,-2.3352,-2.4056,-2.6358,-2.8058,-2.9913,-3.2289,-3.4083,-3.5795,-3.7488,-3.768,-3.7757,-3.7988,-3.7796,-3.7488,-3.7046,-3.5045,-3.3968,-3.4173,-3.1538,-3.0275,-3.0717,-2.8242,-2.6395,-2.5293,-2.3197,-2.1716,-2.085,0.0,0.0,0.0,0.0,0.0,-2.5404,-2.7159,-2.9717,-3.2718,-3.4231,-3.4827,-3.4865,-3.5077,-3.5019,-3.4865,-3.5096,-3.5173,-3.5192,-3.5423,-3.55,-3.55,-3.55,-3.5346,-3.5045,-3.4398,-3.4507,-3.4692,-3.4045,-3.4334,-3.4635,-3.3776,-3.3064,-3.2256,-3.1006,-3.0871,-3.0544,-2.8819,-2.8967,-2.8904,-2.7236,-2.6563,0.0,0.0,0.0,0.0,0.0,0.0,0.0,-1.9577,0.0,0.0,0.0,0.0,-1.8696,-1.8721,-1.9719,0.0,-2.4093,-2.3825,-2.419,-2.5474,-2.5533,-2.5638,-2.5886,-2.5874,-2.6749,-2.8493,-2.8493,-2.9276,-3.0746,-3.0746,-3.0814,-3.0898,-3.0898,-3.0898,-3.0898,-3.0898,-3.0898,-3.0898,-3.0898,-3.0898,-3.0898,-3.0898,-3.0898,-3.0898,-2.3914,-2.504,-2.595,-2.6145,-2.6162,-2.6791,-2.8701,-2.9848,-3.1348,-3.3718,-3.5519,-3.6949,-3.7892,-3.8642,-3.9084,-3.9084,-3.9084,-3.8777,-3.8046,-3.7007,-3.6315,-3.6038,-3.3846,-3.2865,-3.3346,-3.0487,0.0,-2.7178,-2.4966,-2.3062,-2.1485,0.0,0.0,0.0,0.0,-2.3548,-2.4986,-2.8198,-3.0852,-3.3045,-3.4808,-3.55,0.0,-3.55,-3.55,-3.55,-3.55,-3.55,-3.55,-3.55,-3.55,-3.55,-3.55,-3.55,-3.5404,-3.4911,-3.5122,-3.5385,-3.4911,-3.5141,-3.5385,-3.4891,-3.441,-3.3718,-3.2506,-3.1948,-3.1314,-2.9948,-2.9486,-2.9102,-2.8385,-2.7346,-2.6197,0.0,0.0,0.0,0.0,0.0,0.0,0.0,-1.9638,0.0,0.0,-1.7353,-1.7853,-1.7718,-1.86,0.0,0.0,-2.3111,-2.3912,-2.4905,-2.5268,-2.5477,-2.5491,-2.5463,-2.6354,-2.8093,-2.8093,-2.8992,-3.0663,-3.0663,-3.0698,-3.0778,-3.0778,-3.0786,-3.0815,-3.0815,-3.0857,-3.0898,-3.0898,-3.0898,-3.0898,-3.0898,-3.0898,-3.0898,-2.5283,-2.6862,-2.7985,-2.8049,-2.9366,-3.0709,-3.156,-3.2561,-3.382,-3.5491,-3.7168,-3.8212,-3.8212,-3.9549,-4.0457,-4.0457,-4.0481,-3.9881,-3.8411,-3.8931,-3.8623,-3.7123,-3.625,-3.5769,-3.5654,-3.2423,-2.9904,-2.8236,-2.6159,-2.3942,-2.1677,0.0,0.0,0.0,0.0,0.0,0.0,-2.9679,-3.216,-3.3045,-3.4808,-3.55,-3.55,-3.55,-3.55,-3.55,-3.55,-3.55,-3.55,-3.55,-3.55,-3.55,-3.55,-3.55,-3.55,-3.55,-3.55,-3.55,-3.55,-3.55,-3.55,-3.55,-3.55,-3.5096,-3.3583,-3.2602,-3.1775,-3.0904,-2.9486,-2.8775,-3.0,-2.8231,0.0,0.0,0.0,0.0,0.0,0.0,0.0,0.0,0.0,0.0,0.0,0.0,0.0,0.0,0.0,0.0,0.0,0.0,-2.3888,-2.433,-2.5016,-2.5404,-2.5463,-2.5527,-2.64,-2.8081,-2.8178,-2.9059,-3.0587,-3.0587,-3.0594,-3.0603,-3.0603,-3.0621,-3.0687,-3.0693,-3.0771,-3.0898,-3.0879,-3.0879,-3.0898,-3.0898,-3.0898,-3.0898,-2.6337,-2.7684,0.0,0.0,-2.9891,-3.2035,-3.3548,-3.4513,-3.5464,-3.6663,-3.8285,-3.9321,-3.9321,-3.9832,-4.0167,-4.0167,-4.0372,-4.0381,-4.0073,-3.9573,-3.9169,-3.8854,-3.8027,-3.7238,-3.65,-3.3833,-3.1641,-2.9962,-2.6159,-2.3701,-2.2547,0.0,0.0,0.0,0.0,0.0,-2.7434,-3.0429,0.0,-3.3045,-3.4808,-3.55,-3.55,-3.55,-3.55,-3.55,-3.55,-3.55,-3.55,-3.55,-3.55,-3.55,-3.55,-3.55,-3.55,-3.55,-3.55,-3.55,-3.55,-3.55,-3.55,-3.55,-3.55,-3.5423,-3.5115,-3.4372,-3.3506,-3.2641,-3.1698,-3.0679,-2.9544,-2.7832,-2.6274,0.0,0.0,0.0,0.0,0.0,0.0,0.0,0.0,-2.0292,0.0,0.0,0.0,0.0,0.0,0.0,-2.1139,0.0,-2.2245,-2.5014,-2.5245,-2.5312,-2.5335,-2.6049,-2.6916,-2.7943,-2.8618,-2.9487,-3.0528,-3.0528,-3.0556,-3.0603,-3.0603,-3.0611,-3.0628,-3.068,-3.0771,-3.0898,-3.0771,-3.0794,-3.0898,-3.0898,-3.0898,-3.0898,-2.8466,0.0,0.0,0.0,-3.2138,-3.4061,-3.5845,-3.706,-3.7628,-3.7156,-3.7923,-3.8502,-3.8502,-3.947,-4.0158,-4.0304,-4.0304,-4.0356,-4.0489,-4.015,-3.9919,-3.9919,-3.913,-3.8469,-3.8065,-3.5545,-3.3212,-3.1077,-2.7717,-2.4952,0.0,0.0,0.0,0.0,0.0,-2.5736,0.0,0.0,-3.2429,-3.368,-3.4981,-3.55,-3.55,-3.55,-3.55,-3.55,-3.55,-3.55,-3.55,-3.55,-3.55,-3.55,-3.55,-3.55,-3.55,-3.55,-3.55,-3.55,-3.55,-3.55,-3.55,-3.55,-3.55,-3.55,-3.55,-3.4487,-3.341,-3.2987,-3.191,-3.0641,-2.9338,-2.8107,-2.6986,-2.6115,-2.5596,0.0,0.0,0.0,0.0,0.0,0.0,0.0,0.0,0.0,0.0,0.0,0.0,-1.7584,-2.0065,-2.0658,-2.2081,-2.4601,-2.5077,-2.5308,-2.5308,-2.6154,-2.7044,-2.7915,-2.8723,-2.9564,-3.0456,-3.0456,-3.0472,-3.0509,-3.0509,-3.0524,-3.0544,-3.0628,-3.0691,-3.0747,-3.0665,-3.0691,-3.0749,-3.0749,-3.0749,-3.0755,-3.0925,-3.1604,0.0,-3.3525,-3.4855,-3.6282,-3.7776,-3.9209,-3.9652,-3.8233,-3.8231,-3.841,-3.847,-3.9604,-4.0434,-4.0639,-4.0363,-4.0241,-4.0397,-4.0473,-4.0473,-4.0425,-3.9858,-3.9477,-3.9304,-3.6969,-3.45,-3.1948,-2.9236,-2.6332,-2.3312,0.0,0.0,0.0,0.0,0.0,-2.9486,-3.1218,-3.2814,-3.4282,-3.5154,-3.55,-3.55,-3.55,-3.55,-3.55,-3.55,-3.55,-3.55,-3.55,-3.55,-3.55,-3.55,-3.55,-3.55,-3.55,-3.55,-3.55,-3.55,-3.55,-3.55,-3.55,-3.55,-3.55,-3.55,-3.4154,-3.2891,-3.2891,-3.1577,-3.0135,-2.9261,-2.8588,-2.7813,-2.6774,-2.6019,0.0,0.0,0.0,0.0,0.0,0.0,0.0,-1.9238,0.0,0.0,0.0,0.0,-1.7314,-1.9184,-2.0354,-2.1932,-2.4033,-2.4716,-2.5038,-2.5038,-2.6255,-2.7217,-2.7915,-2.8896,-2.9737,-3.0404,-3.0404,-3.0404,-3.0404,-3.0404,-3.0436,-3.0507,-3.0545,-3.0571,-3.0603,-3.0584,-3.0587,-3.0603,-3.0603,-3.0603,-3.062,-3.333,0.0,-3.4945,-3.585,-3.729,-3.8414,-3.8591,-3.9971,-4.1033,-4.1162,-4.1189,-4.1319,-4.1647,-4.1377,-4.1207,-4.1217,-4.076,-4.0372,-4.0148,-4.0364,-4.0389,-4.0148,-4.0296,-4.0054,-3.9323,-3.7526,-3.5334,-3.2795,-2.9506,-2.6928,-2.5038,-2.3428,-2.3485,-2.5019,-2.6851,-2.864,-3.0385,-3.2064,-3.3333,-3.4282,-3.5154,-3.55,-3.55,-3.55,-3.55,-3.55,-3.55,-3.55,-3.55,-3.55,-3.55,-3.55,-3.55,-3.55,-3.55,-3.55,-3.55,-3.55,-3.55,-3.55,-3.55,-3.55,-3.55,-3.55,-3.55,-3.4154,-3.2891,-3.2891,-3.1577,-3.0135,-2.9261,-2.905,-2.8453,-2.6851,-2.6524,-2.6173,0.0,0.0,-2.4558,-2.2874,0.0,0.0,0.0,-1.7,0.0,0.0,-1.6445,-1.758,-2.0058,-1.9584,-2.0723,-2.3995,-2.4168,-2.4206,-2.4206,-2.6587,-2.7818,-2.7915,-2.9525,-3.0327,-3.0404,-3.0404,-3.0404,-3.0404,-3.0404,-3.0436,-3.0494,-3.0441,-3.0495,-3.0597,-3.0533,-3.0556,-3.0603,-3.0603,-3.0603,-3.0606,-3.6688,-3.6615,-3.6909,-3.823,-3.8597,-3.9203,-4.0634,-4.1423,-4.212,-4.2928,-4.2191,-4.1651,-4.1785,-4.1788,-4.1835,-4.2006,-4.1868,-4.1578,-4.1163,-4.1229,-4.1006,-4.0366,-4.0449,-4.0342,-4.0035,-3.8854,-3.7007,-3.4462,-3.2064,-2.9506,-2.6832,-2.564,-2.5717,-2.6967,-2.9198,-3.1102,-3.2756,-3.3949,-3.5238,-3.6507,-3.6853,-3.7007,-3.7007,-3.7007,-3.7007,-3.7007,-3.7007,-3.7007,-3.693,-3.6404,-3.5904,-3.55,-3.55,-3.55,-3.55,-3.55,-3.55,-3.55,-3.55,-3.55,-3.55,-3.55,-3.55,-3.55,-3.55,-3.4154,-3.2891,-3.2891,-3.1577,-3.0288,-2.9948,-2.9448,-2.8723,-2.7563,-2.6948,-2.6288,0.0,0.0,0.0,-2.3721,0.0,0.0,0.0,0.0,0.0,0.0,0.0,-1.6285,-1.9362,-1.9696,-2.0873,-2.324,-2.4293,-2.4586,-2.411,-2.6626,-2.7895,-2.7915,-2.9596,-3.0404,-3.0404,-3.0404,-3.0404,-3.0404,-3.0404,-3.0419,-3.0436,-3.0408,-3.0433,-3.0472,-3.0456,-3.0452,-3.0477,-3.0477,-3.0477,-3.0477,-3.9313,-3.8946,-3.9056,-4.0687,-4.0487,-4.0689,-4.2396,-4.2653,-4.2936,-4.3762,-4.2851,-4.2237,-4.2464,-4.2464,-4.2569,-4.2862,-4.2694,-4.2422,-4.2052,-4.2121,-4.1745,-4.0784,-4.0745,-4.0663,-4.0496,-3.9626,-3.8197,-3.6231,-3.4507,-3.2314,-2.9723,-2.8852,-2.8929,-2.9838,-3.191,-3.3603,-3.4988,-3.5872,-3.693,-3.8007,-3.8007,-3.8007,-3.8007,-3.8007,-3.8007,-3.8007,-3.8007,-3.8007,-3.7911,-3.7296,-3.6692,-3.6154,-3.5654,-3.55,-3.55,-3.55,-3.55,-3.55,-3.55,-3.55,-3.55,-3.55,-3.55,-3.55,-3.55,-3.4154,-3.2756,-3.2275,-3.1212,-3.0404,-3.0404,-2.9698,-2.8838,-2.803,-2.7178,-2.6288,-2.5423,-2.5308,0.0,0.0,-2.3105,-2.2177,-2.1562,-1.9758,0.0,0.0,0.0,-1.6785,-1.9942,-1.9985,-2.0927,-2.3105,-2.4332,-2.4793,-2.4452,-2.676,-2.803,-2.828,-2.9712,-3.0404,-3.0404,-3.0404,-3.0404,-3.0404,-3.0404,-3.0404,-3.0404,-3.0404,-3.0404,-3.0404,-3.0404,-3.0404,-3.0404,-3.0404,-3.0404,-3.0404,-4.0747,-4.1058,-4.157,-4.3167,-4.346,-4.346,-4.3478,-4.3496,-4.3496,-4.3496,-4.3496,-4.3738,-4.4476,-4.3793,-4.3427,-4.3757,-4.2997,-4.2522,-4.2591,-4.2887,-4.255,-4.1351,-4.1303,-4.1035,-4.0508,-3.9381,-3.8531,-3.7969,-3.6288,-3.5007,-3.4109,-3.3237,-3.3295,-3.4167,-3.5064,-3.5904,-3.6731,-3.7603,-3.7988,-3.8007,-3.8007,-3.8007,-3.8007,-3.8007,-3.8007,-3.8007,-3.8007,-3.8007,-3.8007,-3.7988,-3.7988,-3.768,-3.6019,-3.55,-3.55,-3.55,-3.55,-3.55,-3.55,-3.55,-3.55,-3.55,-3.55,-3.55,-3.55,-3.4154,-3.2429,-3.0769,-3.0404,-3.0404,-3.0404,-2.9698,-2.8838,-2.803,-2.7178,-2.6288,-2.5423,-2.5308,0.0,-2.4206,-2.2566,-2.1504,-2.1504,-1.9196,0.0,0.0,0.0,-2.0058,-2.2624,-2.0377,-2.057,-2.3975,-2.411,-2.449,-2.5288,-2.7024,-2.8299,-2.9107,-2.9987,-3.0404,-3.0404,-3.0404,-3.0404,-3.0404,-3.0404,-3.0404,-3.0404,-3.0404,-3.0404,-3.0404,-3.0404,-3.0404,-3.0404,-3.0404,-3.0404,-3.0404,-4.2635,-4.2745,-4.2892,-4.3423,-4.3515,-4.3515,-4.3515,-4.3515,-4.3515,-4.3515,-4.3515,-4.358,-4.3823,-4.3808,-4.3825,-4.3919,-4.3932,-4.3786,-4.3435,-4.3529,-4.3254,-4.2551,-4.2522,-4.2324,-4.1877,-4.1194,-4.0351,-3.9364,-3.7905,-3.6488,-3.5084,-3.5372,-3.5641,-3.5949,-3.6815,-3.768,-3.8488,-3.8757,-3.9207,-3.9708,-3.9708,-3.9708,-3.9708,-3.9708,-3.9708,-3.9708,-3.9708,-3.9708,-3.9631,-3.9073,-3.8892,-3.8681,-3.7565,-3.7199,-3.7084,-3.6481,-3.6327,-3.6192,-3.5654,-3.55,-3.55,-3.55,-3.55,-3.55,-3.55,-3.4154,-3.2583,-3.1506,-3.0808,-3.0404,-3.0404,-2.9698,-2.8838,-2.803,-2.7178,-2.6288,-2.5423,-2.5308,-2.5192,-2.4947,-2.3947,-2.3278,-2.3278,-2.1466,0.0,0.0,0.0,-1.9842,-2.1812,-2.172,-2.2085,-2.3182,-2.4894,-2.564,-2.5308,-2.7563,-2.8857,-2.9107,-2.9981,-3.0404,-3.0404,-3.0404,-3.0404,-3.0404,-3.0404,-3.0404,-3.0404,-3.0404,-3.0404,-3.0404,-3.0404,-3.0404,-3.0404,-3.0404,-3.0404,-3.0404,-4.3515,-4.3515,-4.3515,-4.3515,-4.3515,-4.3515,-4.3515,-4.3515,-4.3515,-4.3515,-4.3515,-4.3515,-4.3515,-4.3695,-4.3865,-4.4001,-4.4219,-4.4301,-4.4113,-4.4219,-4.4015,-4.3378,-4.3386,-4.3186,-4.2738,-4.2193,-4.1599,-4.0938,-3.9792,-3.8588,-3.7392,-3.7892,-3.8123,-3.8142,-3.87,-3.9246,-3.9746,-3.9746,-4.0035,-4.0496,-4.0496,-4.0496,-4.0496,-4.0496,-4.0496,-4.0496,-4.0496,-4.0496,-4.0419,-3.9919,-3.9746,-3.9669,-3.9104,-3.8931,-3.87,-3.7526,-3.6962,-3.6596,-3.6096,-3.5731,-3.55,-3.55,-3.55,-3.5404,-3.5084,-3.393,-3.2679,-3.1872,-3.1,-3.0404,-3.0404,-2.9698,-2.8838,-2.803,-2.7178,-2.6288,-2.5423,-2.5308,-2.5192,0.0,-2.4413,-2.3975,-2.3644,-2.2913,-2.2701,-2.324,0.0,-2.1823,-2.2865,-2.2543,-2.2889,-2.4197,-2.5774,-2.664,-2.6736,-2.8319,-2.9261,-2.9583,-3.0135,-3.0404,-3.0404,-3.0404,-3.0404,-3.0404,-3.0404,-3.0404,-3.0404,-3.0404,-3.0404,-3.0404,-3.0404,-3.0404,-3.0404,-3.0404,-3.0404,-3.0404,-4.3515,-4.3515,-4.3515,-4.3515,-4.3515,-4.3515,-4.3515,-4.3515,-4.3515,-4.3515,-4.3515,-4.3515,-4.3515,-4.3515,-4.3631,-4.394,-4.3971,-4.4132,-4.4527,-4.4861,-4.469,-4.3912,-4.3954,-4.3752,-4.3252,-4.2588,-4.2337,-4.2502,-4.1727,-4.1103,-4.0646,-4.0646,-4.0654,-4.0689,-4.0612,-4.0631,-4.0689,-4.0612,-4.0631,-4.0689,-4.0689,-4.065,-4.0593,-4.0593,-4.0554,-4.0496,-4.0496,-4.0496,-4.0496,-4.0496,-4.0496,-4.0496,-4.0496,-4.0489,-4.0165,-3.8565,-3.7526,-3.6846,-3.6731,-3.6154,-3.5577,-3.5519,-3.55,-3.5288,-3.4468,-3.3622,-3.2756,-3.1936,-3.1065,-3.0444,-3.0386,-2.9662,-2.8827,-2.8025,-2.7178,-2.6288,-2.5423,-2.5308,-2.5019,-2.4259,-2.4187,-2.3855,-2.3047,-2.3701,-2.4187,-2.4187,-2.4832,-2.525,-2.5308,-2.3058,-2.3254,-2.6505,-2.6717,-2.7525,-2.9088,-2.9165,-2.9602,-3.0404,-3.0404,-3.0404,-3.0404,-3.0404,-3.0404,-3.0404,-3.0404,-3.0404,-3.0404,-3.0404,-3.0404,-3.0404,-3.0404,-3.0404,-3.0404,-3.0404,-3.0404,-3.0404,-4.3515,-4.3515,-4.3515,-4.3515,-4.3515,-4.3515,-4.3515,-4.3515,-4.3515,-4.3515,-4.3515,-4.3515,-4.3515,-4.3515,-4.3531,-4.3614,-4.3631,-4.3775,-4.4117,-4.4219,-4.4427,-4.4789,-4.4821,-4.4758,-4.4638,-4.4068,-4.335,-4.2502,-4.2052,-4.1897,-4.203,-4.203,-4.22,-4.245,-4.1797,-4.1854,-4.2431,-4.1777,-4.1873,-4.247,-4.247,-4.2085,-4.1489,-4.1489,-4.1085,-4.0496,-4.0496,-4.0496,-4.0496,-4.0496,-4.0496,-4.0496,-4.0496,-4.0356,-4.004,-3.9231,-3.8854,-3.8392,-3.7058,-3.6558,-3.6269,-3.5654,-3.55,-3.5442,-3.5231,-3.4526,-3.3608,-3.2594,-3.1697,-3.088,-3.0223,-2.9428,-2.8651,-2.8008,-2.7178,-2.6288,-2.5423,-2.5308,-2.5231,-2.5038,-2.5019,-2.4923,-2.4731,-2.4885,-2.5019,-2.5019,-2.462,-2.4639,-2.5269,-2.4731,-2.5077,-2.6544,-2.7832,-2.8703,-2.9107,-2.9756,-3.0192,-3.0404,-3.0404,-3.0404,-3.0404,-3.0404,-3.0404,-3.0404,-3.0404,-3.0404,-3.0404,-3.0404,-3.0404,-3.0404,-3.0404,-3.0404,-3.0404,-3.0404,-3.0404,-3.0404,-4.3515,-4.3515,-4.3515,-4.3515,-4.3515,-4.3515,-4.3515,-4.3515,-4.3515,-4.3515,-4.3515,-4.3515,-4.3515,-4.3515,-4.3515,-4.3515,-4.3515,-4.358,-4.3756,-4.3909,-4.419,-4.4587,-4.4769,-4.4872,-4.4872,-4.4595,-4.3928,-4.2876,-4.2686,-4.2478,-4.2276,-4.2276,-4.2403,-4.2571,-4.2113,-4.2151,-4.2571,-4.2094,-4.224,-4.2813,-4.2669,-4.2517,-4.2376,-4.2188,-4.1935,-4.1643,-4.1239,-4.1085,-4.1027,-4.0631,-4.0496,-4.0496,-4.0496,-4.0321,-4.0053,-3.9742,-3.9285,-3.8632,-3.7688,-3.6984,-3.6343,-3.5671,-3.55,-3.55,-3.55,-3.4834,-3.4005,-3.3291,-3.2157,-3.1116,-3.0522,-2.9452,-2.8441,-2.7694,-2.6955,-2.6159,-2.5297,-2.5229,-2.5308,-2.5308,-2.5654,-2.5885,-2.5885,-2.625,-2.6327,-2.5923,-2.5851,-2.5856,-2.5885,-2.6621,-2.7082,-2.7198,-2.8434,-2.93,-2.9698,-3.0154,-3.0404,-3.0404,-3.0404,-3.0404,-3.0404,-3.0404,-3.0404,-3.0404,-3.0404,-3.0404,-3.0404,-3.0404,-3.0404,-3.0404,-3.0404,-3.0404,-3.0404,-3.0404,-3.0404,-3.0404,-4.3515,-4.3515,-4.3515,-4.3515,-4.3515,-4.3515,-4.3515,-4.3515,-4.3515,-4.3515,-4.3515,-4.3515,-4.3515,-4.3515,-4.3515,-4.3515,-4.3515,-4.3515,-4.3515,-4.3775,-4.394,-4.4001,-4.4337,-4.454,-4.4593,-4.454,-4.4162,-4.3401,-4.3401,-4.303,-4.2289,-4.2354,-4.2398,-4.2398,-4.2247,-4.2266,-4.2379,-4.2247,-4.2437,-4.2778,-4.2502,-4.2685,-4.3089,-4.2742,-4.2746,-4.2839,-4.211,-4.1833,-4.1707,-4.0852,-4.0545,-4.0526,-4.04,-4.0176,-3.9943,-3.9943,-3.9199,-3.8355,-3.8316,-3.7284,-3.6137,-3.5668,-3.5472,-3.5383,-3.5432,-3.487,-3.4225,-3.3827,-3.2605,-3.1466,-3.0941,-2.9736,-2.847,-2.7425,-2.6795,-2.6104,-2.5187,-2.5278,-2.5456,-2.5495,-2.6269,-2.6783,-2.6738,-2.7415,-2.7588,-2.6987,-2.7492,-2.7599,-2.7005,-2.8338,-2.88,-2.8107,-2.8876,-2.964,-3.0385,-3.0404,-3.0404,-3.0404,-3.0404,-3.0404,-3.0404,-3.0404,-3.0404,-3.0404,-3.0404,-3.0404,-3.0404,-3.0404,-3.0404,-3.0404,-3.0404,-3.0404,-3.0404,-3.0404,-3.0404,-3.0404,-4.3515,-4.3515,-4.3515,-4.3515,-4.3515,-4.3515,-4.3515,-4.3515,-4.3515,-4.3515,-4.3515,-4.3515,-4.3515,-4.3515,-4.3515,-4.3515,-4.3515,-4.3515,-4.3515,-4.3548,-4.371,-4.3986,-4.4058,-4.4247,-4.4593,-4.4261,-4.4031,-4.3886,-4.3886,-4.3811,-4.3699,-4.4038,-4.4202,-4.4165,-4.3422,-4.351,-4.4146,-4.3403,-4.3555,-4.426,-4.4228,-4.3819,-4.3269,-4.3202,-4.2767,-4.2148,-4.2016,-4.1978,-4.1846,-4.1025,-4.0742,-4.064,-3.9943,-3.951,-3.9269,-3.9269,-3.8948,-3.8594,-3.8368,-3.7165,-3.5934,-3.5862,-3.5333,-3.487,-3.5113,-3.5059,-3.4677,-3.3667,-3.3252,-3.2591,-3.0951,-3.0433,-2.9645,-2.7758,-2.724,-2.6643,-2.5414,-2.5767,-2.6215,-2.6374,-2.7178,-2.761,-2.7383,-2.7478,-2.7809,-2.8407,-2.7904,-2.7899,-2.8673,-2.8953,-2.905,-2.8915,-2.9756,-3.0269,-3.0404,-3.0404,-3.0404,-3.0404,-3.0404,-3.0404,-3.0404,-3.0404,-3.0404,-3.0404,-3.0404,-3.0404,-3.0404,-3.0404,-3.0404,-3.0404,-3.0404,-3.0404,-3.0404,-3.0404,-3.0404,-3.0404,-4.3515,-4.3515,-4.3515,-4.3515,-4.3515,-4.3515,-4.3515,-4.3515,-4.3515,-4.3515,-4.3515,-4.3515,-4.3515,-4.3515,-4.3515,-4.3515,-4.3515,-4.3515,-4.3515,-4.3515,-4.3563,-4.3726,-4.3742,-4.3896,-4.4261,-4.4087,-4.4001,-4.4001,-4.4001,-4.3912,-4.3742,-4.3931,-4.4023,-4.4004,-4.3583,-4.362,-4.3971,-4.3583,-4.3737,-4.4247,-4.408,-4.3998,-4.3988,-4.3769,-4.3565,-4.3347,-4.2863,-4.2712,-4.258,-4.1738,-4.1456,-4.1305,-4.05,-4.0014,-3.9662,-3.9229,-3.8909,-3.8608,-3.8195,-3.7535,-3.6796,-3.6083,-3.5616,-3.5262,-3.4955,-3.487,-3.469,-3.3974,-3.3489,-3.2748,-3.1291,-3.0327,-2.9275,-2.7895,-2.6939,-2.6349,-2.6182,-2.6157,-2.6332,-2.6864,-2.7797,-2.8345,-2.8221,-2.8588,-2.8836,-2.8805,-2.8836,-2.8878,-2.8932,-2.9498,-2.9794,-2.9794,-3.0192,-3.0404,-3.0404,-3.0404,-3.0404,-3.0404,-3.0404,-3.0404,-3.0404,-3.0404,-3.0404,-3.0404,-3.0404,-3.0404,-3.0404,-3.0404,-3.0404,-3.0404,-3.0404,-3.0404,-3.0404,-3.0404,-3.0404,-3.0404,-4.3515,-4.3515,-4.3515,-4.3515,-4.3515,-4.3515,-4.3515,-4.3515,-4.3515,-4.3515,-4.3515,-4.3515,-4.3515,-4.3515,-4.3515,-4.3515,-4.3515,-4.3515,-4.3515,-4.3515,-4.3515,-4.3515,-4.3515,-4.3612,-4.3881,-4.3881,-4.3881,-4.3881,-4.3955,-4.3836,-4.3496,-4.358,-4.3563,-4.3515,-4.3515,-4.3515,-4.3515,-4.3515,-4.3646,-4.3865,-4.3614,-4.3839,-4.4308,-4.4001,-4.4076,-4.4261,-4.3577,-4.3352,-4.3207,-4.2369,-4.2074,-4.1924,-4.1113,-4.0565,-4.0094,-3.9477,-3.9003,-3.8621,-3.8197,-3.7951,-3.7517,-3.6307,-3.584,-3.5488,-3.4749,-3.4582,-3.4518,-3.4246,-3.3715,-3.2953,-3.1869,-3.0668,-2.9469,-2.8323,-2.7204,-2.6572,-2.6925,-2.6684,-2.6739,-2.7401,-2.8389,-2.9007,-2.9007,-2.957,-2.9665,-2.9064,-2.957,-2.9665,-2.9045,-2.9831,-3.0343,-3.0404,-3.0404,-3.0404,-3.0404,-3.0404,-3.0404,-3.0404,-3.0404,-3.0404,-3.0404,-3.0404,-3.0404,-3.0404,-3.0404,-3.0404,-3.0404,-3.0404,-3.0404,-3.0404,-3.0404,-3.0404,-3.0404,-3.0404,-3.0404,-3.0404,-4.3515,-4.3515,-4.3515,-4.3515,-4.3515,-4.3515,-4.3515,-4.3515,-4.3515,-4.3515,-4.3515,-4.3515,-4.3515,-4.3515,-4.3515,-4.3515,-4.3515,-4.3515,-4.3515,-4.3515,-4.3515,-4.3515,-4.3515,-4.3496,-4.3531,-4.3531,-4.3531,-4.3531,-4.3849,-4.3836,-4.3515,-4.382,-4.3804,-4.3515,-4.3515,-4.3515,-4.3515,-4.3515,-4.3513,-4.3531,-4.3496,-4.3531,-4.3582,-4.3548,-4.3565,-4.3563,-4.3508,-4.349,-4.3361,-4.2535,-4.2277,-4.213,-4.134,-4.0551,-3.9911,-3.9856,-3.9307,-3.8689,-3.8646,-3.811,-3.7334,-3.6481,-3.5657,-3.4929,-3.4357,-3.4253,-3.4223,-3.42,-3.4162,-3.3788,-3.2702,-3.2399,-3.163,-2.9538,-2.8953,-2.8395,-2.7336,-2.7613,-2.8035,-2.8286,-2.9091,-2.9636,-2.9636,-2.9693,-2.9693,-2.9636,-2.9693,-2.9693,-2.9636,-2.9897,-3.0143,-3.0398,-3.0404,-3.0404,-3.0404,-3.0404,-3.0404,-3.0404,-3.0404,-3.0404,-3.0404,-3.0404,-3.0404,-3.0404,-3.0404,-3.0404,-3.0404,-3.0404,-3.0404,-3.0404,-3.0404,-3.0404,-3.0404,-3.0404,-3.0404,-3.0404,-4.3515,-4.3515,-4.3515,-4.3515,-4.3515,-4.3515,-4.3515,-4.3515,-4.3515,-4.3515,-4.3515,-4.3515,-4.3515,-4.3515,-4.3515,-4.3515,-4.3515,-4.3515,-4.3515,-4.3515,-4.3515,-4.3515,-4.3515,-4.3515,-4.3515,-4.3515,-4.3515,-4.3515,-4.3631,-4.3612,-4.3496,-4.3629,-4.3612,-4.3515,-4.3515,-4.3515,-4.3515,-4.3515,-4.3515,-4.3515,-4.3515,-4.3515,-4.3515,-4.3515,-4.3515,-4.3515,-4.3515,-4.3515,-4.346,-4.3149,-4.3039,-4.2892,-4.2103,-4.1625,-4.1185,-4.0175,-3.9331,-3.8707,-3.8707,-3.8487,-3.8046,-3.7254,-3.6413,-3.5615,-3.4869,-3.4305,-3.3948,-3.3948,-3.3948,-3.367,-3.2774,-3.2601,-3.2162,-3.0819,-2.9699,-2.9019,-2.905,-2.8389,-2.812,-2.8703,-2.92,-2.9561,-2.9687,-2.9705,-2.9746,-2.9877,-2.9763,-2.9705,-2.9705,-2.9893,-3.0054,-3.015,-3.0311,-3.0404,-3.0404,-3.0404,-3.0404,-3.0404,-3.0404,-3.0404,-3.0404,-3.0404,-3.0404,-3.0404,-3.0404,-3.0404,-3.0404,-3.0404,-3.0404,-3.0404,-3.0404,-3.0404,-3.0404,-3.0404,-3.0404,-3.0404,-4.3515,-4.3515,-4.3515,-4.3515,-4.3515,-4.3515,-4.3515,-4.3515,-4.3515,-4.3515,-4.3515,-4.3515,-4.3515,-4.3515,-4.3515,-4.3515,-4.3515,-4.3515,-4.3515,-4.3515,-4.3515,-4.3515,-4.3515,-4.3515,-4.3515,-4.3515,-4.3515,-4.3515,-4.3515,-4.3515,-4.3515,-4.3515,-4.3515,-4.3515,-4.3515,-4.3515,-4.3515,-4.3515,-4.3515,-4.3515,-4.3515,-4.3515,-4.3515,-4.3515,-4.3515,-4.3515,-4.3515,-4.3515,-4.3515,-4.3515,-4.3515,-4.3387,-4.2837,-4.2506,-4.1974,-4.0359,-3.9515,-3.9019,-3.8781,-3.8707,-3.8505,-3.7694,-3.7088,-3.6376,-3.5261,-3.4564,-3.4119,-3.3844,-3.3807,-3.3623,-3.3091,-3.2968,-3.2706,-3.1916,-3.084,-3.0234,-3.0522,-2.9402,-2.876,-2.9317,-2.9315,-2.9363,-2.9589,-2.9607,-2.9687,-2.9893,-2.9722,-2.9607,-2.9607,-2.9748,-2.9837,-2.9908,-3.008,-3.0188,-3.0188,-3.033,-3.0404,-3.0404,-3.0404,-3.0404,-3.0404,-3.0404,-3.0404,-3.0404,-3.0404,-3.0404,-3.0404,-3.0404,-3.0404,-3.0404,-3.0404,-3.0404,-3.0404,-3.0404,-3.0404,-3.0404,-4.3515,-4.3515,-4.3515,-4.3515,-4.3515,-4.3515,-4.3515,-4.3515,-4.3515,-4.3515,-4.3515,-4.3515,-4.3515,-4.3515,-4.3515,-4.3515,-4.3515,-4.3515,-4.3515,-4.3515,-4.3515,-4.3515,-4.3515,-4.3515,-4.3515,-4.3515,-4.3515,-4.3515,-4.3515,-4.3515,-4.3515,-4.3515,-4.3515,-4.3515,-4.3515,-4.3515,-4.3515,-4.3515,-4.3515,-4.3515,-4.3515,-4.3515,-4.3515,-4.3515,-4.3515,-4.3515,-4.3515,-4.3515,-4.3515,-4.3515,-4.3515,-4.3515,-4.3515,-4.2947,-4.1992,-4.0377,-3.9916,-3.9717,-3.8927,-3.8707,-3.8505,-3.7713,-3.7492,-3.707,-3.5408,-3.5023,-3.4766,-3.3972,-3.3807,-3.3807,-3.3807,-3.3807,-3.3532,-3.2729,-3.2601,-3.232,-3.1525,-3.0723,-3.021,-3.021,-2.95,-2.91,-2.9372,-2.9402,-2.9474,-2.9687,-2.9513,-2.9402,-2.9402,-2.9402,-2.9484,-2.9696,-2.9705,-2.9705,-2.9705,-3.0155,-3.0404,-3.0404,-3.0404,-3.0404,-3.0404,-3.0404,-3.0404,-3.0404,-3.0404,-3.0404,-3.0404,-3.0404,-3.0404,-3.0404,-3.0404,-3.0404,-3.0404,-3.0404,-3.0404,-3.0404,-4.3515,-4.3515,-4.3515,-4.3515,-4.3515,-4.3515,-4.3515,-4.3515,-4.3515,-4.3515,-4.3515,-4.3515,-4.3515,-4.3515,-4.3515,-4.3515,-4.3515,-4.3515,-4.3515,-4.3515,-4.3515,-4.3515,-4.3515,-4.3515,-4.3515,-4.3515,-4.3515,-4.3515,-4.3515,-4.3515,-4.3515,-4.3515,-4.3515,-4.3515,-4.3515,-4.3515,-4.3515,-4.3515,-4.3515,-4.3515,-4.3515,-4.3515,-4.3515,-4.3515,-4.3515,-4.3515,-4.3515,-4.3515,-4.3515,-4.3515,-4.3515,-4.3515,-4.3515,-4.2947,-4.2213,-4.1717,-4.0781,-3.9845,-3.9606,-3.9129,-3.8652,-3.8395,-3.7933,-3.7364,-3.6872,-3.583,-3.4931,-3.4692,-3.4192,-3.3807,-3.3807,-3.3807,-3.3715,-3.3476,-3.2981,-3.2509,-3.2284,-3.1549,-3.0834,-3.0265,-2.9989,-2.9738,-2.9427,-2.9402,-2.9474,-2.9687,-2.9513,-2.9402,-2.9402,-2.9402,-2.9424,-2.9484,-2.9635,-2.9705,-2.9705,-2.9981,-3.0129,-3.0129,-3.0311,-3.0404,-3.0404,-3.0404,-3.0404,-3.0404,-3.0404,-3.0404,-3.0404,-3.0404,-3.0404,-3.0404,-3.0404,-3.0404,-3.0404,-3.0404,-3.0404,-3.0404,-4.3515,-4.3515,-4.3515,-4.3515,-4.3515,-4.3515,-4.3515,-4.3515,-4.3515,-4.3515,-4.3515,-4.3515,-4.3515,-4.3515,-4.3515,-4.3515,-4.3515,-4.3515,-4.3515,-4.3515,-4.3515,-4.3515,-4.3515,-4.3515,-4.3515,-4.3515,-4.3515,-4.3515,-4.3515,-4.3515,-4.3515,-4.3515,-4.3515,-4.3515,-4.3515,-4.3515,-4.3515,-4.3515,-4.3515,-4.3515,-4.3515,-4.3515,-4.3515,-4.3515,-4.3515,-4.3515,-4.3515,-4.3515,-4.3515,-4.3515,-4.3515,-4.3515,-4.3515,-4.3167,-4.2708,-4.2396,-4.1607,-4.0708,-4.0065,-3.9533,-3.9093,-3.8781,-3.8322,-3.7896,-3.7566,-3.6707,-3.5793,-3.5151,-3.4619,-3.4192,-3.3862,-3.3807,-3.3807,-3.3807,-3.3385,-3.306,-3.306,-3.2375,-3.1696,-3.1207,-3.0595,-3.0079,-2.9761,-2.9421,-2.9291,-2.9416,-2.9414,-2.9351,-2.9246,-2.9235,-2.9235,-2.9235,-2.9365,-2.9426,-2.9426,-2.9661,-2.9796,-2.9885,-3.0122,-3.0248,-3.0248,-3.0355,-3.0404,-3.0404,-3.0404,-3.0404,-3.0398,-3.0292,-3.0248,-3.0222,-3.0148,-3.0121,-3.0121,-3.0121,-3.0169,-3.0248,-4.3515,-4.3515,-4.3515,-4.3515,-4.3515,-4.3515,-4.3515,-4.3515,-4.3515,-4.3515,-4.3515,-4.3515,-4.3515,-4.3515,-4.3515,-4.3515,-4.3515,-4.3515,-4.3515,-4.3515,-4.3515,-4.3515,-4.3515,-4.3515,-4.3515,-4.3515,-4.3515,-4.3515,-4.3515,-4.3515,-4.3515,-4.3515,-4.3515,-4.3515,-4.3515,-4.3515,-4.3515,-4.3515,-4.3515,-4.3515,-4.3515,-4.3515,-4.3515,-4.3515,-4.3515,-4.3515,-4.3515,-4.3515,-4.3515,-4.3515,-4.3515,-4.3515,-4.3515,-4.3515,-4.3368,-4.2616,-4.2359,-4.1956,-4.0414,-3.9937,-3.9698,-3.8909,-3.8707,-3.8505,-3.7768,-3.7547,-3.707,-3.5536,-3.5096,-3.4784,-3.4045,-3.3844,-3.3807,-3.3807,-3.3807,-3.3807,-3.3807,-3.3183,-3.2674,-3.2601,-3.1311,-3.0356,-3.021,-2.9464,-2.9017,-2.9021,-2.9235,-2.9267,-2.9051,-2.9017,-2.9005,-2.9005,-2.9005,-2.9005,-2.9005,-2.9235,-2.9465,-2.9678,-2.9877,-2.9984,-3.0006,-3.0254,-3.0392,-3.0404,-3.0404,-3.0404,-3.0373,-3.0136,-3.0021,-2.9984,-2.9796,-2.9722,-2.9705,-2.9705,-2.9813,-2.9977,-4.3515,-4.3515,-4.3515,-4.3515,-4.3515,-4.3515,-4.3515,-4.3515,-4.3515,-4.3515,-4.3515,-4.3515,-4.3515,-4.3515,-4.3515,-4.3515,-4.3515,-4.3515,-4.3515,-4.3515,-4.3515,-4.3515,-4.3515,-4.3515,-4.3515,-4.3515,-4.3515,-4.3515,-4.3515,-4.3515,-4.3515,-4.3515,-4.3515,-4.3515,-4.3515,-4.3515,-4.3515,-4.3515,-4.3515,-4.3515,-4.3515,-4.3515,-4.3515,-4.3515,-4.3515,-4.3515,-4.3515,-4.3515,-4.3515,-4.3515,-4.3515,-4.3515,-4.3515,-4.3515,-4.3478,-4.3277,-4.2782,-4.2084,-4.1111,-4.0377,-3.9698,-3.8909,-3.8707,-3.8652,-3.8487,-3.7936,-3.7401,-3.7033,-3.5917,-3.4949,-3.4766,-3.4215,-3.3807,-3.3807,-3.3807,-3.3807,-3.3807,-3.3642,-3.3311,-3.2674,-3.2289,-3.1574,-3.032,-2.9464,-2.9078,-2.9299,-2.916,-2.9156,-2.931,-2.9112,-2.9005,-2.9005,-2.9005,-2.9005,-2.9005,-2.9055,-2.9214,-2.9474,-2.967,-2.9845,-3.0006,-3.0068,-3.0202,-3.0404,-3.0404,-3.0404,-3.0398,-3.0349,-3.0196,-2.9999,-2.9954,-2.9837,-2.9705,-2.9705,-2.9731,-2.9773,-4.3515,-4.3515,-4.3515,-4.3515,-4.3515,-4.3515,-4.3515,-4.3515,-4.3515,-4.3515,-4.3515,-4.3515,-4.3515,-4.3515,-4.3515,-4.3515,-4.3515,-4.3515,-4.3515,-4.3515,-4.3515,-4.3515,-4.3515,-4.3515,-4.3515,-4.3515,-4.3515,-4.3515,-4.3515,-4.3515,-4.3515,-4.3515,-4.3515,-4.3515,-4.3515,-4.3515,-4.3515,-4.3515,-4.3515,-4.3515,-4.3515,-4.3515,-4.3515,-4.3515,-4.3515,-4.3515,-4.3515,-4.3515,-4.3515,-4.3515,-4.3515,-4.3515,-4.3515,-4.3515,-4.3515,-4.3515,-4.3185,-4.269,-4.1901,-4.1093,-4.0286,-3.9478,-3.8982,-3.8707,-3.8707,-3.8377,-3.797,-3.7584,-3.6505,-3.5481,-3.5078,-3.4344,-3.3807,-3.3807,-3.3807,-3.3807,-3.3807,-3.3807,-3.3642,-3.322,-3.2821,-3.2118,-3.0889,-3.0393,-3.003,-2.9802,-2.9998,-2.9865,-2.9248,-2.9796,-2.9787,-2.9023,-2.9372,-2.939,-2.9005,-2.9005,-2.9067,-2.9203,-2.9445,-2.9616,-2.9722,-2.9916,-3.0075,-3.0209,-3.0329,-3.0404,-3.0398,-3.026,-3.008,-2.9845,-2.9746,-2.957,-2.9367,-2.9367,-2.9446,-2.957,-4.3515,-4.3515,-4.3515,-4.3515,-4.3515,-4.3515,-4.3515,-4.3515,-4.3515,-4.3515,-4.3515,-4.3515,-4.3515,-4.3515,-4.3515,-4.3515,-4.3515,-4.3515,-4.3515,-4.3515,-4.3515,-4.3515,-4.3515,-4.3515,-4.3515,-4.3515,-4.3515,-4.3515,-4.3515,-4.3515,-4.3515,-4.3515,-4.3515,-4.3515,-4.3515,-4.3515,-4.3515,-4.3515,-4.3515,-4.3515,-4.3515,-4.3515,-4.3515,-4.3515,-4.3515,-4.3515,-4.3515,-4.3515,-4.3515,-4.3515,-4.3515,-4.3515,-4.3515,-4.3515,-4.3515,-4.3515,-4.3515,-4.3331,-4.2525,-4.1717,-4.0912,-4.0102,-3.9294,-3.8707,-3.8707,-3.8707,-3.8505,-3.7841,-3.707,-3.6285,-3.5555,-3.4651,-3.4009,-3.4009,-3.3899,-3.3807,-3.3807,-3.3807,-3.3807,-3.3807,-3.3091,-3.2339,-3.1659,-3.1488,-3.1109,-3.0467,-3.1029,-3.0815,-2.9482,-3.0687,-3.0723,-2.9244,-2.9861,-2.9812,-2.9005,-2.9005,-2.9005,-2.9005,-2.9243,-2.9361,-2.9423,-2.9756,-2.9916,-2.9962,-3.0176,-3.028,-3.0248,-3.004,-2.9829,-2.9625,-2.9474,-2.9235,-2.9005,-2.9005,-2.9145,-2.9361,-4.3515,-4.3515,-4.3515,-4.3515,-4.3515,-4.3515,-4.3515,-4.3515,-4.3515,-4.3515,-4.3515,-4.3515,-4.3515,-4.3515,-4.3515,-4.3515,-4.3515,-4.3515,-4.3515,-4.3515,-4.3515,-4.3515,-4.3515,-4.3515,-4.3515,-4.3515,-4.3515,-4.3515,-4.3515,-4.3515,-4.3515,-4.3515,-4.3515,-4.3515,-4.3515,-4.3515,-4.3515,-4.3515,-4.3515,-4.3515,-4.3515,-4.3515,-4.3515,-4.3515,-4.3515,-4.3515,-4.3515,-4.3515,-4.3515,-4.3515,-4.3515,-4.3515,-4.3515,-4.3515,-4.3515,-4.3515,-4.3515,-4.3331,-4.2525,-4.1717,-4.0912,-4.0102,-3.9294,-3.8707,-3.8707,-3.8707,-3.867,-3.856,-3.7915,-3.7309,-3.718,-3.5899,-3.4839,-3.4839,-3.4252,-3.3807,-3.3807,-3.3807,-3.3807,-3.3807,-3.3091,-3.2564,-3.2454,-3.1806,-3.136,-3.125,-3.1342,-3.1323,-3.1091,-3.1286,-3.098,-3.0081,-3.0136,-2.9812,-2.9005,-2.9005,-2.9005,-2.9005,-2.9051,-2.9178,-2.9402,-2.9464,-2.957,-2.9729,-2.9782,-2.9799,-2.979,-2.9765,-2.9607,-2.9434,-2.9423,-2.9235,-2.9005,-2.9005,-2.9028,-2.9055,-4.3515,-4.3515,-4.3515,-4.3515,-4.3515,-4.3515,-4.3515,-4.3515,-4.3515,-4.3515,-4.3515,-4.3515,-4.3515,-4.3515,-4.3515,-4.3515,-4.3515,-4.3515,-4.3515,-4.3515,-4.3515,-4.3515,-4.3515,-4.3515,-4.3515,-4.3515,-4.3515,-4.3515,-4.3515,-4.3515,-4.3515,-4.3515,-4.3515,-4.3515,-4.3515,-4.3515,-4.3515,-4.3515,-4.3515,-4.3515,-4.3515,-4.3515,-4.3515,-4.3515,-4.3515,-4.3515,-4.3515,-4.3515,-4.3515,-4.3515,-4.3515,-4.3515,-4.3515,-4.3515,-4.3515,-4.3515,-4.3515,-4.3423,-4.3057,-4.2378,-4.1589,-4.0781,-3.9974,-3.9239,-3.8799,-3.8707,-3.8707,-3.8707,-3.8046,-3.7492,-3.7492,-3.6138,-3.5004,-3.5004,-3.4307,-3.3807,-3.3807,-3.3807,-3.3807,-3.3807,-3.3495,-3.3275,-3.3275,-3.2944,-3.254,-3.21,-3.2485,-3.2339,-3.1452,-3.2247,-3.1953,-3.0246,-3.0632,-3.0265,-2.9005,-2.9005,-2.9005,-2.9005,-2.9005,-2.9055,-2.9171,-2.933,-2.9454,-2.9542,-2.9643,-2.9705,-2.9705,-2.9705,-2.9579,-2.9402,-2.9402,-2.9235,-2.9005,-2.9005,-2.9005,-2.9005]},{"header":{"parameterUnit":"m.s-1","parameterCategory":1,"la1":30.6,"la2":28.766,"lo1":-90.7593,"lo2":-88.6598,"dy":0.0162,"dx":0.0183,"nx":116,"ny":114,"refTime":"2024-05-17T06:00:00:Z","depth":0,"parameterNumber":3,"parameterNumberName":"V-component_of_WINDS"},"data":[0.0,0.0,0.0,0.0,0.0,0.0,0.0,0.0,0.0,0.0,0.0,0.0,0.0,0.0,0.0,0.0,0.0,0.0,0.0,0.0,0.0,0.0,0.0,0.0,0.0,0.0,0.0,0.0,0.0,0.0,0.0,0.0,0.0,0.0,0.0,0.0,0.0,0.0,0.0,0.0,0.0,0.0,0.0,0.0,0.0,0.0,0.0,0.0,0.0,0.0,0.0,0.0,0.0,0.0,0.0,0.0,0.0,0.0,0.0,0.0,0.0,0.0,0.0,0.0,0.0,0.0,0.0,0.0,0.0,0.0,0.0,0.0,0.0,0.0,0.0,0.0,0.0,0.0,0.0,0.0,0.0,0.0,0.0,0.0,0.0,0.0,0.0,0.0,0.0,0.0,0.0,0.0,0.0,0.0,0.0,0.0,0.0,0.0,0.0,0.0,0.0,0.0,0.0,0.0,0.0,0.0,0.0,0.0,0.0,0.0,0.0,0.0,0.0,0.0,0.0,0.0,0.0,0.0,0.0,0.0,0.0,0.0,0.0,0.0,0.0,0.0,0.0,0.0,0.0,0.0,0.0,0.0,0.0,0.0,0.0,0.0,0.0,0.0,0.0,0.0,0.0,0.0,0.0,0.0,0.0,0.0,0.0,0.0,0.0,0.0,0.0,0.0,0.0,0.0,0.0,0.0,0.0,0.0,0.0,0.0,0.0,0.0,0.0,0.0,0.0,0.0,0.0,0.0,0.0,0.0,0.0,0.0,0.0,0.0,0.0,0.0,0.0,0.0,0.0,0.0,0.0,0.0,0.0,0.0,0.0,0.0,0.0,0.0,0.0,0.0,0.0,0.0,0.0,0.0,0.0,0.0,0.0,0.0,0.0,0.0,0.0,0.0,0.0,0.0,0.0,0.0,0.0,0.0,0.0,0.0,0.0,0.0,0.0,0.0,0.0,0.0,0.0,0.0,0.0,0.0,0.0,0.0,0.0,0.0,0.0,0.0,0.0,0.0,0.0,0.0,0.0,0.0,0.0,0.0,0.0,0.0,0.0,0.0,0.0,0.0,0.0,0.0,0.0,0.0,0.0,0.0,0.0,0.0,0.0,0.0,0.0,0.0,0.0,0.0,0.0,0.0,0.0,0.0,0.0,0.0,0.0,0.0,0.0,0.0,0.0,0.0,0.0,0.0,0.0,0.0,0.0,0.0,0.0,0.0,0.0,0.0,0.0,0.0,0.0,0.0,0.0,0.0,0.0,0.0,0.0,0.0,0.0,0.0,0.0,0.0,0.0,0.0,0.0,0.0,0.0,0.0,0.0,0.0,0.0,0.0,0.0,0.0,0.0,0.0,0.0,0.0,0.0,0.0,0.0,0.0,0.0,0.0,0.0,0.0,0.0,0.0,0.0,0.0,0.0,0.0,0.0,0.0,0.0,0.0,0.0,0.0,0.0,0.0,0.0,0.0,0.0,0.0,0.0,0.0,0.0,0.0,0.0,0.0,0.0,0.0,0.0,0.0,0.0,0.0,0.0,0.0,0.0,0.0,0.0,0.0,0.0,0.0,0.0,0.0,0.0,0.0,0.0,0.0,0.0,0.0,0.0,0.0,0.0,0.0,0.0,0.0,0.0,0.0,0.0,0.0,0.0,0.0,0.0,0.0,0.0,0.0,0.0,0.0,0.0,0.0,0.0,0.0,0.0,0.0,0.0,0.0,0.0,0.0,0.0,0.0,0.0,0.0,0.0,0.0,0.0,0.0,0.0,0.0,0.0,0.0,0.0,0.0,0.0,0.0,0.0,0.0,0.0,0.0,0.0,0.0,0.0,0.0,0.0,0.0,0.0,0.0,0.0,0.0,0.0,0.0,0.0,0.0,0.0,0.0,0.0,0.0,0.0,0.0,0.0,0.0,0.0,0.0,0.0,0.0,0.0,0.0,0.0,0.0,0.0,0.0,0.0,0.0,0.0,0.0,0.0,0.0,0.0,0.0,0.0,0.0,0.0,0.0,0.0,0.0,0.0,0.0,0.0,0.0,0.0,0.0,0.0,0.0,0.0,0.0,0.0,0.0,0.0,0.0,0.0,0.0,0.0,0.0,0.0,0.0,0.0,0.0,0.0,0.0,0.0,0.0,0.0,0.0,0.0,0.0,0.0,0.0,0.0,0.0,0.0,0.0,0.0,0.0,0.0,0.0,0.0,0.0,0.0,0.0,0.0,0.0,0.0,0.0,0.0,0.0,0.0,0.0,0.0,0.0,0.0,0.0,0.0,0.0,0.0,0.0,0.0,0.0,0.0,0.0,0.0,0.0,0.0,0.0,0.0,0.0,0.0,0.0,0.0,0.0,0.0,0.0,0.0,0.0,0.0,0.0,0.0,0.0,0.0,0.0,0.0,0.0,0.0,0.0,0.0,0.0,0.0,0.0,0.0,0.0,0.0,0.0,0.0,0.0,0.0,0.0,0.0,0.0,0.0,0.0,0.0,0.0,0.0,0.0,0.0,0.0,0.0,0.0,0.0,0.0,0.0,0.0,0.0,0.0,0.0,0.0,0.0,0.0,0.0,0.0,0.0,0.0,0.0,0.0,0.0,0.0,0.0,0.0,0.0,0.0,0.0,0.0,0.0,0.0,0.0,0.0,0.0,0.0,0.0,0.0,0.0,0.0,0.0,0.0,0.0,0.0,0.0,0.0,0.0,0.0,0.0,0.0,0.0,0.0,0.0,0.0,0.0,0.0,0.0,0.0,0.0,0.0,0.0,0.0,0.0,0.0,0.0,0.0,0.0,0.0,0.0,0.0,0.0,0.0,0.0,0.0,0.0,0.0,0.0,0.0,0.0,0.0,0.0,0.0,0.0,0.0,0.0,0.0,0.0,0.0,0.0,0.0,0.0,0.0,0.0,0.0,0.0,0.0,0.0,0.0,0.0,0.0,0.0,0.0,0.0,0.0,0.0,0.0,0.0,0.0,0.0,0.0,0.0,0.0,0.0,0.0,0.0,0.0,0.0,0.0,0.0,0.0,0.0,0.0,0.0,0.0,0.0,0.0,0.0,0.0,0.0,0.0,0.0,0.0,0.0,0.0,0.0,0.0,0.0,0.0,0.0,0.0,0.0,0.0,0.0,0.0,0.0,0.0,0.0,0.0,0.0,0.0,0.0,0.0,0.0,0.0,0.0,0.0,0.0,0.0,0.0,0.0,0.0,0.0,0.0,0.0,0.0,0.0,0.0,0.0,0.0,0.0,0.0,0.0,0.0,0.0,0.0,0.0,0.0,0.0,0.0,0.0,0.0,0.0,0.0,0.0,0.0,0.0,0.0,0.0,0.0,0.0,0.0,0.0,0.0,0.0,0.0,0.0,0.0,0.0,0.0,0.0,0.0,0.0,0.0,0.0,0.0,0.0,0.0,0.0,0.0,0.0,0.0,0.0,0.0,0.0,0.0,0.0,0.0,0.0,0.0,0.0,0.0,0.0,0.0,0.0,0.0,0.0,0.0,0.0,0.0,0.0,0.0,0.0,0.0,0.0,0.0,0.0,0.0,0.0,0.0,0.0,0.0,0.0,0.0,0.0,0.0,0.0,0.0,0.0,0.0,0.0,0.0,0.0,0.0,0.0,0.0,0.0,0.0,0.0,0.0,0.0,0.0,0.0,0.0,0.0,0.0,0.0,0.0,0.0,0.0,0.0,0.0,0.0,0.0,0.0,0.0,0.0,0.0,0.0,0.0,0.0,0.0,0.0,0.0,0.0,0.0,0.0,0.0,0.0,0.0,0.0,0.0,0.0,0.0,0.0,0.0,0.0,0.0,0.0,0.0,0.0,0.0,0.0,0.0,0.0,0.0,0.0,0.0,0.0,0.0,0.0,0.0,0.0,0.0,0.0,0.0,0.0,0.0,0.0,0.0,0.0,0.0,0.0,0.0,0.0,0.0,0.0,0.0,0.0,0.0,0.0,0.0,0.0,0.0,0.0,0.0,0.0,0.0,0.0,0.0,0.0,0.0,0.0,0.0,0.0,0.0,0.0,0.0,0.0,0.0,0.0,0.0,0.0,0.0,0.0,0.0,0.0,0.0,0.0,0.0,0.0,0.0,0.0,0.0,0.0,0.0,0.0,0.0,0.0,0.0,0.0,0.0,0.0,0.0,0.0,0.0,0.0,0.0,0.0,0.0,0.0,0.0,0.0,0.0,0.0,0.0,0.0,0.0,0.0,0.0,0.0,0.0,0.0,0.0,0.0,0.0,0.0,0.0,0.0,0.0,0.0,0.0,0.0,0.0,0.0,0.0,0.0,0.0,0.0,0.0,0.0,0.0,0.0,0.0,0.0,0.0,0.0,0.0,0.0,0.0,0.0,0.0,0.0,0.0,0.0,0.0,0.0,0.0,0.0,0.0,0.0,0.0,0.0,0.0,0.0,0.0,0.0,0.0,0.0,0.0,0.0,0.0,0.0,0.0,0.0,0.0,0.0,0.0,0.0,0.0,0.0,0.0,0.0,0.0,0.0,0.0,0.0,0.0,0.0,0.0,0.0,0.0,0.0,0.0,0.0,0.0,0.0,0.0,0.0,0.0,0.0,0.0,0.0,0.0,0.0,0.0,0.0,0.0,0.0,0.0,0.0,0.0,0.0,0.0,0.0,0.0,0.0,0.0,0.0,0.0,0.0,0.0,0.0,0.0,0.0,0.0,0.0,0.0,0.0,0.0,0.0,0.0,0.0,0.0,0.0,0.0,0.0,0.0,0.0,0.0,0.0,0.0,0.0,0.0,0.0,0.0,0.0,0.0,0.0,0.0,0.0,0.0,0.0,0.0,0.0,0.0,0.0,0.0,0.0,0.0,0.0,0.0,0.0,0.0,0.0,0.0,0.0,0.0,0.0,0.0,0.0,0.0,0.0,0.0,0.0,0.0,0.0,0.0,0.0,0.0,0.0,0.0,0.0,0.0,0.0,0.0,0.0,0.0,0.0,0.0,0.0,0.0,0.0,0.0,0.0,0.0,0.0,0.0,0.0,0.0,0.0,0.0,0.0,0.0,0.0,0.0,0.0,0.0,0.0,0.0,0.0,0.0,0.0,0.0,0.0,0.0,0.0,0.0,0.0,0.0,0.0,0.0,0.0,0.0,0.0,0.0,0.0,0.0,0.0,0.0,0.0,0.0,0.0,0.0,0.0,0.0,0.0,0.0,0.0,0.0,0.0,0.0,0.0,0.0,0.0,0.0,0.0,0.0,0.0,0.0,0.0,0.0,0.0,0.0,0.0,0.0,0.0,0.0,0.0,0.0,0.0,0.0,0.0,0.0,0.0,0.0,0.0,0.0,0.0,0.0,0.0,0.0,0.0,0.0,0.0,0.0,0.0,0.0,0.0,0.0,0.0,0.0,0.0,0.0,0.0,0.0,0.0,0.0,0.0,0.0,0.0,0.0,0.0,0.0,0.0,0.0,0.0,0.0,0.0,0.0,0.0,0.0,0.0,0.0,0.0,0.0,0.0,0.0,0.0,0.0,0.0,0.0,0.0,0.0,0.0,0.0,0.0,0.0,0.0,0.0,0.0,0.0,0.0,0.0,0.0,0.0,0.0,0.0,0.0,0.0,0.0,0.0,0.0,0.0,0.0,0.0,0.0,0.0,0.0,0.0,0.0,0.0,0.0,0.0,0.0,0.0,0.0,0.0,0.0,0.0,0.0,0.0,0.0,0.0,0.0,0.0,0.0,0.0,0.0,0.0,0.0,0.0,0.0,0.0,0.0,0.0,0.0,0.0,0.0,0.0,0.0,0.0,0.0,0.0,0.0,0.0,0.0,0.0,0.0,0.0,0.0,0.0,0.0,0.0,0.0,0.0,0.0,0.0,0.0,0.0,0.0,0.0,0.0,0.0,0.0,0.0,0.0,0.0,0.0,0.0,0.0,0.0,0.0,0.0,0.0,0.0,0.0,0.0,0.0,0.0,0.0,0.0,0.0,0.0,0.0,0.0,0.0,0.0,0.0,0.0,0.0,0.0,0.0,0.0,0.0,0.0,0.0,0.0,0.0,0.0,0.0,0.0,0.0,0.0,0.0,0.0,0.0,0.0,0.0,0.0,0.0,0.0,0.0,0.0,0.0,0.0,0.0,0.0,0.0,0.0,0.0,-0.2928,0.0,0.0,0.0,0.0,0.0,0.0,0.0,0.0,0.0,0.0,0.0,0.0,0.0,0.0,0.0,0.0,0.0,0.0,0.0,0.0,0.0,0.0,0.0,0.0,0.0,0.0,0.0,0.0,0.0,0.0,0.0,0.0,0.0,0.0,0.0,-0.0825,-0.1005,-0.123,-0.1526,-0.1666,-0.1775,-0.1865,-0.1799,-0.1521,-0.1085,0.0,0.0,0.0,0.0,0.0,0.0,0.0,0.0,0.0,0.0,0.0,0.0,0.0,0.0,0.0,0.0,0.0,0.0,0.0,0.0,0.0,0.0,0.0,0.0,0.0,0.0,0.0,0.0,0.0,0.0,0.0,0.0,0.0,0.0,0.0,0.0,0.0,0.0,0.0,0.0,0.0,0.0,0.0,0.0,0.0,0.0,0.0,0.0,0.0,0.0,0.0,0.0,0.0,0.0,0.0,0.0,0.0,0.0,0.0,0.0,0.0,0.0,0.0,0.0,0.0,0.0,0.0,0.0,0.0,0.0,0.0,-0.307,0.0,0.0,0.0,0.0,0.0,0.0,0.0,0.0,0.0,0.0,0.0,0.0,0.0,0.0,0.0,0.0,0.0,0.0,0.0,0.0,0.0,0.0,0.0,0.0,0.0,0.0,0.0,0.0,0.0,-0.0248,0.0,0.0,0.0,-0.1072,-0.1296,-0.1384,-0.1681,-0.2197,-0.23,-0.2514,-0.2798,-0.2843,-0.2449,-0.1688,-0.1528,0.0,0.0,0.0,0.0,0.0,0.0,0.0,0.0,0.0,0.0,0.0,0.0,0.0,0.0,0.0,0.0,0.0,0.0,0.0,0.0,0.0,0.0,0.0,0.0,0.0,0.0,0.0,0.0,0.0,0.0,0.0,0.0,0.0,0.0,0.0,0.0,0.0,0.0,0.0,0.0,0.0,0.0,0.0,0.0,0.0,0.0,0.0,0.0,0.0,0.0,0.0,0.0,0.0,0.0,0.0,0.0,0.0,0.0,0.0,0.0,0.0,0.0,0.0,-0.6513,-0.666,-0.6988,-0.6148,-0.5816,-0.577,-0.4459,-0.3627,-0.3205,-0.3083,0.0,0.0,0.0,0.0,0.0,0.0,0.0,0.0,0.0,0.0,0.0,0.0,0.0,0.0,0.0,0.0,0.0,0.0,0.0,0.0,0.0,0.0,0.0,0.0,0.0,0.0,0.0,-0.0256,0.0,0.0,-0.0948,-0.1263,-0.1296,-0.1699,-0.2002,-0.2197,-0.272,-0.3074,-0.3222,-0.3398,-0.3418,-0.3253,-0.244,-0.2159,-0.2207,0.0,0.0,0.0,0.0,0.0,0.0,0.0,0.0,0.0,0.0,0.0,0.0,0.0,0.0,0.0,0.0,0.0,0.0,0.0,0.0,0.0,0.0,0.0,0.0,0.0,0.0,0.0,0.0,0.0,0.0,0.0,0.0,0.0,0.0,0.0,0.0,0.0,0.0,0.0,0.0,0.0,-0.309,-0.351,0.0,0.0,0.0,0.0,0.0,0.0,0.0,0.0,0.0,0.0,0.0,0.0,0.0,-0.6553,-0.6827,-0.7386,-0.7378,-0.6778,-0.7262,-0.7361,-0.7083,-0.6942,-0.7017,-0.7197,-0.6242,0.0,-0.3693,-0.3573,0.0,0.0,0.0,0.0,0.0,0.0,0.0,0.0,0.0,0.0,0.0,0.0,0.0,0.0,0.0,0.0,0.0,0.0,0.0,0.0,0.0,-0.0298,-0.0508,-0.051,-0.0813,-0.0927,-0.0737,-0.1022,-0.1101,-0.0918,-0.1338,-0.1618,-0.1696,-0.1969,-0.2363,-0.288,-0.3378,-0.3637,-0.3704,-0.3772,-0.3829,-0.3816,-0.3394,-0.2995,-0.2579,-0.203,0.0,0.0,0.0,0.0,0.0,0.0,0.0,0.0,0.0,0.0,0.0,0.0,0.0,0.0,0.0,0.0,0.0,0.0,0.0,0.0,0.0,0.0,0.0,0.0,0.0,0.0,0.0,0.0,0.0,0.0,0.0,0.0,0.0,0.0,0.0,0.0,0.0,0.0,0.0,-0.2797,-0.3308,-0.4139,-0.4231,-0.438,0.0,0.0,0.0,0.0,0.0,0.0,0.0,0.0,0.0,-0.7089,-0.7437,-0.7729,-0.7999,-0.8617,-0.8744,-0.8437,-0.869,-0.8733,-0.8558,-0.812,-0.8003,-0.8075,-0.727,-0.6534,-0.5788,-0.4483,-0.3751,-0.3483,0.0,0.0,0.0,0.0,-0.3405,-0.3439,0.0,0.0,0.0,0.0,0.0,0.0,0.0,0.0,0.0,0.0,0.0,0.0,0.0,-0.0539,-0.0904,-0.0899,-0.1453,-0.1691,-0.1447,-0.1664,-0.1694,-0.1433,-0.17,-0.1913,-0.2053,-0.2338,-0.2835,-0.3546,-0.3894,-0.4072,-0.4134,-0.4134,-0.4134,-0.4134,-0.4134,-0.3747,-0.3061,-0.2775,-0.2302,0.0,0.0,0.0,0.0,0.0,0.0,0.0,0.0,0.0,0.0,0.0,0.0,0.0,0.0,0.0,0.0,0.0,0.0,0.0,0.0,0.0,0.0,0.0,0.0,0.0,0.0,0.0,0.0,0.0,0.0,0.0,0.0,0.0,0.0,0.0,0.0,0.0,0.0,-0.3163,-0.3608,-0.4801,-0.4919,-0.5081,0.0,0.0,0.0,0.0,0.0,0.0,-0.7048,-0.7321,-0.7615,-0.7933,-0.8456,-0.8837,-0.9031,-0.9466,-0.9715,-0.9715,-0.9715,-0.9726,-0.9793,-0.9221,-0.8896,-0.8722,-0.7957,-0.7466,-0.7076,-0.5406,-0.4568,-0.4327,-0.4,-0.3866,-0.3846,-0.3993,-0.4019,-0.406,0.0,0.0,0.0,0.0,0.0,0.0,0.0,0.0,0.0,0.0,0.0,0.0,0.0,-0.0537,-0.0901,-0.0892,-0.1448,-0.1795,0.0,0.0,-0.1794,-0.1781,-0.1918,-0.2056,-0.2184,-0.2891,-0.3477,-0.396,-0.4129,-0.4281,-0.4467,-0.4467,-0.4467,-0.4467,-0.4467,-0.4348,-0.4084,-0.3375,-0.3037,-0.2936,0.0,0.0,0.0,0.0,0.0,0.0,0.0,0.0,0.0,0.0,0.0,0.0,0.0,0.0,0.0,0.0,0.0,0.0,0.0,0.0,0.0,0.0,0.0,0.0,0.0,0.0,0.0,0.0,0.0,0.0,0.0,0.0,0.0,0.0,0.0,0.0,0.0,0.0,0.0,-0.5695,-0.612,0.0,0.0,0.0,0.0,-0.7377,-0.7417,-0.7678,-0.8281,-0.8564,-0.8825,-0.9118,-0.9452,-0.9655,-0.9668,-0.9695,-0.9715,-0.9715,-0.9715,-0.9826,-1.0094,-1.0033,-0.9748,-0.9201,-0.835,-0.7396,-0.6447,-0.6207,-0.6031,-0.5819,-0.4973,-0.4573,-0.4464,-0.4617,-0.4646,-0.4667,0.0,0.0,0.0,0.0,0.0,0.0792,0.0457,0.0168,0.0,0.0,0.0,0.0,0.0,-0.0958,-0.1609,-0.16,-0.2506,-0.3003,-0.2779,-0.2611,-0.2501,-0.2501,-0.2476,-0.2649,-0.3093,-0.3526,-0.3883,-0.4142,-0.4314,-0.444,-0.4491,-0.4491,-0.4491,-0.4491,-0.4491,-0.446,-0.4362,-0.3885,-0.3585,-0.3362,-0.2665,-0.2177,0.0,0.0,0.0,0.0,0.0,0.0,0.0,0.0,0.0,0.0,0.0,0.0,0.0,0.0,0.0,0.0,0.0,0.0,0.0,0.0,0.0,0.0,0.0,0.0,0.0,0.0,0.0,0.0,0.0,0.0,0.0,0.0,0.0,0.0,0.0,0.0,0.0,-0.6327,-0.6765,0.0,-0.7544,-0.7782,-0.8009,-0.831,-0.8504,-0.8784,-0.9226,-0.9319,-0.9419,-0.9519,-0.9806,-0.996,-0.996,-1.0184,-1.0278,-1.0278,-1.0278,-1.0332,-1.0432,-1.0432,-1.0329,-1.0079,-0.9198,-0.8634,-0.8164,-0.6994,-0.6034,-0.5273,-0.4956,-0.4806,-0.4762,-0.4816,-0.484,-0.4847,0.0,0.0,0.0,0.0,0.1016,0.0758,0.0335,0.0112,0.0,0.0,0.0,0.0,0.0,-0.1199,-0.2009,-0.2001,-0.3105,-0.3707,-0.3489,-0.3155,-0.2963,-0.2963,-0.2952,-0.3184,-0.3717,-0.3947,-0.4142,-0.4294,-0.4443,-0.4491,-0.4491,-0.4491,-0.4491,-0.4491,-0.4491,-0.4491,-0.4477,-0.4253,-0.4029,-0.3762,-0.3312,-0.2944,-0.2625,0.0,0.0,0.0,0.0,0.0,0.0,0.0,0.0,0.0,0.0,0.0,0.0,0.0,0.0,0.0,0.0,0.0,0.0,0.0,0.0,0.0,0.0,0.0,0.0,0.0,0.0,0.0,0.0,0.0,0.0,0.0,0.0,0.0,0.0,0.0,-0.5572,-0.6822,-0.7169,-0.7465,-0.7854,-0.8209,-0.8478,-0.8663,-0.9105,-0.9479,-0.9702,-0.978,-0.9873,-1.0003,-1.0261,-1.0461,-1.0523,-1.0755,-1.0888,-1.0888,-1.0888,-1.0888,-1.0888,-1.0888,-1.0718,-1.0386,-0.946,-0.8893,-0.8522,-0.7012,-0.5914,-0.5206,-0.5108,-0.5067,-0.5067,-0.5067,-0.5067,-0.506,0.0,0.0,0.0,0.1014,0.0903,0.0703,0.0101,0.0,0.0,0.0,0.0,-0.0017,-0.0041,-0.1225,-0.2015,-0.2029,-0.311,-0.3795,-0.3792,-0.3375,-0.3111,-0.3121,-0.3317,-0.361,-0.3998,-0.4153,-0.4297,-0.4491,-0.4491,-0.4491,-0.4491,-0.4494,-0.4494,-0.4491,-0.4501,-0.4501,-0.4498,-0.4498,-0.4389,-0.4197,-0.4065,-0.3853,-0.3539,0.0,0.0,0.0,0.0,0.0,0.0,0.0,0.0,0.0,0.0,0.0,0.0,0.0,0.0,0.0,0.0,0.0,0.0,0.0,0.0,0.0,0.0,0.0,0.0,0.0,0.0,0.0,0.0,0.0,0.0,0.0,0.0,0.0,-0.4303,-0.5026,-0.5927,-0.7115,-0.727,-0.7438,-0.7841,-0.819,-0.8399,-0.8399,-0.9227,-0.9755,-0.9755,-1.0,-1.0287,-1.0606,-1.0894,-1.1109,-1.1348,-1.1354,-1.1354,-1.1354,-1.1354,-1.1354,-1.1354,-1.1389,-1.0902,-1.0031,-0.9079,-0.8167,-0.7318,-0.6258,-0.5835,-0.5808,-0.5521,-0.5405,-0.5402,-0.5402,-0.5399,-0.5375,0.0,0.0,0.167,0.1263,0.1027,0.0758,0.0357,0.0123,0.0,0.0,0.0,-0.0196,-0.0734,-0.1594,-0.2312,-0.2763,-0.3514,-0.391,-0.3799,-0.3455,-0.336,-0.3598,-0.3982,-0.4242,-0.4365,-0.4409,-0.445,-0.4491,-0.4491,-0.4491,-0.4491,-0.4604,-0.4597,-0.4501,-0.4694,-0.4731,-0.4655,-0.4655,-0.4606,-0.4548,-0.4264,-0.4045,-0.3853,0.0,0.0,0.0,0.0,0.0,0.0,0.0,0.0,0.0,0.0,0.0,0.0,0.0,0.0,0.0,0.0,0.0,0.0,0.0,0.0,0.0,0.0,0.0,0.0,0.0,0.0,0.0,0.0,0.0,0.0,0.0,0.0,-0.4738,-0.4325,-0.498,-0.5704,-0.6282,-0.6837,-0.7185,-0.7302,-0.8151,-0.869,-0.869,-0.9906,-1.0635,-1.0635,-1.0909,-1.1069,-1.1182,-1.1263,-1.0996,-1.0331,-1.0297,-1.0297,-1.0297,-1.0297,-1.0297,-1.0331,-1.1073,-1.0867,-0.995,-0.9748,-0.9539,-0.9219,-0.7562,-0.6892,-0.6813,-0.599,-0.562,-0.5562,-0.5562,-0.5491,-0.5388,0.0,0.1803,0.1692,0.1363,0.1083,0.0792,0.0457,0.0168,0.0,0.0,0.0,-0.0164,-0.0594,-0.1516,-0.2246,-0.2613,-0.3434,-0.3863,-0.3737,-0.3541,-0.3586,-0.3944,-0.4233,-0.4402,-0.4487,-0.4491,-0.4491,-0.4491,-0.4491,-0.4525,-0.459,-0.4679,-0.4677,-0.466,-0.484,-0.487,-0.4785,-0.4785,-0.4748,-0.4674,-0.4476,-0.4314,-0.4189,-0.4039,-0.3849,-0.3661,-0.3604,-0.3498,-0.334,-0.3061,0.0,0.0,0.0,0.0,0.0,0.0,0.0,0.0,0.0,0.0,0.0,0.0,0.0,0.0,0.0,0.0,0.0,0.0,0.0,0.0,0.0,0.0,0.0,0.0,-0.4553,-0.4961,-0.4617,-0.5657,-0.635,-0.6201,-0.663,-0.7083,-0.7454,-0.818,-0.8798,-0.9154,-1.0404,-1.0968,-1.0552,-1.0703,-1.0628,-1.0313,-1.0319,-1.0089,-0.9661,-0.9661,-0.9871,-1.0265,-0.984,-0.9876,-1.0265,-1.0456,-1.0205,-0.9625,-0.9305,-0.9124,-0.9052,-0.7961,-0.7522,0.0,0.0,0.0,0.0,0.0,-0.5623,-0.5579,0.0,0.1803,0.1703,0.1408,0.1127,0.0836,0.0501,0.0224,0.0037,0.0,0.0,-0.0036,-0.011,-0.1253,-0.2023,-0.2093,-0.3144,-0.3737,0.0,0.0,0.0,-0.4177,-0.421,-0.4304,-0.4487,-0.4491,-0.4498,-0.4515,-0.4515,-0.4593,-0.4718,-0.4731,-0.4806,-0.4891,-0.4955,-0.4928,-0.4914,-0.4914,-0.4863,-0.4738,-0.4704,-0.4627,-0.4474,-0.4294,-0.4247,-0.421,-0.3965,-0.3866,-0.3826,-0.3539,0.0,0.0,0.0,0.0,0.0,0.0,0.0,0.0,0.0,0.0,0.0,0.0,0.0,0.0,0.0,0.0,0.0,0.0,0.0,0.0,0.0,0.0,0.0,0.0,-0.4505,-0.4789,-0.5074,-0.6549,-0.7315,-0.6539,-0.6606,-0.7077,-0.7965,-0.8261,-0.8737,-0.9523,-1.0514,-1.0732,-0.9811,0.0,0.0,0.0,0.0,-0.8936,-0.9145,-0.915,-0.9593,-1.0447,-0.9556,-0.9593,-1.0447,-0.9669,-0.9226,-0.9074,-0.8313,-0.797,-0.7974,-0.7859,-0.7744,-0.752,-0.6408,-0.5935,-0.5823,-0.581,-0.58,-0.58,0.0,0.1803,0.1781,0.1718,0.1438,0.1127,0.0847,0.0535,0.0243,0.003,0.0,-0.0219,-0.0813,-0.1555,-0.219,-0.2685,-0.3378,-0.3778,0.0,0.0,-0.4004,-0.4187,-0.4358,-0.446,-0.4491,-0.4491,-0.4549,-0.4646,-0.4646,-0.4724,-0.4877,-0.4961,-0.4968,-0.4897,-0.5169,-0.5206,-0.5059,-0.5059,-0.5042,-0.4995,-0.4785,-0.4627,-0.4487,-0.446,-0.445,-0.444,-0.4382,-0.4361,-0.4351,-0.4293,-0.4066,-0.3819,-0.3789,0.0,0.0,0.0,0.0,0.0,0.0,0.0,0.0,0.0,0.0,0.0,0.0,0.0,0.0,0.0,0.0,0.0,0.0,0.0,0.0,-0.4409,-0.5331,-0.5802,-0.5181,-0.6125,-0.6826,-0.6664,-0.6872,-0.736,-0.8225,-0.8461,-0.8628,-0.8807,-0.9117,-0.9201,-0.9021,-0.928,-0.9335,-0.9188,-0.9193,-0.8836,-0.8084,-0.8084,-0.8199,-0.8385,0.0,0.0,-0.8385,-0.9031,-0.8846,-0.8122,-0.8732,-0.8998,-0.8955,-0.8122,-0.7326,-0.6623,-0.7017,-0.6677,-0.5932,-0.5847,-0.58,-0.58,0.1803,0.1803,0.1803,0.1803,0.1519,0.1208,0.0936,0.0612,0.0304,0.003,0.0,-0.0139,-0.0516,-0.109,-0.1578,-0.188,-0.2734,0.0,0.0,-0.359,-0.3913,-0.3746,-0.4228,-0.4491,-0.4491,-0.4566,-0.4641,-0.4691,-0.4769,-0.488,-0.4995,-0.5066,-0.5103,-0.5148,-0.533,-0.5351,-0.5247,-0.5247,-0.5203,-0.5079,-0.4894,-0.4714,-0.4597,-0.4518,-0.4491,-0.4491,-0.4491,-0.4491,-0.4491,-0.4491,-0.4317,-0.4109,-0.4109,-0.3799,-0.3412,0.0,0.0,0.0,0.0,0.0,0.0,0.0,0.0,0.0,0.0,0.0,0.0,0.0,0.0,-0.3751,0.0,0.0,-0.4513,-0.4762,-0.5321,-0.5633,-0.5301,-0.5771,-0.6138,-0.6138,-0.6283,-0.6712,-0.7653,-0.7917,-0.8217,-0.8673,-0.892,-0.8822,-0.8337,-0.8444,-0.8313,-0.7821,-0.7783,-0.7553,-0.7061,-0.7061,-0.7288,-0.7783,-0.7288,-0.7326,-0.7783,-0.7783,-0.7514,-0.7061,-0.7595,-0.7783,-0.7783,-0.7783,-0.7518,-0.7088,-0.7488,-0.704,-0.6211,-0.6648,-0.6474,-0.6067,0.1803,0.1803,0.1803,0.1803,0.1571,0.1305,0.1016,0.0701,0.0397,0.0116,0.003,0.0,0.0,-0.053,-0.0954,0.0,0.0,0.0,0.0,-0.3369,-0.3816,-0.3335,-0.407,-0.4436,-0.4294,-0.4555,-0.4704,-0.4735,-0.4887,-0.5002,-0.5143,-0.5143,-0.5243,-0.5395,-0.5395,-0.5395,-0.5395,-0.5395,-0.532,-0.513,-0.4958,-0.4847,-0.4714,-0.4559,-0.4491,-0.4491,-0.4491,-0.4491,-0.4491,-0.4491,-0.4385,-0.4264,-0.4264,-0.4075,-0.3829,-0.3514,-0.3396,0.0,0.0,0.0,0.0,0.0,0.0,0.0,0.0,0.0,-0.3564,-0.3907,-0.4087,-0.4267,-0.4535,-0.4674,-0.4853,-0.5059,-0.5147,-0.5264,-0.5423,-0.5569,-0.5644,-0.5674,-0.585,-0.6346,-0.7325,-0.7513,-0.7843,-0.8572,-0.8665,-0.8351,-0.7557,-0.7518,-0.7138,-0.6338,-0.63,-0.63,-0.63,-0.63,-0.6718,-0.7518,-0.6683,-0.6718,-0.748,-0.6679,-0.63,-0.63,-0.63,-0.63,-0.6377,-0.7176,-0.7518,-0.7514,-0.7706,-0.7173,-0.6412,-0.7215,-0.6984,-0.63,0.0,0.1803,0.1803,0.1803,0.177,0.1637,0.1308,0.1016,0.0728,0.0394,0.015,0.0,0.0,-0.0532,-0.1117,0.0,0.0,0.0,-0.2981,-0.3733,-0.3945,-0.3423,-0.4098,-0.4184,-0.3541,-0.4292,-0.4758,-0.4894,-0.5005,-0.5186,-0.5368,-0.5368,-0.5378,-0.5395,-0.5395,-0.5395,-0.5395,-0.5395,-0.5385,-0.5344,-0.5033,-0.4877,-0.486,-0.46,-0.4491,-0.4491,-0.4491,-0.4491,-0.4491,-0.4491,-0.4481,-0.4467,-0.4467,-0.4328,-0.4113,-0.3971,0.0,-0.3566,-0.3515,-0.3525,-0.3576,-0.3663,-0.3631,-0.3689,0.0,0.0,-0.4206,-0.4528,-0.4711,-0.48,-0.486,-0.4955,-0.5059,-0.5093,-0.5359,-0.5545,-0.5562,-0.5688,-0.5827,-0.5929,-0.6743,-0.7619,-0.8539,-0.808,-0.7825,-0.7901,-0.7126,-0.6606,-0.649,-0.6454,-0.6416,-0.63,-0.63,-0.63,-0.63,-0.63,-0.6374,-0.6451,-0.6338,-0.6377,-0.6451,-0.6338,-0.63,-0.63,-0.63,-0.63,-0.63,-0.6416,-0.6454,-0.6567,-0.7442,-0.7173,-0.63,-0.6416,-0.6412,-0.63,0.0,0.1803,0.1803,0.1803,0.1803,0.1681,0.1352,0.1072,0.0782,0.0448,0.0168,0.0,0.0,-0.0231,-0.0484,0.0,0.0,0.0,-0.1944,-0.3068,-0.3604,-0.3367,-0.4098,-0.4349,-0.4042,-0.4552,-0.4857,-0.4887,-0.5152,-0.533,-0.5395,-0.5395,-0.5395,-0.5395,-0.5395,-0.5395,-0.5395,-0.5395,-0.5344,-0.5209,-0.5003,-0.4867,-0.4762,-0.4573,-0.4491,-0.4491,-0.4491,-0.4491,0.0,0.0,-0.4491,-0.4491,-0.4491,-0.4365,-0.4184,-0.4146,-0.4041,0.0,-0.4095,-0.4033,-0.4002,0.0,-0.4232,-0.4317,-0.4566,-0.4619,-0.4645,-0.4799,-0.4911,-0.5012,-0.5012,-0.5165,-0.5294,0.0,-0.5504,-0.5616,-0.5701,-0.5766,-0.5827,-0.5888,-0.6255,-0.6728,-0.73,-0.7091,-0.6907,-0.6907,-0.6528,-0.63,-0.63,-0.63,-0.63,-0.63,-0.63,-0.63,-0.63,-0.63,-0.634,-0.6422,-0.6337,-0.6344,-0.6419,-0.6337,-0.6344,-0.6429,-0.6518,-0.6515,-0.6512,-0.646,-0.6422,-0.6455,-0.6793,-0.6679,-0.6377,-0.6945,-0.6795,-0.63,0.0,0.1803,0.1803,0.1803,0.1803,0.1718,0.1474,0.1194,0.0901,0.058,0.0293,0.0088,0.0013,0.0,0.0,0.0,0.0,0.0,0.0,-0.2544,-0.3281,-0.3005,-0.3959,0.0,-0.4181,-0.4601,-0.4857,-0.4857,-0.5114,-0.5272,-0.5272,-0.5272,-0.5272,-0.5272,-0.5272,-0.5272,-0.524,-0.5042,-0.498,-0.5029,-0.4668,-0.4608,-0.4674,-0.4549,-0.4464,-0.4429,-0.4429,-0.4429,0.0,0.0,-0.4331,-0.4361,-0.4317,-0.4236,-0.414,-0.4184,-0.425,-0.4287,-0.4361,0.0,0.0,-0.4474,-0.4638,-0.4755,-0.4755,-0.487,-0.4945,-0.4945,-0.5063,-0.5196,-0.5196,-0.5317,-0.5446,-0.5566,-0.5623,-0.5698,-0.5844,-0.5864,-0.5864,-0.5864,-0.5827,-0.5905,-0.6173,-0.6235,-0.6252,-0.6296,-0.63,-0.63,-0.63,-0.63,-0.63,-0.63,-0.63,-0.632,-0.6358,-0.6358,-0.6429,-0.6573,-0.647,-0.6474,-0.6573,-0.647,-0.6477,-0.6579,-0.6654,-0.6702,-0.6692,-0.658,-0.6552,-0.6501,-0.6399,-0.6334,-0.6377,-0.7138,-0.6907,-0.63,0.0,0.0,0.1803,0.1803,0.1803,0.1792,0.1781,0.1507,0.1185,0.0918,0.0592,0.0292,0.0034,0.0,0.0,0.0,0.0,0.0,-0.1094,-0.2544,-0.3038,-0.2256,-0.368,-0.4125,-0.3345,-0.4238,-0.4697,-0.4697,-0.4857,-0.4904,-0.4904,-0.4904,-0.4904,-0.4904,-0.4904,-0.4904,-0.487,-0.4161,-0.425,-0.482,-0.3983,-0.4077,-0.4674,-0.4549,-0.4375,-0.4204,-0.4204,0.0,0.0,0.0,-0.391,-0.3984,-0.386,-0.391,0.0,-0.4153,-0.4345,0.0,0.0,0.0,-0.4643,-0.4528,-0.4691,-0.4881,-0.4881,-0.4988,-0.5093,-0.5093,-0.5247,-0.5388,-0.5388,-0.5392,-0.5446,-0.5566,-0.5705,-0.5847,-0.5963,-0.5986,-0.5986,-0.5986,-0.5891,-0.5864,0.0,-0.6,-0.6098,-0.6289,-0.63,-0.63,-0.63,-0.63,-0.63,-0.63,-0.63,-0.6364,-0.6504,-0.6504,-0.6542,-0.6695,-0.6688,-0.6688,-0.6695,-0.6688,-0.6688,-0.6695,-0.6698,-0.6702,-0.6702,-0.6695,-0.6607,-0.6511,-0.6508,-0.6422,-0.63,-0.6338,-0.6338,-0.63,0.0,0.0,0.0,0.1803,0.1803,0.1803,0.1803,0.1519,0.1263,0.1174,0.0714,0.0,0.0,0.0,0.0,0.0,0.0,0.0,-0.1067,-0.1597,-0.2181,-0.2902,-0.3468,-0.3873,-0.4098,-0.4498,-0.4691,-0.4691,-0.4843,-0.4887,-0.4887,-0.4887,-0.4887,-0.4887,-0.4887,-0.4887,-0.4887,-0.4641,-0.4671,-0.4877,-0.4484,-0.4484,-0.4674,-0.4549,-0.4372,-0.417,0.0,0.0,0.0,0.0,-0.3826,-0.3877,-0.3927,0.0,0.0,-0.4028,-0.4341,-0.4621,-0.449,0.0,-0.4853,-0.4894,-0.4951,-0.5056,-0.5189,-0.5283,-0.5254,-0.512,-0.514,-0.5179,-0.5084,-0.5145,-0.5291,-0.5549,-0.5708,-0.5891,-0.6146,-0.6095,-0.5956,-0.5891,-0.5833,0.0,0.0,0.0,0.0,-0.6286,-0.63,-0.63,-0.63,-0.63,-0.634,-0.6436,-0.6443,-0.6511,-0.662,-0.6624,-0.6702,-0.6851,-0.6851,-0.68,-0.6705,-0.6807,-0.6851,-0.6858,-0.691,-0.695,-0.6943,-0.6892,-0.682,-0.6766,-0.6664,-0.6532,-0.6443,-0.6443,-0.6381,-0.63,0.0,0.0,0.0,0.0,0.0,0.0,0.0,0.0,0.0,0.0,0.0,0.0,0.0,0.0,0.0,0.0,0.0,0.0,0.0,0.0,-0.1533,-0.2465,-0.2806,-0.3302,-0.3978,-0.4076,-0.4258,-0.4535,-0.4604,-0.4529,-0.434,-0.434,-0.4189,-0.395,-0.4219,-0.434,-0.434,-0.434,-0.4487,-0.4712,-0.4305,-0.4279,-0.4514,-0.4362,-0.4182,0.0,0.0,0.0,0.0,0.0,0.0,0.0,0.0,0.0,0.0,-0.4134,-0.4419,-0.4704,-0.4758,-0.488,-0.4985,-0.5076,-0.514,-0.524,-0.5371,-0.5351,-0.525,-0.512,-0.5059,-0.4995,-0.4908,-0.4961,-0.514,-0.5532,-0.5664,-0.585,-0.6248,-0.6129,-0.5956,-0.5895,-0.5833,-0.5823,0.0,0.0,0.0,-0.6286,-0.6347,-0.6375,-0.6375,-0.6426,-0.6501,-0.6552,-0.6552,-0.6627,-0.678,-0.678,-0.6858,-0.696,-0.696,-0.691,-0.6861,-0.6916,-0.696,-0.6967,-0.7058,-0.7095,-0.7088,-0.6997,-0.693,-0.6876,-0.682,-0.6688,-0.6549,-0.6532,-0.6453,-0.6368,0.0,0.0,0.0,0.0,0.0,0.0,0.0,0.0,0.0,0.0,0.0,0.0,0.0,0.0,0.0,0.0,0.0,0.0,0.0,0.0,0.0,-0.1108,-0.176,-0.244,-0.3053,-0.3053,-0.3406,-0.4105,-0.4131,-0.3848,-0.3299,-0.3327,-0.2966,-0.233,-0.2994,-0.3299,-0.3299,-0.3244,-0.3691,-0.4326,-0.3406,-0.3471,-0.4098,-0.3966,0.0,0.0,0.0,0.0,0.0,0.0,0.0,0.0,0.0,0.0,0.0,-0.4447,-0.4604,-0.4735,-0.4891,-0.5002,-0.511,-0.511,-0.5254,-0.5392,-0.5385,-0.5237,-0.5096,-0.5079,-0.4968,-0.4874,0.0,0.0,-0.506,-0.5498,-0.5586,-0.5755,-0.6238,-0.6135,-0.6,0.0,0.0,0.0,0.0,0.0,0.0,-0.6313,0.0,-0.6515,-0.6521,-0.662,-0.6705,-0.6712,-0.6712,-0.6783,-0.6896,-0.6896,-0.6964,-0.7095,-0.7095,-0.7095,-0.7095,-0.7095,-0.7095,-0.7095,-0.7095,-0.7095,-0.7095,-0.7095,-0.7018,-0.6896,-0.6896,-0.6848,-0.6695,-0.6539,-0.6518,-0.6491,0.0,0.0,0.0,0.0,0.0,0.0,0.0,0.0,0.0,0.0,0.0,0.0,0.0,0.0,0.0,0.0,0.0,0.0,0.0,0.0,0.0,0.0,0.0,0.0,-0.2409,-0.2431,0.0,0.0,0.0,-0.3304,-0.3151,-0.3616,-0.3718,-0.3536,-0.328,-0.3151,-0.3126,-0.2663,-0.2676,-0.297,0.0,-0.2641,-0.2921,0.0,0.0,0.0,0.0,0.0,0.0,0.0,0.0,0.0,0.0,0.0,-0.425,0.0,0.0,-0.4894,-0.5005,-0.5189,-0.5337,-0.5337,-0.5365,-0.5365,-0.5216,-0.5127,-0.5036,-0.4847,-0.4772,-0.468,0.0,0.0,0.0,-0.5181,-0.5528,0.0,-0.6252,-0.6265,0.0,-0.6006,0.0,-0.6313,-0.6248,-0.64,0.0,0.0,-0.6555,-0.6562,-0.6634,-0.6678,-0.6753,-0.6825,-0.6829,-0.6896,-0.7041,-0.7041,-0.7061,-0.7095,-0.7095,-0.7095,-0.7095,-0.7095,-0.7095,-0.7095,-0.7095,-0.7095,-0.7095,-0.7095,-0.7075,-0.7041,-0.7041,-0.6953,-0.6851,-0.6698,-0.6569,-0.6491,0.0,0.0,0.0,0.0,0.0,0.0,0.0,0.0,0.0,0.0,0.0,0.0,0.0,0.0,0.0,0.0,0.0,0.0,0.0,0.0,0.0,0.0,0.0,0.0,-0.1619,-0.1636,0.0,0.0,0.0,0.0,0.0,-0.2557,-0.2557,-0.2247,-0.2223,-0.2223,-0.2223,0.0,0.0,0.0,0.0,0.0,0.0,0.0,0.0,0.0,0.0,0.0,0.0,0.0,0.0,-0.4216,-0.4216,-0.4365,-0.4544,-0.4714,0.0,-0.5012,-0.5192,-0.5327,-0.5395,-0.5395,-0.5395,-0.5354,-0.5133,-0.5052,-0.4921,-0.4682,-0.4541,0.0,-0.4166,0.0,0.0,0.0,0.0,0.0,-0.6108,-0.6255,-0.6289,0.0,-0.6373,0.0,-0.6494,-0.6603,-0.6729,0.0,-0.6722,-0.6709,-0.6797,-0.6861,-0.6889,-0.6974,-0.6977,-0.7014,-0.7095,-0.7095,-0.7095,-0.7095,-0.7095,-0.7095,-0.7095,-0.7095,-0.7095,-0.7095,-0.7095,-0.7095,-0.7095,-0.7095,-0.7095,-0.7095,-0.7095,-0.7048,-0.696,-0.6854,-0.6746,-0.6644,0.0,0.0,0.0,0.0,0.0,0.0,0.0,0.0,0.0,0.0,0.0,0.0,0.0,0.0,0.0,0.0,0.0,0.0,0.0,0.0,0.0,0.0,0.0,0.0,0.0,0.0,0.0,0.0,0.0,0.0,0.0,0.0,0.0,0.0,0.0,0.0,0.0,0.0,0.0,0.0,0.0,0.0,0.0,0.0,0.0,0.0,0.0,0.0,0.0,0.0,-0.4098,-0.4407,-0.4494,-0.4687,-0.4918,-0.5056,-0.51,-0.5137,-0.5378,-0.5412,-0.5399,-0.5419,-0.5395,-0.5324,-0.5106,-0.4945,-0.4779,-0.4518,0.0,-0.4127,-0.4018,-0.4136,-0.4392,-0.482,0.0,-0.5552,-0.5929,-0.6146,-0.633,-0.6494,-0.6528,-0.6563,-0.6715,-0.6749,-0.6814,-0.6903,-0.6913,-0.6913,-0.6913,-0.7031,-0.7095,-0.7095,-0.7095,-0.7095,-0.7095,-0.7095,-0.7095,-0.7095,-0.7095,-0.7095,-0.7095,-0.7095,-0.7095,-0.7095,-0.7095,-0.7095,-0.7095,-0.7095,-0.7095,-0.7095,-0.7095,-0.7095,-0.7078,-0.694,-0.6886,-0.6842,0.0,0.0,0.0,0.0,0.0,0.0,0.0,0.0,0.0,0.0,0.2366,0.2202,0.0,0.0,0.0,0.0,0.0,0.0,0.0,0.0,0.0,0.0,0.0,0.0,0.0,0.0,0.0,0.0,0.0,0.0,0.0,0.0,0.0,0.0,0.0,0.0,0.0,0.0,0.0,0.0,0.0,0.0,0.0,0.0,0.0,0.0,0.0,0.0,0.0,0.0,-0.3468,-0.3866,-0.4474,-0.4775,-0.4918,-0.5056,-0.51,-0.516,-0.5474,-0.5491,-0.5426,-0.5552,-0.5359,-0.51,-0.4958,-0.4741,0.0,0.0,-0.4139,-0.4028,-0.4001,-0.4243,-0.4535,-0.4863,0.0,0.0,0.0,0.0,-0.6169,0.0,0.0,0.0,0.0,0.0,0.0,0.0,-0.7058,-0.7058,-0.7058,-0.7082,-0.7095,-0.7095,-0.7095,-0.7095,-0.7095,-0.7095,-0.7095,-0.7095,-0.7095,-0.7095,-0.7095,-0.7095,-0.7095,-0.7095,-0.7095,0.0,-0.7095,-0.7095,-0.7095,-0.7095,-0.7095,-0.7095,-0.7078,-0.694,-0.6886,-0.6842,0.0,0.0,0.0,0.0,0.0,0.0,0.0,0.2191,0.2365,0.2669,0.2771,0.2673,0.2315,0.2325,0.2178,0.0,0.0,0.0,0.0,0.0,0.0,0.0,0.0,0.0,0.0,0.0,0.0,0.0,0.0,0.0,0.0,0.0,0.0,0.0,0.0,0.0,0.0,0.0,0.0,0.0,0.0,0.0,0.0,0.0,0.0,0.0,0.0,0.0,0.0,0.0,-0.2757,-0.3211,-0.4343,-0.4847,-0.5012,-0.5079,-0.5186,-0.5301,-0.5528,-0.5569,-0.5532,-0.5572,-0.542,-0.5172,-0.4867,0.0,0.0,0.0,-0.3951,-0.388,-0.3805,0.0,0.0,0.0,0.0,0.0,0.0,0.0,0.0,0.0,0.0,0.0,0.0,0.0,0.0,0.0,-0.7095,-0.7095,-0.7095,-0.7095,-0.7095,-0.7095,-0.7095,-0.7095,-0.7095,-0.7095,-0.7095,-0.7095,-0.7095,-0.7095,-0.7095,-0.7095,-0.7095,-0.7095,-0.7095,-0.7095,-0.7095,-0.7095,-0.7095,-0.7095,-0.7095,-0.7095,-0.7088,-0.7021,-0.6994,-0.6953,0.0,0.0,0.0,0.0,0.0,0.0,0.0,0.2396,0.2616,0.2936,0.305,0.3013,0.2801,0.2764,0.2582,0.0,0.0,0.0,0.0,0.0,0.0,0.0,0.0,0.0,0.0,0.0,0.0,0.0,0.0,0.0,0.0,0.0,0.0,0.0,0.0,0.0,0.0,0.0,0.0,0.0,0.0,0.0,0.0,0.0,0.0,0.0,0.0,0.0,0.0,0.0,-0.2066,-0.2609,-0.3794,-0.4585,-0.5059,-0.509,-0.5216,-0.5385,-0.5538,-0.5566,-0.5549,-0.5583,-0.546,-0.5197,-0.4779,-0.4552,0.0,0.0,-0.3768,-0.3744,-0.3662,0.0,0.0,0.0,0.0,0.0,0.0,0.0,0.0,0.0,0.0,0.0,0.0,0.0,0.0,-0.7095,-0.7095,-0.7095,-0.7095,-0.7095,-0.7095,-0.7095,-0.7095,-0.7095,-0.7095,-0.7095,-0.7095,-0.7095,-0.7095,-0.7095,-0.7095,-0.7095,-0.7095,-0.7095,-0.7095,-0.7095,-0.7095,-0.7095,-0.7095,-0.7095,-0.7095,-0.7095,-0.7095,-0.7095,-0.7078,-0.7014,0.0,0.0,0.0,0.0,0.0,0.0,0.0,0.2487,0.2692,0.3192,0.3159,0.3091,0.3064,0.2946,0.2814,0.0,0.0,0.0,0.0,0.0,0.0,0.0,0.0,0.0,0.0,0.0,0.0,0.0,0.0,0.0,0.0,0.0,0.0,0.0,0.0,0.0,0.0,0.0,0.0,0.0,0.0,0.0,0.0,0.0,0.0,0.0,0.0,0.0,0.0,0.0,0.0,-0.2089,-0.2348,-0.358,-0.4931,-0.5063,0.0,0.0,-0.5511,-0.5521,-0.545,-0.5555,-0.527,-0.4911,-0.4731,0.0,0.0,-0.3829,-0.3713,-0.3658,-0.3751,-0.3795,0.0,0.0,0.0,0.0,0.0,0.0,0.0,0.0,0.0,0.0,0.0,0.0,0.0,-0.7095,-0.7095,-0.7095,-0.7095,-0.7095,-0.7095,-0.7095,-0.7095,-0.7095,-0.7095,-0.7095,-0.7095,-0.7095,-0.7095,-0.7095,-0.7095,-0.7095,-0.7095,-0.7095,-0.7095,-0.7095,0.0,-0.7095,-0.7095,-0.7095,-0.7095,-0.7095,-0.7095,-0.7095,-0.7014,-0.6883,0.0,0.0,0.0,0.0,0.0,0.0,0.2429,0.2498,0.2686,0.3229,0.3256,0.3216,0.3216,0.3108,0.294,0.272,0.0,0.0,0.0,0.0,0.0,0.0,0.0,0.0,0.0,0.0,0.0,0.0,0.0,0.0,0.0,0.0,0.0,0.0,0.0,0.0,0.0,0.0,0.0,0.0,0.0,0.0,0.0,0.0,0.0,0.0,0.0,0.0,0.0,0.0,0.0,0.0,-0.1526,-0.2342,0.0,0.0,-0.4302,-0.4595,-0.5292,-0.5511,-0.5549,-0.5576,-0.5315,-0.4928,-0.4658,0.0,-0.3927,-0.3714,-0.3641,-0.3621,-0.3675,-0.3757,-0.388,0.0,-0.4273,-0.4511,-0.5023,0.0,0.0,0.0,0.0,0.0,0.0,0.0,0.0,-0.7095,-0.7095,-0.7095,-0.7095,-0.7095,-0.7095,-0.7095,-0.7095,-0.7095,-0.7095,-0.7095,-0.7095,-0.7095,-0.7095,-0.7095,-0.7095,-0.7095,-0.7095,-0.7095,-0.7095,-0.7095,0.0,-0.7095,-0.7095,-0.7095,-0.7095,-0.7095,-0.7095,-0.7095,-0.7007,-0.6866,0.0,0.0,0.0,0.0,0.0,0.1957,0.2429,0.2498,0.2685,0.3169,0.3242,0.3242,0.3242,0.3128,0.2956,0.2785,0.2421,0.0,0.0,0.0,0.0,0.0,0.0,0.0,0.0,0.0,0.0,0.0,0.0,0.0,0.0,0.0,0.0,0.0,0.0,0.0,0.0,0.0,0.0,0.0,0.0,0.0,0.0,0.0,0.0,0.0,0.0,0.0,0.0,0.0,0.0,0.0,0.0,0.0,0.0,0.0,-0.3748,-0.408,-0.5061,-0.5372,-0.5454,-0.5454,-0.526,-0.4921,0.0,-0.4202,-0.3934,-0.3665,-0.3604,-0.3604,-0.3604,-0.3682,-0.3792,0.0,-0.4085,-0.4311,-0.4789,0.0,0.0,0.0,0.0,0.0,0.0,0.0,-0.7095,-0.7095,-0.7095,-0.7095,-0.7095,-0.7095,-0.7095,-0.7095,-0.7095,-0.7095,-0.7095,-0.7095,-0.7095,-0.7095,-0.7095,-0.7095,-0.7095,-0.7095,-0.7095,-0.7095,-0.7095,-0.7095,0.0,-0.7095,-0.7095,-0.7095,-0.7095,-0.7095,-0.7092,-0.7048,-0.6943,-0.6841,0.0,0.0,0.0,0.0,0.0,0.0,0.2429,0.2498,0.2647,0.3044,0.3104,0.3104,0.3104,0.2976,0.2892,0.2889,0.2768,0.0,0.0,0.0,0.0,0.0,0.0,0.0,0.0,0.0,0.0,0.0,0.0,0.0,0.0,0.0,0.0,0.0,0.0,0.0,0.0,0.0,0.0,0.0,0.0,0.0,0.0,0.0,0.0,0.0,0.0,0.0,0.0,0.0,0.0,0.0,0.0,0.0,0.0,0.0,-0.3602,-0.3826,-0.4823,-0.5103,-0.5103,-0.5103,-0.4995,-0.4773,0.0,-0.4105,-0.3934,-0.3665,-0.3604,-0.3604,-0.3604,-0.3604,-0.368,-0.3947,-0.3998,-0.4178,-0.4629,-0.4945,0.0,0.0,0.0,0.0,0.0,0.0,-0.7095,-0.7095,-0.7095,0.0,-0.7095,-0.7095,-0.7095,-0.7095,-0.7095,-0.7095,-0.7095,-0.7095,-0.7095,-0.7095,-0.7095,-0.7095,-0.7095,-0.7095,-0.7095,-0.7095,-0.7095,-0.7095,0.0,-0.7095,-0.7095,-0.7095,-0.7095,-0.7095,-0.7078,-0.694,-0.6834,-0.6681,0.0,0.0,0.0,0.0,0.0,0.0,0.0,0.2164,0.2313,0.2761,0.2744,0.2761,0.2936,0.2842,0.2771,0.2771,0.2727,0.0,0.0,0.0,0.0,0.0,0.0,0.0,0.0,0.0,0.0,0.0,0.0,0.0,0.0,0.0,0.0,0.0,0.0,0.0,0.0,0.0,0.0,0.0,0.0,0.0,0.0,0.0,0.0,0.0,0.0,0.0,0.0,0.0,0.0,0.0,0.0,0.0,0.0,0.0,0.0,0.0,-0.359,-0.4006,-0.4174,-0.4581,-0.4668,-0.4518,-0.4146,-0.4031,-0.3934,-0.3665,-0.3604,-0.3604,-0.3604,-0.3604,-0.371,-0.4085,-0.4123,0.0,0.0,0.0,0.0,0.0,0.0,0.0,0.0,0.0,-0.7095,-0.7095,-0.7095,-0.7095,-0.7095,-0.7095,-0.7095,-0.7095,-0.7095,-0.7095,-0.7095,-0.7095,-0.7095,-0.7095,-0.7095,-0.7095,-0.7095,-0.7095,-0.7095,-0.7095,-0.7095,-0.7095,-0.7095,-0.7095,-0.7095,-0.7095,-0.7095,-0.7095,-0.7078,-0.694,-0.6831,-0.6678,0.0,0.0,0.0,0.0,0.0,0.0,0.0,0.1999,0.2117,0.2469,0.2447,0.2481,0.2727,0.2669,0.2651,0.2692,0.2696,0.0,0.0,0.0,0.0,0.0,0.0,0.0,0.0,0.0243,0.0,0.0,0.0,0.0,0.0,0.0,0.0,0.0,0.0,0.0,0.0,0.0,0.0,0.0,0.0,0.0,0.0,0.0,0.0,0.0,0.0,0.0,0.0,0.0,0.0,0.0,0.0,0.0,0.0,0.0,-0.0752,0.0,0.0,-0.3111,-0.3286,-0.3657,-0.3745,-0.3655,-0.3326,-0.3419,-0.3528,-0.3305,-0.3442,-0.3604,-0.3604,-0.3604,-0.3707,-0.4072,-0.4136,0.0,0.0,0.0,0.0,0.0,0.0,0.0,0.0,-0.7031,-0.7095,-0.7095,-0.7095,-0.7095,-0.7095,-0.7095,-0.7095,-0.7095,-0.7095,-0.7095,-0.7095,-0.7095,-0.7095,-0.7095,-0.7095,-0.7095,-0.7095,-0.7095,-0.7095,-0.7095,-0.7095,-0.7095,0.0,-0.7095,-0.7095,-0.7092,-0.7038,-0.7018,-0.6994,-0.6831,-0.6698,-0.6593,0.0,0.0,0.0,0.0,0.0,0.0,0.0,0.1982,0.2036,0.2174,0.217,0.2245,0.2449,0.2477,0.2524,0.2652,0.0,0.0,0.0,0.0,0.0,0.0,0.0,0.0,0.0,0.0288,0.0037,0.0,0.0,0.0,0.0,0.0,0.0,0.0,0.0,0.0,0.0,0.0,0.0,0.0,0.0,0.0,0.0,0.0,0.0,0.0,0.0,0.0,0.0,0.0,0.0,0.0,0.0,0.0,0.0,0.0,0.0,0.0,0.0,0.0,0.0,0.0,-0.2467,-0.2376,-0.2067,-0.2437,0.0,-0.272,-0.3148,-0.3559,-0.3614,-0.3617,-0.3716,-0.4002,-0.4035,0.0,0.0,0.0,0.0,0.0,0.0,0.0,-0.6732,-0.6937,-0.7095,-0.7095,-0.7095,-0.7095,-0.7095,-0.7095,-0.7095,-0.7095,-0.7095,-0.7095,-0.7095,-0.7095,-0.7095,-0.7095,-0.7095,-0.7095,-0.7095,-0.7095,-0.7095,0.0,-0.7095,-0.7095,-0.7095,-0.7095,-0.7092,-0.7068,-0.6937,-0.6879,-0.6832,-0.658,-0.6511,-0.6491,0.0,0.0,0.0,0.0,0.0,0.0,0.0,0.0,0.0,0.0,0.196,0.1947,0.2096,0.2204,0.2289,0.0,0.0,0.0,0.0,0.0,0.0,0.0,0.0,0.0,0.0,0.0744,0.0366,0.0,0.0,0.0,0.0,0.0,0.0,0.0,0.0,0.0,0.0,0.0,0.0,0.0,0.0,0.0,0.0,0.0,0.0,0.0,0.0,0.0,0.0,0.0,0.0,0.0,0.0,0.0,0.0,0.0,0.0,-0.0088,-0.0485,0.0,-0.1381,-0.1854,-0.2051,-0.2071,0.0,-0.2042,-0.2299,0.0,0.0,0.0,-0.3648,-0.3741,-0.3901,-0.4317,-0.4457,-0.4613,0.0,0.0,0.0,0.0,0.0,-0.6994,-0.6994,-0.7055,-0.7095,-0.7095,-0.7095,-0.7095,-0.7095,-0.7095,-0.7095,-0.7095,-0.7095,-0.7095,-0.7095,-0.7095,-0.7095,-0.7095,-0.7095,-0.7095,-0.7095,-0.7095,-0.7095,-0.7095,-0.7095,-0.7095,-0.7095,-0.7095,-0.7034,-0.693,-0.69,-0.6858,-0.6732,-0.6542,-0.6511,-0.6491,0.0,0.0,0.0,0.0,0.0,0.0,0.0,0.0,0.0,0.0,0.0,0.0,0.0,0.0,0.0,0.0,0.0,0.0,0.0,0.0,0.0,0.0,0.0,0.0,0.1625,0.1018,0.0568,0.0313,0.0117,0.0,0.0,0.0,0.0,0.0,0.0,0.0,0.0,0.0,0.0,0.0,0.0,0.0,0.0,0.0,0.0,0.0,0.0,0.0,0.0,0.0,0.0,0.0,0.0,0.0,0.0,0.0,0.0,0.0,0.0,-0.0228,-0.0569,-0.0903,-0.103,-0.1065,-0.0995,0.0,0.0,0.0,0.0,0.0,0.0,0.0,0.0,0.0,-0.4487,0.0,0.0,0.0,0.0,0.0,-0.6916,-0.7095,0.0,-0.7095,-0.7095,-0.7095,-0.7095,-0.7095,-0.7095,-0.7095,-0.7095,-0.7095,-0.7034,-0.7031,-0.7095,-0.7095,-0.7095,-0.7095,-0.7095,-0.7095,-0.7095,-0.7095,-0.7095,-0.7095,-0.7095,-0.7095,-0.7092,-0.7024,-0.6953,-0.6873,-0.6773,-0.6668,-0.6576,-0.647,-0.6416,-0.6405,0.0,0.0,0.0,0.0,0.0,0.0,0.0,0.0,0.0,0.0,0.0,0.0,0.0,0.0,0.0,0.0,0.0,0.0,0.0,0.0,0.0,0.0,0.0,0.2089,0.2037,0.1308,0.0865,0.0731,0.0328,0.01,0.0,0.0,0.0,0.0,0.0,0.0,0.0,0.0,0.0,0.0,0.0,0.0,0.0,0.0,0.0,0.0,0.0,0.0,0.0,0.0,0.0,0.0,0.0,0.0,0.0,0.0,0.0,0.0,0.0,0.0,0.0,0.0,0.0,0.0,0.0,0.0,0.0,0.0,0.0,0.0,0.0,0.0,0.0,0.0,0.0,0.0,0.0,0.0,0.0,0.0,-0.6916,0.0,-0.7095,-0.7095,-0.7095,-0.7095,-0.7095,-0.7095,-0.7095,-0.7095,-0.7085,-0.7065,-0.695,-0.693,-0.7028,-0.7031,-0.7041,-0.7065,-0.7065,-0.7075,-0.7095,-0.7095,-0.7095,-0.7095,-0.7071,-0.7065,-0.7051,-0.691,-0.6836,-0.6834,-0.6573,-0.6497,-0.6463,-0.6344,-0.63,-0.63,0.0,0.0,0.0,0.0,0.0,0.0,0.0,0.0,0.0,0.0,0.0,0.0,0.0,0.0,0.0,0.0,0.0,0.0,0.0,0.0,0.0,0.0,0.263,0.2466,0.2182,0.2034,0.1613,0.0868,0.0807,0.0504,0.0,0.0,0.0,0.0,0.0,0.0,0.0,0.0,0.0,0.0,0.0,0.0,0.0,0.0,0.0,0.0,0.0,0.0,0.0,0.0,0.0,0.0,0.0,0.0,0.0,0.0,0.0,0.0,0.0,0.0,0.0,0.0,0.0,0.0,0.0,0.0,0.0,0.0,0.0,0.0,0.0,0.0,0.0,0.0,0.0,0.0,0.0,0.0,-0.6569,-0.6681,0.0,-0.7095,-0.7095,-0.7095,-0.7095,-0.7095,-0.7095,-0.7095,-0.7095,-0.7095,-0.7041,-0.6923,-0.6896,-0.6836,-0.677,-0.6766,-0.6831,-0.6916,-0.6916,-0.698,-0.7095,-0.7095,-0.7095,-0.7088,-0.697,-0.6916,-0.6906,-0.6797,-0.6658,-0.6536,-0.6528,-0.6436,-0.633,-0.631,-0.63,-0.63,0.0,0.0,0.0,0.0,0.0,0.0,0.0,0.0,0.0,0.0,0.0,0.0,0.0,0.0,0.0,0.0,0.0,0.0,0.0,0.0,0.0,0.2801,0.2805,0.273,0.2576,0.2445,0.2203,0.1884,0.1288,0.0865,0.0588,0.0186,0.0,0.0,0.0,0.0,0.0,0.0,0.0,0.0,0.0,0.0,0.0,0.0,0.0,0.0,0.0,0.0,0.0,0.0,0.0,0.0,0.0,0.0,0.0,0.0,0.0,0.0,0.0,0.0,0.0,0.0,0.0,0.0,0.0,0.0,0.0,0.0,0.0,0.0,0.0,0.0,0.0,0.0,0.0,-0.3526,-0.4229,-0.5068,-0.5442,0.0,0.0,-0.6642,-0.6077,-0.6554,-0.6902,-0.6902,-0.6902,-0.6902,-0.6902,-0.6902,-0.6871,-0.6807,-0.6725,-0.6647,-0.6576,-0.6502,-0.662,-0.6886,-0.6964,-0.7034,-0.7095,-0.7018,-0.698,-0.6974,-0.6868,-0.6807,-0.6793,-0.6641,-0.6576,-0.6504,-0.6426,-0.6358,-0.63,-0.63,-0.63,-0.63,0.0,0.0,0.0,0.0,0.0,0.0,0.0,0.0,0.0,0.0,0.0,0.0,0.0,0.0,0.0,0.0,0.0,0.0,0.0,0.0,0.2751,0.2852,0.289,0.2957,0.3066,0.2859,0.2772,0.2785,0.1978,0.1404,0.1088,0.0342,0.0,0.0,0.0,0.0,0.0,0.0,0.0,0.0,0.0,0.0,0.0,0.0,0.0,0.0,0.0,0.0,0.0,0.0,0.0,0.0,0.0,0.0,0.0,0.0,0.0,0.0,0.0,0.0,0.0,0.0,0.0,0.0,0.0,0.0,0.0,0.0,0.0,0.0,0.0,0.0,0.0,0.0,-0.2385,-0.2551,-0.288,-0.3866,-0.425,-0.3439,-0.4912,-0.5651,-0.4809,-0.569,-0.6319,-0.6319,-0.6574,-0.6702,-0.6702,-0.6702,-0.6685,-0.6647,-0.6573,-0.6497,-0.6463,-0.6385,-0.6481,-0.6824,-0.6889,-0.696,-0.6991,-0.6883,-0.6832,-0.6825,-0.6712,-0.6647,-0.6634,-0.6525,-0.6463,-0.6453,-0.634,-0.63,-0.63,-0.63,-0.63,-0.63,0.0,0.0,0.0,0.0,0.0,0.0,0.0,0.0,0.0,0.0,0.0,0.0,0.0,0.0,0.0,0.0,0.0,0.0,0.0,0.0,0.2703,0.2713,0.2832,0.3107,0.3542,0.3529,0.3385,0.3078,0.2996,0.2324,0.1089,0.035,0.0,0.0,0.0,0.0,0.0,0.0,0.0,0.0,0.0,0.0,0.0,0.0,0.0,0.0,0.0,0.0,0.0,0.0,0.0,0.0,0.0,0.0,0.0,0.0,0.0,0.0,0.0,0.0,0.0,0.0,0.0,0.0,0.0,0.0,0.0,0.0,0.0,0.0,0.0,0.0,0.0,-0.1505,-0.1665,-0.2012,-0.295,0.0,-0.348,-0.3399,-0.3635,-0.3813,-0.373,-0.4603,-0.5225,-0.5225,-0.6153,-0.6702,-0.6702,-0.6702,-0.6634,-0.6532,-0.6518,-0.645,-0.6317,-0.6436,-0.6515,-0.6545,-0.6555,-0.6597,-0.6732,-0.6722,-0.6715,-0.6709,-0.6556,-0.6528,-0.6518,-0.6375,-0.6317,-0.6313,-0.6303,-0.63,-0.63,-0.63,-0.63,-0.63,0.0,0.0,0.0,0.0,0.0,0.0,0.0,0.0,0.0,0.0,0.0,0.0,0.0,0.0,0.0,0.0,0.0,0.0,0.0,0.0,0.2658,0.2815,0.2961,0.3145,0.3411,0.3615,0.374,0.3772,0.3417,0.2507,0.1081,0.0811,0.0442,0.0,0.0,0.0,0.0,0.0,0.0,0.0,0.0,0.0,0.0,0.0,0.0,0.0,0.0,0.0,0.0,0.0,0.0,0.0,0.0,0.0,0.0,0.0,0.0,0.0,0.0,0.0,0.0,0.0,0.0,0.0,0.0,0.0,0.0,0.0,0.0,0.0,0.0,0.0,-0.014,-0.0543,-0.0603,-0.0737,-0.1134,-0.1814,-0.2023,-0.1349,-0.2476,-0.3052,-0.2412,-0.325,-0.3848,-0.3848,-0.4248,-0.4449,-0.4449,-0.5092,-0.5433,-0.5384,-0.6022,-0.6354,-0.63,-0.6354,-0.6378,-0.6381,-0.6525,-0.6644,-0.6698,-0.6603,-0.6559,-0.6552,-0.6443,-0.6378,-0.6375,-0.6323,-0.63,-0.63,-0.63,-0.63,-0.63,-0.63,-0.63,-0.63,0.0,0.0,0.0,0.0,0.0,0.0,0.0,0.0,0.0,0.0,0.0,0.0,0.0,0.0,0.0,0.0,0.0,0.0,0.0,0.2361,0.2579,0.2774,0.2951,0.3104,0.3232,0.3571,0.3873,0.4123,0.3535,0.2696,0.1668,0.1233,0.0771,0.0274,0.0086,0.0,0.0,0.0,0.0,0.0,0.0,0.0,0.0,0.0,0.0,0.0,0.0,0.0,0.0,0.0,0.0,0.0,0.0,0.0,0.0,0.0,0.0,0.0,0.0,0.0,0.0,0.0,0.0,0.0,0.0,0.0,0.0,0.0,0.0,0.0,0.0,0.0,0.0,0.0,0.0,0.0,0.0,-0.0628,-0.0824,-0.0079,-0.1253,-0.1839,-0.1176,-0.2034,-0.2618,-0.2618,-0.2929,-0.3085,-0.3085,-0.3787,-0.4178,-0.4178,-0.4921,-0.5276,-0.5276,-0.5628,-0.5628,-0.5318,-0.6178,-0.6563,-0.6559,-0.6494,-0.6446,-0.6439,-0.634,-0.63,-0.63,-0.63,-0.63,-0.63,-0.63,-0.63,-0.63,-0.63,-0.63,-0.63,0.0,0.0,0.0,0.0,0.0,0.0,0.0,0.0,0.0,0.0,0.0,0.0,0.0,0.0,0.0,0.0,0.0,0.0,0.1999,0.2314,0.2498,0.2498,0.2764,0.2956,0.3094,0.3419,0.3721,0.3994,0.3416,0.3048,0.2859,0.1525,0.0904,0.0877,0.0263,0.0,0.0,0.0,0.0,0.0,0.0,0.0,0.0,0.0,0.0,0.0,0.0,0.0,0.0,0.0,0.0,0.0,0.0,0.0,0.0,0.0,0.0,0.0,0.0,0.0,0.0,0.0,0.0,0.0,0.0,0.0,0.0,0.0,0.0,0.0,0.0,0.0,0.0,0.0,0.0,0.0,0.0,0.0,0.0,0.0,0.0,0.0,0.0,-0.098,-0.1568,-0.1568,-0.2501,-0.3085,-0.3085,-0.3085,-0.3085,-0.3085,-0.3085,-0.3085,-0.3085,-0.4139,-0.4139,-0.3124,-0.5237,-0.6261,-0.63,-0.63,-0.63,-0.63,-0.63,-0.63,-0.63,-0.63,-0.63,-0.63,-0.63,-0.63,-0.63,-0.63,-0.63,-0.63,0.0,0.0,0.0,0.0,0.0,0.0,0.0,0.0,0.0,0.0,0.0,0.0,0.0,0.0,0.0,0.0,0.0,0.0,0.1992,0.2181,0.2347,0.2494,0.2764,0.2876,0.2812,0.3103,0.3485,0.3994,0.391,0.3547,0.2872,0.2062,0.1395,0.0867,0.0276,0.0,0.0,0.0,0.0,0.0,0.0,0.0,0.0,0.0,0.0,0.0,0.0,0.0,0.0,0.0,0.0,0.0,0.0,0.0,0.0,0.0,0.0,0.0,0.0,0.0,0.0,0.0,0.0,0.0,0.0,0.0,0.0,0.0,0.0,0.0,0.0,0.0,0.0,0.0,0.0,0.0,0.0,0.0,0.0,0.0,0.0,0.0,0.0,-0.0275,-0.0471,-0.0471,-0.0745,-0.0901,-0.0901,-0.1644,-0.2035,-0.2035,-0.2735,-0.3085,-0.3085,-0.3435,-0.3396,-0.3124,-0.3748,-0.4453,-0.5198,-0.5944,-0.63,-0.63,-0.63,-0.63,-0.63,-0.63,-0.63,-0.63,-0.63,-0.63,-0.63,-0.63,-0.63,-0.63,0.0,0.0,0.0,0.0,0.0,0.0,0.0,0.0,0.0,0.0,0.0,0.0,0.0,0.0,0.0,0.0,0.0,0.0,0.0,0.0,0.2248,0.2379,0.2659,0.2805,0.2771,0.304,0.334,0.364,0.3768,0.3466,0.2738,0.2121,0.1501,0.0871,0.0,0.0,0.0,0.0,0.0,0.0,0.0,0.0,0.0,0.0,0.0,0.0,0.0,0.0,0.0,0.0,0.0,0.0,0.0,0.0,0.0,0.0,0.0,0.0,0.0,0.0,0.0,0.0,0.0,0.0,0.0,0.0,0.0,0.0,0.0,0.0,0.0,0.0,0.0,0.0,0.0,0.0,0.0,0.0,0.0,0.0,0.0,0.0,0.0,0.0,0.0,0.0,0.0,0.0,0.0,-0.0628,-0.098,-0.098,-0.1566,-0.1877,-0.1877,-0.2306,-0.2306,-0.1878,-0.2695,-0.3242,-0.3519,-0.4572,-0.504,-0.504,-0.504,-0.504,-0.5079,-0.5473,-0.5395,-0.5118,-0.5983,-0.5786,-0.5118,-0.5983,-0.6025,-0.567,0.0,0.0,0.0,0.0,0.0,0.0,0.0,0.0,0.0,0.0,0.0,0.0,0.0,0.0,0.0,0.0,0.0,0.0,0.0,0.0,0.2197,0.2197,0.2537,0.2788,0.2905,0.3139,0.3199,0.3081,0.3185,0.2995,0.2495,0.1844,0.1309,0.0878,0.0,0.0,0.0,0.0,0.0,0.0,0.0,0.0,0.0,0.0,0.0,0.0,0.0,0.0,0.0,0.0,0.0,0.0,0.0,0.0,0.0,0.0,0.0,0.0,0.0,0.0,0.0,0.0,0.0,0.0,0.0,0.0,0.0,0.0,0.0,0.0,0.0,0.0,0.0,0.0,0.0,0.0,0.0,0.0,0.0,0.0,0.0,0.0,0.0,0.0,0.0,0.0,0.0,0.0,0.0,0.0,0.0,0.0,0.0,0.0,0.0,-0.098,-0.098,-0.0039,-0.1916,-0.2345,-0.1489,-0.2579,-0.3085,-0.3085,-0.3085,-0.3085,-0.3163,-0.4139,-0.3984,-0.3279,-0.5237,-0.4805,-0.3318,-0.5276,-0.5392,-0.4569,0.0,0.0,0.0,0.0,0.0,0.0,0.0,0.0,0.0,0.0,0.0,0.0,0.0,0.0,0.0,0.0,0.0,0.0,0.0,0.0,0.2197,0.2197,0.2622,0.2927,0.3054,0.301,0.2969,0.2936,0.286,0.2725,0.0,0.0,0.0,0.0869,0.0,0.0,0.0,0.0,0.0,0.0,0.0,0.0,0.0,0.0,0.0,0.0,0.0,0.0,0.0,0.0,0.0,0.0,0.0,0.0,0.0,0.0,0.0,0.0,0.0,0.0,0.0,0.0,0.0,0.0,0.0,0.0,0.0,0.0,0.0,0.0,0.0,0.0,0.0,0.0,0.0,0.0,0.0,0.0,0.0,0.0,0.0,0.0,0.0,0.0,0.0,0.0,0.0,0.0,0.0,0.0,0.0,0.0,0.0,0.0,0.0,-0.0236,-0.0236,0.0,-0.0471,-0.0549,-0.0392,-0.2267,-0.3085,-0.3085,-0.3085,-0.3085,-0.3124,-0.3357,-0.3318,-0.3163,-0.3593,-0.3513,-0.3163,-0.3632,-0.3632,-0.3435,0.0,0.0,0.0,0.0,0.0,0.0,0.0,0.0,0.0,0.0,0.0,0.0,0.0,0.0,0.0,0.0,0.0,0.0,0.0,0.0,0.2274,0.2427,0.2727,0.291,0.291,0.291,0.2873,0.2801,0.2289,0.0,0.0,0.0,0.0,0.0465,0.0,0.0,0.0,0.0,0.0,0.0,0.0,0.0,0.0,0.0,0.0,0.0,0.0,0.0,0.0,0.0,0.0,0.0,0.0,0.0,0.0,0.0,0.0,0.0,0.0,0.0,0.0,0.0,0.0,0.0,0.0,0.0,0.0,0.0,0.0,0.0,0.0,0.0,0.0,0.0,0.0,0.0,0.0,0.0,0.0,0.0,0.0,0.0,0.0,0.0,0.0,0.0,0.0,0.0,0.0,0.0,0.0,0.0,0.0,0.0,0.0,0.0,0.0,0.0,0.0,0.0,-0.0039,-0.1135,-0.1604,-0.1604,-0.1604,-0.1604,-0.1643,-0.2151,-0.2073,-0.1721,-0.2695,-0.25,-0.1721,-0.2734,-0.2792,-0.2386,0.0,0.0,0.0,0.0,0.0,0.0,0.0,0.0,0.0,0.0,0.0,0.0,0.0,0.0,0.0,0.0,0.0,0.0,0.0,0.2167,0.2355,0.2723,0.2842,0.2862,0.2774,0.2856,0.2849,0.2737,0.0,0.0,0.0,0.0,0.0,0.0,0.0,0.0,0.0,0.0,0.0,0.0,0.0,0.0,0.0,0.0,0.0,0.0,0.0,0.0,0.0,0.0,0.0,0.0,0.0,0.0,0.0,0.0,0.0,0.0,0.0,0.0,0.0,0.0,0.0,0.0,0.0,0.0,0.0,0.0,0.0,0.0,0.0,0.0,0.0,0.0,0.0,0.0,0.0,0.0,0.0,0.0,0.0,0.0,0.0,0.0,0.0,0.0,0.0,0.0,0.0,0.0,0.0,0.0,0.0,0.0,0.0,0.0,0.0,0.0,0.0,0.0,0.0,0.0,0.0,0.0,0.0,0.0,-0.0079,-0.0941,-0.0784,-0.0157,-0.1878,-0.1526,-0.0196,-0.1916,-0.2042,-0.1327,0.0,0.0,0.0,0.0,0.0,0.0,0.0,0.0,0.0,0.0,0.0,0.1803,0.1803,0.1803,0.0,0.0,0.0,0.0,0.185,0.0,0.0,0.2859,0.29,0.2939,0.304,0.2943,0.29,0.2879,0.0,0.0,0.0,0.0,0.0,0.0,0.0,0.0,0.0,0.0,0.0,0.0,0.0,0.0,0.0,0.0,0.0,0.0,0.0,0.0,0.0,0.0,0.0,0.0,0.0,0.0,0.0,0.0,0.0,0.0,0.0,0.0,0.0,0.0,0.0,0.0,0.0,0.0,0.0,0.0,0.0,0.0,0.0,0.0,0.0,0.0,0.0,0.0,0.0,0.0,0.0,0.0,0.0,0.0,0.0,0.0,0.0,0.0,0.0,0.0,0.0,0.0,0.0,0.0,0.0,0.0,0.0,0.0,0.0,0.0,0.0,0.0,0.0,0.0,0.0,0.0,0.0,0.0,0.0,-0.0157,-0.0118,-0.0039,-0.0314,-0.0235,-0.0039,-0.0314,-0.0348,-0.0228,0.0,0.0,0.0,0.0,0.0,0.0,0.0,0.0,0.0,0.0,0.0,0.1803,0.1803,0.1803,0.0,0.0,0.0,0.0,0.1906,0.2191,0.0,0.0,0.2751,0.2812,0.2873,0.2744,0.2713,0.0,0.0,0.0,0.0,0.1065,0.0478,0.0,0.0,0.0,0.0,0.0,0.0,0.0,0.0,0.0,0.0,0.0,0.0,0.0,0.0,0.0,0.0,0.0,0.0,0.0,0.0,0.0,0.0,0.0,0.0,0.0,0.0,0.0,0.0,0.0,0.0,0.0,0.0,0.0,0.0,0.0,0.0,0.0,0.0,0.0,0.0,0.0,0.0,0.0,0.0,0.0,0.0,0.0,0.0,0.0,0.0,0.0,0.0,0.0,0.0,0.0,0.0,0.0,0.0,0.0,0.0,0.0,0.0,0.0,0.0,0.0,0.0,0.0,0.0,0.0,0.0,0.0,0.0,0.0,0.0,0.0,0.0,0.0,0.0,0.0,0.0,0.0,0.0,0.0,0.0,0.0,0.0,0.0,0.0,0.0,0.0,0.0,0.0,0.0,0.0,0.0,0.1806,0.0,0.0,0.0,0.0,0.0,0.1985,0.0,0.0,0.0,0.0,0.2675,0.2696,0.2561,0.0,0.0,0.0,0.0,0.2751,0.1693,0.1379,0.0,0.0494,0.0,0.0,0.0,0.0,0.0,0.0,0.0,0.0,0.0,0.0,0.0,0.0,0.0,0.0,0.0,0.0,0.0,0.0,0.0,0.0,0.0,0.0,0.0,0.0,0.0,0.0,0.0,0.0,0.0,0.0,0.0,0.0,0.0,0.0,0.0,0.0,0.0,0.0,0.0,0.0,0.0,0.0,0.0,0.0,0.0,0.0,0.0,0.0,0.0,0.0,0.0,0.0,0.0,0.0,0.0,0.0,0.0,0.0,0.0,0.0,0.0,0.0,0.0,0.0,0.0,0.0,0.0,0.0,0.0,0.0,0.0,0.0,0.0,0.0,0.0,0.0,0.0,0.0,0.0,0.0,0.0,0.0,0.0,0.0,0.0,0.0,0.0,0.0,0.0,0.0,0.0,0.0,0.0,0.0,0.0,0.0,0.0,0.0,0.0,0.0,0.0,0.0,0.0,0.0,0.0,0.0,0.2561,0.0,0.0,0.0,0.0,0.3537,0.2902,0.2836,0.3191,0.0968,0.0,0.0,0.0,0.0,0.0,0.0,0.0,0.0,0.0,0.0,0.0,0.0,0.0,0.0,0.0,0.0,0.0,0.0,0.0,0.0,0.0,0.0,0.0,0.0,0.0,0.0,0.0,0.0,0.0,0.0,0.0,0.0,0.0,0.0,0.0,0.0,0.0,0.0,0.0,0.0,0.0,0.0,0.0,0.0,0.0,0.0,0.0,0.0,0.0,0.0,0.0,0.0,0.0,0.0,0.0,0.0,0.0,0.0,0.0,0.0,0.0,0.0,0.0,0.0,0.0,0.0,0.0,0.0,0.0,0.0,0.0,0.0,0.0,0.0,0.0,0.0,0.0,0.0,0.0,0.0,0.0,0.0,0.0,0.0,0.0,0.0,0.0,0.0,0.0,0.0,0.0,0.0,0.0,0.0,0.2022,0.1987,0.1933,0.0,0.0,0.0,0.0,0.0,0.0,0.0,0.0,0.0,0.0,0.0,0.0,0.0,0.2683,0.3266,0.2663,0.267,0.3159,0.1857,0.1332,0.1392,0.1224,0.0,0.0,0.0,0.0,0.0,0.0716,0.0995,0.1412,0.141,0.0,0.0,0.0,0.0,0.0,0.0,0.0,0.0,0.0,0.0,0.0,0.0,0.0,0.0,0.0,0.0,0.0,0.0,0.0,0.0,0.0,0.0,0.0,0.0,0.0,0.0,0.0,0.0,0.0,0.0,0.0,0.0,0.0,0.0,0.0,0.0,0.0,0.0,0.0,0.0,0.0,0.0,0.0,0.0,0.0,0.0,0.0,0.0,0.0,0.0,0.0,0.0,0.0,0.0,0.0,0.0,0.0,0.0,0.0,0.0,0.0,0.0,0.0,0.0,0.0,0.0,0.0,0.0,0.0,0.0,0.0,0.0,0.0,0.0,0.0,0.0,0.0,0.0,0.201,0.0,0.0,0.0,0.0,0.214,0.2076,0.1947,0.187,0.187,0.0,0.0,0.0,0.0,0.0,0.0,0.0,0.0,0.0,0.0,0.0,0.0,0.266,0.2808,0.33,0.2711,0.235,0.0,0.0,0.0,0.1117,0.0,0.0,0.1142,0.1451,0.1819,0.2199,0.2285,0.0,0.0,0.0,0.0,0.0,0.0618,0.0427,0.0235,0.0235,0.0125,0.0,0.0,0.0,0.0,0.0,0.0,0.0,0.0,0.0,0.0,0.0,0.0,0.0,0.0,0.0,0.0,0.0,0.0,0.0,0.0,0.0,0.0,0.0,0.0,0.0,0.0,0.0,0.0,0.0,0.0,0.0,0.0,0.0,0.0,0.0,0.0,0.0,0.0,0.0,0.0,0.0,0.0,0.0,0.0,0.0,0.0,0.0,0.0,0.0,0.0,0.0,0.0,0.0,0.0,0.0,0.0,0.0,0.0,0.0,0.0,0.0,0.0,0.0,0.0,0.0,0.0,0.0,0.2018,0.2009,0.0,0.0,0.0,0.0,0.0,0.2231,0.2096,0.2009,0.2005,0.1891,0.0,0.0,0.0,0.0,0.0,0.0,0.0,0.0,0.0,0.0,0.0,0.0,0.3347,0.3768,0.3455,0.2913,0.2235,0.0,0.1805,0.121,0.0,0.1788,0.1279,0.0,0.2416,0.2312,0.2506,0.2421,0.0,0.2244,0.0,0.0,0.1845,0.1318,0.0726,0.0724,0.0403,0.0,0.0,0.0,0.0,0.0,0.0,0.0,0.0,0.0,0.0,0.0,0.0,0.0,0.0,0.0,0.0,0.0,0.0,0.0,0.0,0.0,0.0,0.0,0.0,0.0,0.0,0.0,0.0,0.0,0.0,0.0,0.0,0.0,0.0,0.0,0.0,0.0,0.0,0.0,0.0,0.0,0.0,0.0,0.0,0.0,0.0,0.0,0.0,0.0,0.0,0.0,0.0,0.0,0.0,0.0,0.0,0.0,0.0,0.0,0.0,0.0,0.0,0.0,0.0,0.3146,0.2591,0.2511,0.2473,0.0,0.0,0.0,0.2561,0.2611,0.2589,0.2434,0.2383,0.23,0.2154,0.2107,0.2184,0.2414,0.2424,0.2498,0.2692,0.0,0.0,0.0,0.0,0.0,0.2613,0.2747,0.3042,0.0,0.3388,0.3305,0.3205,0.2959,0.0,0.2559,0.256,0.2709,0.0,0.0,0.0,0.0,0.0,0.3851,0.333,0.0,0.283,0.2305,0.0,0.0,0.0,0.1385,0.0,0.0,0.065,0.0,0.0,0.0,0.0,0.0,0.0,0.0,0.0,0.0,0.0,0.0,0.0,0.0,0.0,0.0,0.0,0.0,0.0,0.0,0.0,0.0,0.0,0.0,0.0,0.0,0.0,0.0,0.0,0.0,0.0,0.0,0.0,0.0,0.0,0.0,0.0,0.0,0.0,0.0,0.0,0.0,0.0,0.0,0.0,0.0,0.0,0.0,0.0,0.0,0.0,0.0,0.0,0.0,0.0,0.0,0.0,0.0,0.0,0.0,0.0,0.0,0.0,0.3816,0.3529,0.3299,0.3127,0.0,0.0,0.0,0.2862,0.292,0.2896,0.2761,0.2651,0.2529,0.2413,0.2278,0.2289,0.2491,0.2498,0.2555,0.2692,0.2627,0.2506,0.2327,0.2327,0.2385,0.2501,0.2575,0.2795,0.3122,0.3119,0.3211,0.3368,0.3066,0.0,0.0,0.3402,0.0,0.0,0.4073,0.4494,0.0,0.0,0.0,0.4234,0.4155,0.3723,0.0,0.0,0.0,0.0,0.2026,0.0,0.0,0.0,0.0,0.0,0.0,0.0,0.0,0.0455,0.0371,0.0,0.0,0.0,0.0,0.0,0.0,0.0,0.0,0.0,0.0,0.0,0.0,0.0,0.0,0.0,0.0,0.0,0.0,0.0,0.0,0.0,0.0,0.0,0.0,0.0,0.0,0.0,0.0,0.0,0.0,0.0,0.0,0.0,0.0,0.0,0.0,0.0,0.0,0.0,0.0,0.0,0.0,0.0,0.0,0.0,0.0,0.0,0.0,0.0,0.0,0.0,0.0,0.4647,0.4421,0.4306,0.4298,0.4436,0.4037,0.3738,0.0,0.3407,0.3165,0.3199,0.3273,0.3286,0.3185,0.291,0.2747,0.2747,0.2437,0.2329,0.2518,0.2522,0.2575,0.2692,0.2696,0.2637,0.2498,0.2498,0.2498,0.2498,0.2498,0.264,0.2876,0.2761,0.2825,0.304,0.288,0.0,0.3053,0.4063,0.4174,0.0,0.0,0.4966,0.4986,0.5079,0.5042,0.4965,0.4918,0.4624,0.0,0.0,0.0,0.0,0.0,0.2536,0.0,0.0,0.0,0.0,0.0,0.0,0.0,0.1145,0.0966,0.0795,0.0,0.0144,0.0116,0.018,0.0152,0.0092,0.0091,0.0031,0.0,0.0,0.0,0.0,0.0,0.0,0.0,0.0,0.0,0.0,0.0,0.0,0.0,0.0,0.0,0.0,0.0,0.0,0.0,0.0,0.0,0.0,0.0,0.0,0.0,0.0,0.0,0.0,0.0,0.0,0.0,0.0,0.0,0.0,0.0,0.0,0.0,0.0,0.0,0.0,0.0,0.0,0.5294,0.5231,0.4389,0.44,0.4323,0.3735,0.3407,0.334,0.3602,0.3555,0.3581,0.3795,0.3659,0.3568,0.3653,0.3276,0.3017,0.3017,0.2757,0.2624,0.2652,0.2652,0.2669,0.2696,0.2696,0.2637,0.2498,0.2498,0.2498,0.2498,0.2498,0.2582,0.274,0.2713,0.273,0.2812,0.0,0.0,0.3429,0.308,0.3624,0.4618,0.4207,0.4572,0.531,0.5341,0.5334,0.5289,0.5131,0.4844,0.4568,0.0,0.0,0.0,0.3635,0.3596,0.3517,0.2887,0.0,0.0,0.0,0.0,0.0,0.1712,0.1326,0.1142,0.0,0.107,0.0881,0.1356,0.1044,0.0735,0.0717,0.0325,0.0,0.0,0.0,0.0,0.0,0.0,0.0,0.0,0.0,0.0,0.0,0.0,0.0,0.0,0.0,0.0,0.0,0.0,0.0,0.0,0.0,0.0,0.0,0.0,0.0,0.0,0.0,0.0,0.0,0.0,0.0,0.0,0.0,0.0,0.0,0.0,0.0,0.0,0.0,0.0,0.0,0.0,0.5411,0.5359,0.4921,0.4842,0.4795,0.4625,0.4258,0.4047,0.4218,0.4054,0.3917,0.3987,0.3933,0.388,0.3799,0.352,0.3286,0.3111,0.2917,0.2778,0.2699,0.2696,0.2733,0.2795,0.2737,0.2696,0.2696,0.2637,0.2599,0.2599,0.2599,0.2703,0.2896,0.2825,0.2876,0.0,0.0,0.348,0.3701,0.37,0.0,0.488,0.4676,0.4927,0.5395,0.5395,0.5395,0.5361,0.5101,0.4941,0.0,0.4586,0.4518,0.4479,0.0,0.4153,0.4224,0.3698,0.0,0.0,0.3221,0.0,0.0,0.0,0.2205,0.2003,0.199,0.1656,0.146,0.1822,0.165,0.1437,0.1441,0.0943,0.0662,0.0962,0.0408,0.0,0.0,0.0,0.0,0.0,0.0,0.0,0.0,0.0,0.0,0.0,0.0,0.0,0.0,0.0,0.0,0.0,0.0,0.0,0.0,0.0,0.0,0.0,0.0,0.0,0.0,0.0,0.0,0.0,0.0,0.0,0.0,0.0,0.0,0.0,0.0,0.0,0.0,0.0,0.5388,0.5474,0.5457,0.5418,0.5443,0.5591,0.5242,0.489,0.4782,0.448,0.426,0.4136,0.4206,0.4186,0.0,0.3795,0.3527,0.3286,0.306,0.2907,0.2815,0.2744,0.2781,0.2929,0.2774,0.2757,0.2866,0.2757,0.2696,0.2696,0.2696,0.2822,0.3057,0.0,0.0,0.0,0.0,0.0,0.3938,0.0,0.4874,0.4877,0.5042,0.5183,0.5354,0.5385,0.5395,0.5358,0.5084,0.5081,0.5108,0.4743,0.4762,0.0,0.0,0.0,0.468,0.0,0.0,0.0,0.0,0.0,0.4121,0.0,0.0,0.0,0.2599,0.2276,0.0,0.0,0.0,0.0,0.0,0.0,0.0,0.0,0.1065,0.0,0.0183,0.0061,0.0,0.0,0.0,0.0,0.0,0.0,0.0,0.0,0.0,0.0,0.0,0.0,0.0,0.0,0.0,0.0,0.0,0.0,0.0,0.0,0.0,0.0,0.0,0.0,0.0,0.0,0.0,0.0,0.0,0.0,0.0,0.0,0.0,0.0,0.0,0.5289,0.5734,0.5943,0.5413,0.5939,0.6108,0.5138,0.5046,0.4882,0.4358,0.4494,0.4633,0.4616,0.4539,0.0,0.0,0.4161,0.3812,0.3886,0.3381,0.3128,0.3229,0.2893,0.2812,0.3071,0.2822,0.2706,0.2723,0.2706,0.2696,0.2696,0.2696,0.2788,0.2919,0.303,0.0,0.0,0.0,0.3876,0.0,0.4575,0.4718,0.0,0.4159,0.4475,0.5143,0.5344,0.5395,0.5388,0.0,0.5354,0.5337,0.0,0.5046,0.5039,0.4864,0.0,0.0,0.0,0.0,0.0,0.0,0.4566,0.4506,0.4006,0.0,0.3424,0.3732,0.0,0.0,0.0,0.0,0.0,0.0,0.0,0.0,0.1834,0.1783,0.1521,0.088,0.0333,0.0,0.0,0.0,0.0,0.0,0.0,0.0,0.0,0.0,0.0,0.0,0.0,0.0,0.0,0.0,0.0,0.0,0.0,0.0,0.0,0.0,0.0,0.0,0.0,0.0,0.0,0.0,0.0,0.0,0.0,0.0,0.0,0.0,0.0,0.0,0.4931,0.4966,0.0,0.4504,0.473,0.4852,0.4436,0.4655,0.4749,0.4429,0.4558,0.4724,0.4813,0.4687,0.0,0.0,0.0,0.4134,0.4001,0.37,0.0,0.3483,0.3199,0.3108,0.3209,0.2946,0.2812,0.2812,0.274,0.2696,0.2696,0.2696,0.2918,0.3297,0.3246,0.0,0.3992,0.0,0.4024,0.0,0.0,0.4586,0.0,0.47,0.4967,0.5274,0.5371,0.5395,0.5382,0.5257,0.5287,0.0,0.0,0.0,0.0,0.5052,0.0,0.0,0.0,0.0,0.0,0.0,0.0,0.0,0.4341,0.4072,0.3957,0.0,0.0,0.0,0.0,0.0,0.0,0.0,0.2973,0.0,0.0,0.0,0.1677,0.0,0.0,0.0,0.0567,0.0196,0.0,0.0,0.0,0.0,0.0,0.0,0.0,0.0,0.0,0.0,0.0,0.0,0.0,0.0,0.0,0.0,0.0,0.0,0.0,0.0,0.0,0.0,0.0,0.0,0.0,0.0,0.0,0.0,0.0,0.0,0.0,0.0,0.4912,0.0,0.0,0.428,0.4414,0.4514,0.4371,0.4528,0.4631,0.4563,0.466,0.4826,0.502,0.4942,0.0,0.0,0.4843,0.4555,0.4311,0.4066,0.3887,0.3849,0.3558,0.3408,0.3427,0.3121,0.2929,0.2892,0.2774,0.272,0.2761,0.2761,0.3041,0.3539,0.3462,0.3792,0.4392,0.0,0.425,0.4466,0.4562,0.4665,0.4781,0.518,0.5358,0.5399,0.5443,0.5457,0.5446,0.5338,0.5389,0.5494,0.5348,0.5365,0.5436,0.0,0.0,0.0,0.5067,0.0,0.0,0.0,0.4755,0.4704,0.4535,0.4412,0.4358,0.0,0.0,0.0,0.0,0.0,0.0,0.0,0.0,0.3304,0.0,0.2774,0.0,0.0,0.0,0.0,0.0,0.0494,0.0184,0.0,0.0,0.0,0.0,0.0,0.0,0.0,0.0,0.0,0.0,0.0,0.0,0.0,0.0,0.0,0.0,0.0,0.0,0.0,0.0,0.0,0.0,0.0,0.0,0.0,0.0,0.0,0.0,0.0,0.0,0.0,0.5467,0.5832,0.0,0.0,0.5945,0.624,0.5392,0.4823,0.4549,0.4663,0.4816,0.5023,0.5347,0.5375,0.5491,0.0,0.5332,0.5073,0.5063,0.4527,0.4267,0.4457,0.3904,0.3658,0.3775,0.332,0.3027,0.2892,0.2774,0.2774,0.2903,0.2903,0.3085,0.0,0.3675,0.393,0.421,0.4392,0.4701,0.5059,0.4928,0.5077,0.5351,0.0,0.5233,0.5416,0.5532,0.5583,0.5603,0.5735,0.5783,0.5786,0.5783,0.5688,0.5583,0.0,0.0,0.0,0.5382,0.5382,0.531,0.4986,0.4881,0.4833,0.4559,0.46,0.4636,0.4518,0.46,0.0,0.0,0.0,0.0,0.0,0.0,0.0,0.0,0.0,0.0,0.0,0.0,0.0,0.0,0.088,0.0641,0.0,0.0,0.0,0.0,0.0,0.0,0.0,0.0,0.0,0.0,0.0,0.0,0.0,0.0,0.0,0.0,0.0,0.0,0.0,0.0,0.0,0.0,0.0,0.0,0.0,0.0,0.0,0.0,0.0,0.0,0.0,0.0,0.0,0.0,0.0,0.0,0.5835,0.5375,0.532,0.5235,0.4879,0.4938,0.5209,0.561,0.5569,0.5633,0.5925,0.5637,0.5433,0.5433,0.4938,0.4726,0.4897,0.4311,0.4018,0.4065,0.3724,0.3446,0.3241,0.3147,0.3077,0.303,0.0,0.0,0.0,0.0,0.407,0.0,0.0,0.0,0.0,0.0,0.5389,0.5637,0.5491,0.5467,0.5566,0.5677,0.5728,0.5739,0.5786,0.58,0.58,0.58,0.5769,0.5711,0.5616,0.562,0.5633,0.5573,0.5583,0.5583,0.5317,0.5135,0.4951,0.468,0.4653,0.4675,0.4522,0.461,0.4672,0.0,0.0,0.0,0.0,0.0,0.0,0.0,0.0,0.0,0.0,0.0,0.0,0.0,0.0,0.0,0.12,0.1267,0.1142,0.0752,0.0727,0.0504,0.0028,0.0,0.0,0.0,0.0,0.0,0.0,0.0,0.0,0.0,0.0,0.0,0.0,0.0,0.0,0.0,0.0,0.0,0.0,0.0,0.0,0.0,0.0,0.0,0.0,0.7041,0.0,0.0,0.0,0.5102,0.5141,0.5042,0.5375,0.5528,0.5198,0.5295,0.5568,0.5996,0.5959,0.6003,0.6247,0.6044,0.5861,0.5752,0.5423,0.5226,0.5213,0.4766,0.451,0.4459,0.4109,0.3805,0.355,0.3456,0.3333,0.3162,0.0,0.0,0.0,0.0,0.4148,0.4644,0.4724,0.4975,0.0,0.0,0.5633,0.0,0.5759,0.5711,0.5684,0.583,0.5881,0.5891,0.5945,0.5962,0.5962,0.5962,0.5925,0.5864,0.5772,0.5772,0.5783,0.5691,0.5732,0.5742,0.5535,0.5369,0.5203,0.4853,0.4809,0.4789,0.4614,0.4651,0.4677,0.0,0.0,0.0,0.0,0.0,0.0,0.0,0.3151,0.0,0.0,0.0,0.0,0.0,0.0,0.19,0.1814,0.1824,0.0,0.0,0.1222,0.0895,0.042,0.0392,0.0256,0.0,0.0265,0.0273,0.0,0.0,0.0,0.0,0.0,0.0,0.0,0.0,0.0,0.0,0.0,0.0,0.0,0.0,0.0,0.0,0.0,0.0,0.0,0.7872,0.7699,0.7055,0.5629,0.4832,0.4457,0.4625,0.5129,0.551,0.5614,0.5857,0.6152,0.6491,0.6521,0.6542,0.6688,0.6566,0.6363,0.6043,0.5905,0.5691,0.545,0.5237,0.5052,0.4924,0.4483,0.4109,0.3836,0.3703,0.3524,0.3333,0.0,0.0,0.0,0.3887,0.0,0.4508,0.4789,0.5182,0.5613,0.5766,0.5823,0.584,0.5949,0.5952,0.5844,0.5952,0.6003,0.6027,0.6248,0.63,0.63,0.63,0.6159,0.6003,0.5993,0.5932,0.5823,0.5817,0.582,0.5789,0.5647,0.5606,0.5484,0.505,0.5026,0.5039,0.4772,0.4718,0.4762,0.4887,0.0,0.0,0.0,0.0,0.0,0.0,0.0,0.0,0.0,0.0,0.0,0.0,0.0,0.2149,0.1889,0.1752,0.0,0.0,0.1504,0.117,0.1146,0.1146,0.0823,0.0117,0.0791,0.0817,0.0129,0.0129,0.0098,0.0067,0.0067,0.0034,0.0,0.0,0.0,0.0,0.0,0.0,0.0,0.0,0.0,0.0,0.0,0.0,0.0,0.8268,0.8024,0.7497,0.658,0.6917,0.7154,0.6664,0.6704,0.6563,0.5839,0.601,0.6312,0.661,0.6644,0.6658,0.6698,0.6664,0.661,0.6532,0.6179,0.5989,0.6064,0.5597,0.5338,0.5416,0.4948,0.4624,0.446,0.409,0.3829,0.3676,0.0,0.0,0.0,0.0,0.0,0.4508,0.4789,0.524,0.5769,0.6074,0.618,0.6187,0.6224,0.6214,0.6187,0.6228,0.6242,0.6245,0.6286,0.63,0.63,0.63,0.6272,0.6179,0.6027,0.6084,0.6156,0.6003,0.6054,0.6146,0.5956,0.583,0.5688,0.5467,0.5443,0.5386,0.5049,0.5108,0.5129,0.4802,0.4684,0.0,0.0,0.0,0.0,0.0,0.0,0.0,0.3474,0.0,0.0,0.0,0.0,0.294,0.2777,0.2969,0.0,0.2825,0.2583,0.2276,0.1921,0.1925,0.1821,0.164,0.1809,0.19,0.1868,0.1868,0.1534,0.0973,0.0973,0.0605,0.0,0.0,0.0,0.0,0.0,0.0,0.0,0.0,0.0,0.0,0.0,0.0,0.0,0.8704,0.8806,0.862,0.7806,0.8722,0.8997,0.7356,0.6857,0.6485,0.6059,0.6303,0.6515,0.6681,0.6814,0.6892,0.6892,0.6892,0.6837,0.6709,0.6525,0.6403,0.6395,0.6006,0.5832,0.5917,0.5376,0.0,0.4792,0.4402,0.4066,0.3788,0.0,0.0,0.0,0.0,0.4126,0.4406,0.4972,0.544,0.5827,0.6177,0.63,0.0,0.63,0.63,0.63,0.63,0.63,0.63,0.63,0.63,0.63,0.63,0.63,0.6282,0.6156,0.6193,0.6279,0.6156,0.6196,0.6279,0.6152,0.6067,0.5945,0.5732,0.5633,0.5521,0.5281,0.5199,0.5131,0.5037,0.4853,0.4619,0.0,0.0,0.0,0.0,0.0,0.0,0.0,0.3463,0.0,0.0,0.304,0.3128,0.3104,0.328,0.0,0.0,0.312,0.2857,0.259,0.2684,0.2565,0.2202,0.2508,0.2625,0.2489,0.2489,0.2282,0.1909,0.1909,0.1642,0.1176,0.1176,0.0941,0.0572,0.0572,0.0337,0.0,0.0,0.0,0.0,0.0,0.0,0.0,0.9171,0.9744,0.991,0.9114,1.004,1.0089,0.7759,0.6884,0.6574,0.6778,0.7057,0.7212,0.7212,0.7285,0.7316,0.7316,0.7183,0.6987,0.6773,0.6865,0.681,0.6546,0.6433,0.6347,0.6327,0.5754,0.5306,0.4979,0.4613,0.4249,0.3822,0.0,0.0,0.0,0.0,0.0,0.0,0.5233,0.5671,0.5827,0.6177,0.63,0.63,0.63,0.63,0.63,0.63,0.63,0.63,0.63,0.63,0.63,0.63,0.63,0.63,0.63,0.63,0.63,0.63,0.63,0.63,0.63,0.63,0.6228,0.5922,0.5749,0.5603,0.5484,0.5199,0.5074,0.5324,0.501,0.0,0.0,0.0,0.0,0.0,0.0,0.0,0.0,0.0,0.0,0.0,0.0,0.0,0.0,0.0,0.0,0.0,0.0,0.3198,0.3284,0.346,0.3204,0.2508,0.3163,0.3271,0.2828,0.2837,0.2862,0.2878,0.2878,0.2811,0.2711,0.2711,0.2242,0.1474,0.134,0.0772,0.0,0.0135,0.0101,0.0,0.0,0.0,0.0,0.9586,1.011,0.0,0.0,1.0074,1.0178,0.9977,1.0019,0.996,0.9567,0.9768,0.9895,0.9895,0.9104,0.8584,0.8584,0.7665,0.7075,0.7021,0.6933,0.6862,0.6851,0.6705,0.6566,0.6477,0.5966,0.5579,0.5317,0.4613,0.4153,0.395,0.0,0.0,0.0,0.0,0.0,0.4806,0.5365,0.0,0.5827,0.6177,0.63,0.63,0.63,0.63,0.63,0.63,0.63,0.63,0.63,0.63,0.63,0.63,0.63,0.63,0.63,0.63,0.63,0.63,0.63,0.63,0.63,0.63,0.6286,0.6231,0.6061,0.5908,0.5755,0.5589,0.541,0.5209,0.4908,0.4633,0.0,0.0,0.0,0.0,0.0,0.0,0.0,0.0,0.3578,0.0,0.0,0.0,0.0,0.0,0.0,0.3727,0.0,0.3748,0.4242,0.4281,0.4236,0.4098,0.433,0.4474,0.4488,0.4597,0.4341,0.3782,0.3782,0.338,0.2711,0.2711,0.2611,0.241,0.1608,0.0772,0.0067,0.0806,0.0638,0.0,0.0,0.0,0.0,1.0361,0.0,0.0,0.0,1.0988,1.1521,1.1474,1.2221,1.2181,1.0435,0.9764,0.9466,0.9466,0.9112,0.8627,0.8017,0.8017,0.7753,0.7139,0.7034,0.6994,0.6994,0.6856,0.6783,0.6712,0.6268,0.5893,0.5515,0.4887,0.4372,0.0,0.0,0.0,0.0,0.0,0.4538,0.0,0.0,0.5718,0.5939,0.6207,0.63,0.63,0.63,0.63,0.63,0.63,0.63,0.63,0.63,0.63,0.63,0.63,0.63,0.63,0.63,0.63,0.63,0.63,0.63,0.63,0.63,0.63,0.63,0.63,0.6081,0.5891,0.5817,0.5627,0.5403,0.514,0.4924,0.4758,0.4634,0.4542,0.0,0.0,0.0,0.0,0.0,0.0,0.0,0.0,0.0,0.0,0.0,0.0,0.3081,0.3516,0.3643,0.3894,0.4338,0.445,0.4491,0.4491,0.4641,0.4769,0.4891,0.5032,0.498,0.4722,0.4722,0.4486,0.4084,0.4084,0.3816,0.3311,0.241,0.1776,0.1443,0.1876,0.1776,0.141,0.141,0.141,0.1276,1.1256,1.1503,0.0,1.1217,1.2215,1.2982,1.2731,1.3788,1.3702,1.1144,0.9976,0.9266,0.9014,0.8962,0.8548,0.7624,0.812,0.8233,0.7533,0.7228,0.7228,0.7492,0.7118,0.6916,0.6886,0.6519,0.6122,0.5633,0.5155,0.4643,0.4111,0.0,0.0,0.0,0.0,0.0,0.5199,0.5504,0.5786,0.6006,0.6238,0.63,0.63,0.63,0.63,0.63,0.63,0.63,0.63,0.63,0.63,0.63,0.63,0.63,0.63,0.63,0.63,0.63,0.63,0.63,0.63,0.63,0.63,0.63,0.63,0.6061,0.58,0.58,0.5603,0.5347,0.5127,0.5009,0.4904,0.4721,0.4617,0.0,0.0,0.0,0.0,0.0,0.0,0.0,0.3371,0.0,0.0,0.0,0.0,0.3034,0.334,0.3566,0.3842,0.4184,0.4358,0.4443,0.4443,0.4629,0.4799,0.4891,0.5063,0.5243,0.5395,0.5395,0.5395,0.5395,0.5395,0.4855,0.3949,0.348,0.3045,0.2711,0.2911,0.2878,0.2711,0.2711,0.2711,0.2511,1.2131,0.0,1.2719,1.2916,1.3527,1.3981,1.3951,1.4499,1.443,1.2929,1.2642,1.2141,1.0965,0.9791,0.9041,0.8902,0.7923,0.7665,0.8671,0.7709,0.7577,0.8671,0.765,0.7018,0.6889,0.6617,0.623,0.5783,0.5203,0.4748,0.4443,0.4131,0.4141,0.444,0.4735,0.505,0.5392,0.5654,0.5878,0.6006,0.6238,0.63,0.63,0.63,0.63,0.63,0.63,0.63,0.63,0.63,0.63,0.63,0.63,0.63,0.63,0.63,0.63,0.63,0.63,0.63,0.63,0.63,0.63,0.63,0.63,0.6061,0.58,0.58,0.5603,0.5347,0.5127,0.509,0.4985,0.4735,0.4677,0.4644,0.0,0.0,0.4358,0.4008,0.0,0.0,0.0,0.3017,0.0,0.0,0.29,0.31,0.3559,0.3431,0.3608,0.4177,0.4207,0.4214,0.4214,0.4658,0.4874,0.4891,0.5206,0.5382,0.5395,0.5395,0.5395,0.5395,0.5395,0.4855,0.4048,0.4821,0.4184,0.2778,0.358,0.338,0.2711,0.2711,0.2711,0.2678,1.3353,1.3327,1.3434,1.3915,1.4048,1.4269,1.479,1.5077,1.4812,1.369,1.3303,1.2933,1.2427,1.1197,1.014,0.9409,0.8756,0.8318,0.8001,0.7548,0.7461,0.7801,0.736,0.7068,0.7014,0.6851,0.6525,0.6115,0.5654,0.5203,0.4731,0.4521,0.4535,0.4755,0.5148,0.5484,0.5776,0.5986,0.6213,0.6437,0.6498,0.6525,0.6525,0.6525,0.6525,0.6525,0.6525,0.6525,0.6512,0.646,0.6371,0.63,0.63,0.63,0.63,0.63,0.63,0.63,0.63,0.63,0.63,0.63,0.63,0.63,0.63,0.6061,0.58,0.58,0.5603,0.5375,0.5281,0.5192,0.5032,0.486,0.4752,0.4665,0.0,0.0,0.0,0.4156,0.0,0.0,0.0,0.0,0.0,0.0,0.0,0.2908,0.3458,0.3473,0.3657,0.4072,0.4284,0.4308,0.4197,0.4665,0.4887,0.4891,0.5252,0.5395,0.5395,0.5395,0.5395,0.5395,0.5395,0.5193,0.4855,0.5259,0.499,0.435,0.4722,0.4619,0.4317,0.4317,0.4317,0.4317,1.4309,1.4175,1.4215,1.4759,1.4736,1.481,1.5431,1.5524,1.5257,1.4536,1.4182,1.3673,1.2881,1.1976,1.091,0.9699,0.9465,0.8969,0.8031,0.7664,0.7549,0.7697,0.769,0.7491,0.7095,0.73,0.7079,0.6429,0.6084,0.5698,0.5208,0.5087,0.5101,0.5228,0.5627,0.5925,0.6169,0.6325,0.6512,0.6702,0.6702,0.6702,0.6702,0.6702,0.6702,0.6702,0.6702,0.6702,0.6685,0.6576,0.6511,0.6416,0.6327,0.63,0.63,0.63,0.63,0.63,0.63,0.63,0.63,0.63,0.63,0.63,0.63,0.6061,0.5776,0.5691,0.5539,0.5395,0.5395,0.5237,0.5052,0.4911,0.4792,0.4665,0.4511,0.4491,0.0,0.0,0.4048,0.391,0.3802,0.3462,0.0,0.0,0.0,0.2997,0.3539,0.3524,0.369,0.4048,0.429,0.4372,0.4284,0.4688,0.4911,0.4955,0.5272,0.5395,0.5395,0.5395,0.5395,0.5395,0.5395,0.5395,0.5395,0.5395,0.5395,0.5395,0.5395,0.5395,0.5395,0.5395,0.5395,0.5395,1.4881,1.4995,1.513,1.5712,1.5764,1.5764,1.5771,1.5778,1.5778,1.5778,1.5778,1.4794,1.2178,1.1786,1.1181,0.9901,0.9631,0.9427,0.9296,0.8239,0.803,0.9025,0.9062,0.8442,0.7143,0.8146,0.8014,0.6695,0.6439,0.6173,0.5976,0.5861,0.5871,0.5986,0.6183,0.6371,0.6518,0.663,0.6698,0.6702,0.6702,0.6702,0.6702,0.6702,0.6702,0.6702,0.6702,0.6702,0.6702,0.6698,0.6698,0.6644,0.6392,0.63,0.63,0.63,0.63,0.63,0.63,0.63,0.63,0.63,0.63,0.63,0.63,0.6061,0.5718,0.546,0.5395,0.5395,0.5395,0.5237,0.5052,0.4911,0.4792,0.4665,0.4511,0.4491,0.0,0.4214,0.3954,0.3792,0.3792,0.3385,0.0,0.0,0.0,0.3559,0.3964,0.3547,0.3581,0.4174,0.4197,0.4291,0.4487,0.4765,0.4958,0.51,0.5287,0.5395,0.5395,0.5395,0.5395,0.5395,0.5395,0.5395,0.5395,0.5395,0.5395,0.5395,0.5395,0.5395,0.5395,0.5395,0.5395,0.5395,1.5518,1.5558,1.5611,1.5751,1.5784,1.5784,1.5784,1.5784,1.5784,1.5784,1.5784,1.5486,1.4663,1.376,1.3034,1.2645,1.172,1.0714,0.9729,0.9302,0.88,0.8127,0.8073,0.8275,0.871,0.8147,0.7981,0.8322,0.7154,0.6434,0.6186,0.6237,0.6285,0.6339,0.6491,0.6644,0.6787,0.6834,0.6869,0.6957,0.6957,0.6957,0.6957,0.6957,0.6957,0.6957,0.6957,0.6957,0.6943,0.6846,0.6858,0.682,0.6624,0.6559,0.6539,0.6474,0.6446,0.6422,0.6327,0.63,0.63,0.63,0.63,0.63,0.63,0.6061,0.5745,0.5555,0.5467,0.5395,0.5395,0.5237,0.5052,0.4911,0.4792,0.4665,0.4511,0.4491,0.447,0.4399,0.4222,0.4078,0.4078,0.3785,0.0,0.0,0.0,0.3543,0.3846,0.3805,0.3869,0.4062,0.4362,0.4521,0.4491,0.486,0.5056,0.51,0.532,0.5395,0.5395,0.5395,0.5395,0.5395,0.5395,0.5395,0.5395,0.5395,0.5395,0.5395,0.5395,0.5395,0.5395,0.5395,0.5395,0.5395,1.5784,1.5784,1.5784,1.5784,1.5784,1.5784,1.5784,1.5784,1.5784,1.5784,1.5784,1.5784,1.5784,1.5099,1.4411,1.3926,1.3151,1.2078,1.0692,1.0158,0.9456,0.8481,0.8335,0.8443,0.8792,0.8824,0.8985,0.9263,0.8186,0.7326,0.6593,0.6681,0.6722,0.6725,0.6824,0.6876,0.6964,0.6964,0.7014,0.7095,0.7095,0.7095,0.7095,0.7095,0.7095,0.7095,0.7095,0.7095,0.7082,0.6994,0.6964,0.695,0.6895,0.6865,0.6824,0.6617,0.6559,0.6494,0.6405,0.634,0.63,0.63,0.63,0.6282,0.6186,0.5983,0.5762,0.562,0.5501,0.5395,0.5395,0.5237,0.5052,0.4911,0.4792,0.4665,0.4511,0.4491,0.447,0.0,0.4277,0.4174,0.4142,0.4014,0.3977,0.4072,0.0,0.3897,0.4058,0.3975,0.4036,0.4267,0.4545,0.4697,0.4714,0.4961,0.5127,0.5216,0.5347,0.5395,0.5395,0.5395,0.5395,0.5395,0.5395,0.5395,0.5395,0.5395,0.5395,0.5395,0.5395,0.5395,0.5395,0.5395,0.5395,0.5395,1.5784,1.5784,1.5784,1.5784,1.5784,1.5784,1.5784,1.5784,1.5784,1.5784,1.5784,1.5784,1.5784,1.5784,1.5343,1.4118,1.4022,1.344,1.2139,1.0925,1.0112,0.9836,0.9644,0.9001,0.7773,0.993,1.0556,0.952,0.949,0.869,0.7258,0.7258,0.7214,0.7129,0.7115,0.7119,0.7129,0.7115,0.7119,0.7129,0.7129,0.7122,0.7112,0.7112,0.7105,0.7095,0.7095,0.7095,0.7095,0.7095,0.7095,0.7095,0.7095,0.7139,0.7173,0.68,0.6617,0.6538,0.6518,0.6416,0.6313,0.6303,0.63,0.6262,0.6078,0.5928,0.5776,0.5703,0.5582,0.5505,0.5495,0.533,0.5115,0.4942,0.4792,0.4665,0.4511,0.4491,0.444,0.425,0.421,0.418,0.4038,0.4153,0.421,0.421,0.4379,0.4481,0.4491,0.4092,0.41,0.4674,0.4711,0.4853,0.5096,0.511,0.522,0.5395,0.5395,0.5395,0.5395,0.5395,0.5395,0.5395,0.5395,0.5395,0.5395,0.5395,0.5395,0.5395,0.5395,0.5395,0.5395,0.5395,0.5395,0.5395,1.5784,1.5784,1.5784,1.5784,1.5784,1.5784,1.5784,1.5784,1.5784,1.5784,1.5784,1.5784,1.5784,1.5784,1.5683,1.5391,1.5343,1.4806,1.3488,1.3151,1.206,1.0032,0.9885,0.9718,0.9437,0.8916,0.8918,0.952,1.0485,1.0301,0.8934,0.8934,0.8394,0.7485,0.737,0.738,0.7482,0.7366,0.7383,0.7489,0.7489,0.7421,0.7316,0.7316,0.7244,0.7095,0.7095,0.7095,0.7095,0.7095,0.7095,0.7095,0.7095,0.7753,0.8237,0.7182,0.6851,0.677,0.6576,0.6487,0.6436,0.6327,0.63,0.6289,0.6252,0.6088,0.6115,0.6631,0.6629,0.6529,0.6424,0.6221,0.5829,0.5033,0.4792,0.4665,0.4511,0.4491,0.4477,0.4443,0.444,0.4423,0.4389,0.4416,0.444,0.444,0.4341,0.4345,0.4484,0.4389,0.445,0.468,0.4908,0.5029,0.51,0.5247,0.5358,0.5395,0.5395,0.5395,0.5395,0.5395,0.5395,0.5395,0.5395,0.5395,0.5395,0.5395,0.5395,0.5395,0.5395,0.5395,0.5395,0.5395,0.5395,0.5395,1.5784,1.5784,1.5784,1.5784,1.5784,1.5784,1.5784,1.5784,1.5784,1.5784,1.5784,1.5784,1.5784,1.5784,1.5784,1.5784,1.5784,1.5486,1.48,1.4214,1.3247,1.1843,1.1214,1.0877,1.0877,1.0091,0.994,1.0492,1.1238,1.1184,1.0394,1.0394,1.0033,0.9389,0.9288,0.9296,0.9389,0.9284,0.8978,0.8516,0.9118,0.8602,0.7567,0.8153,0.7914,0.7343,0.7272,0.7244,0.7234,0.7119,0.7095,0.7095,0.7095,0.7929,0.8742,0.804,0.8127,0.8476,0.8312,0.7777,0.7106,0.645,0.63,0.63,0.63,0.6142,0.6226,0.7114,0.7092,0.7005,0.7398,0.7173,0.6697,0.6108,0.5545,0.5144,0.4974,0.4704,0.4491,0.4491,0.4552,0.4593,0.4593,0.4658,0.4672,0.46,0.4558,0.453,0.4593,0.4694,0.4775,0.4796,0.4982,0.5133,0.5237,0.5351,0.5395,0.5395,0.5395,0.5395,0.5395,0.5395,0.5395,0.5395,0.5395,0.5395,0.5395,0.5395,0.5395,0.5395,0.5395,0.5395,0.5395,0.5395,0.5395,0.5395,1.5784,1.5784,1.5784,1.5784,1.5784,1.5784,1.5784,1.5784,1.5784,1.5784,1.5784,1.5784,1.5784,1.5784,1.5784,1.5784,1.5784,1.5784,1.5784,1.4806,1.4118,1.3926,1.2818,1.2091,1.1896,1.2091,1.2143,1.2036,1.2036,1.1984,1.1877,1.1646,1.1559,1.1559,1.1518,1.1523,1.1554,1.1518,1.0876,0.9974,1.1091,1.0199,0.8327,0.9427,0.9135,0.8182,0.8042,0.8037,0.7965,0.7756,0.7698,0.7694,0.7625,0.8448,0.9405,0.9405,1.0137,1.0862,1.0491,0.9426,0.8177,0.7095,0.6775,0.6718,0.6567,0.6384,0.6537,0.7499,0.7415,0.7482,0.8435,0.8177,0.7695,0.722,0.6526,0.5877,0.5411,0.4971,0.4661,0.4553,0.4662,0.4783,0.4925,0.5019,0.5051,0.4971,0.5033,0.4991,0.4762,0.4965,0.5046,0.4924,0.5059,0.5226,0.5392,0.5395,0.5395,0.5395,0.5395,0.5395,0.5395,0.5395,0.5395,0.5395,0.5395,0.5395,0.5395,0.5395,0.5395,0.5395,0.5395,0.5395,0.5395,0.5395,0.5395,0.5395,1.5784,1.5784,1.5784,1.5784,1.5784,1.5784,1.5784,1.5784,1.5784,1.5784,1.5784,1.5784,1.5784,1.5784,1.5784,1.5784,1.5784,1.5784,1.5784,1.5635,1.4997,1.3974,1.368,1.3054,1.1896,1.3006,1.3567,1.3574,1.3574,1.3551,1.3517,1.2368,1.1844,1.1834,1.1737,1.1709,1.1829,1.1731,1.162,1.1549,1.1748,1.1537,1.109,1.1273,1.116,1.09,1.0866,1.0856,1.0822,1.0562,1.0489,1.0416,1.0144,1.0864,1.1772,1.1772,1.2608,1.3054,1.0957,0.9958,0.9419,0.9233,0.9014,0.8613,0.7744,0.7532,0.7727,0.8433,0.8561,0.8695,0.9389,0.9413,0.8711,0.6696,0.676,0.6489,0.4882,0.5213,0.5363,0.474,0.4792,0.5148,0.5883,0.5997,0.6038,0.6135,0.6059,0.5708,0.5088,0.5073,0.509,0.5066,0.5247,0.5371,0.5395,0.5395,0.5395,0.5395,0.5395,0.5395,0.5395,0.5395,0.5395,0.5395,0.5395,0.5395,0.5395,0.5395,0.5395,0.5395,0.5395,0.5395,0.5395,0.5395,0.5395,0.5395,1.5784,1.5784,1.5784,1.5784,1.5784,1.5784,1.5784,1.5784,1.5784,1.5784,1.5784,1.5784,1.5784,1.5784,1.5784,1.5784,1.5784,1.5784,1.5784,1.5784,1.5534,1.4949,1.4902,1.4316,1.3006,1.3584,1.3926,1.3926,1.3926,1.4268,1.4902,1.4274,1.3986,1.398,1.3951,1.3963,1.4022,1.3951,1.3528,1.3054,1.374,1.3137,1.1889,1.2602,1.2389,1.1716,1.1636,1.1595,1.1559,1.1379,1.1302,1.1261,1.0947,1.1663,1.2553,1.2369,1.316,1.3672,1.1814,1.1163,1.0769,0.9922,0.9627,0.9366,0.8756,0.8613,0.885,0.9702,0.9761,0.9856,1.0508,1.0369,0.976,0.8495,0.8012,0.7524,0.6802,0.6582,0.6444,0.6233,0.5908,0.5864,0.6256,0.6403,0.6459,0.6419,0.6459,0.627,0.5821,0.5467,0.5254,0.5254,0.5358,0.5395,0.5395,0.5395,0.5395,0.5395,0.5395,0.5395,0.5395,0.5395,0.5395,0.5395,0.5395,0.5395,0.5395,0.5395,0.5395,0.5395,0.5395,0.5395,0.5395,0.5395,0.5395,0.5395,1.5784,1.5784,1.5784,1.5784,1.5784,1.5784,1.5784,1.5784,1.5784,1.5784,1.5784,1.5784,1.5784,1.5784,1.5784,1.5784,1.5784,1.5784,1.5784,1.5784,1.5784,1.5784,1.5784,1.5337,1.4364,1.4364,1.4364,1.4364,1.407,1.4561,1.5778,1.5486,1.5534,1.5784,1.5784,1.5784,1.5784,1.5784,1.5242,1.4411,1.5391,1.4615,1.2915,1.3926,1.3686,1.2796,1.2702,1.2636,1.2645,1.245,1.2413,1.2369,1.2081,1.2547,1.3124,1.2874,1.343,1.3866,1.2827,1.2514,1.2145,1.0841,1.0489,1.0302,0.9759,0.9631,0.9857,1.0634,1.063,1.0707,1.1403,1.1162,1.0689,1.0065,0.9301,0.8666,0.8393,0.7841,0.751,0.7535,0.7078,0.6763,0.6763,0.6929,0.6951,0.6777,0.6929,0.6951,0.6772,0.6103,0.5624,0.5395,0.5395,0.5395,0.5395,0.5395,0.5395,0.5395,0.5395,0.5395,0.5395,0.5395,0.5395,0.5395,0.5395,0.5395,0.5395,0.5395,0.5395,0.5395,0.5395,0.5395,0.5395,0.5395,0.5395,0.5395,1.5784,1.5784,1.5784,1.5784,1.5784,1.5784,1.5784,1.5784,1.5784,1.5784,1.5784,1.5784,1.5784,1.5784,1.5784,1.5784,1.5784,1.5784,1.5784,1.5784,1.5784,1.5784,1.5784,1.5778,1.5683,1.5683,1.5683,1.5683,1.4459,1.4561,1.5784,1.4609,1.4657,1.5784,1.5784,1.5784,1.5784,1.5784,1.573,1.5683,1.5778,1.5683,1.554,1.5635,1.5588,1.5534,1.5514,1.5507,1.5461,1.5219,1.5127,1.5074,1.4792,1.4559,1.4379,1.4359,1.421,1.4082,1.3971,1.373,1.3404,1.3008,1.2758,1.224,1.0998,1.0677,1.0708,1.0783,1.0771,1.0979,1.1741,1.1832,1.1317,0.9776,1.004,0.9742,0.7838,0.8212,0.8438,0.7778,0.7795,0.7872,0.7872,0.7887,0.7887,0.7872,0.7887,0.7887,0.7872,0.7074,0.6235,0.5428,0.5395,0.5395,0.5395,0.5395,0.5395,0.5395,0.5395,0.5395,0.5395,0.5395,0.5395,0.5395,0.5395,0.5395,0.5395,0.5395,0.5395,0.5395,0.5395,0.5395,0.5395,0.5395,0.5395,0.5395,1.5784,1.5784,1.5784,1.5784,1.5784,1.5784,1.5784,1.5784,1.5784,1.5784,1.5784,1.5784,1.5784,1.5784,1.5784,1.5784,1.5784,1.5784,1.5784,1.5784,1.5784,1.5784,1.5784,1.5784,1.5784,1.5784,1.5784,1.5784,1.5343,1.5337,1.5778,1.5289,1.5337,1.5784,1.5784,1.5784,1.5784,1.5784,1.5784,1.5784,1.5784,1.5784,1.5784,1.5784,1.5784,1.5784,1.5784,1.5784,1.5764,1.5705,1.5665,1.5611,1.5324,1.515,1.499,1.4623,1.4315,1.4088,1.4088,1.4008,1.3848,1.3513,1.3253,1.2875,1.2177,1.1896,1.1731,1.1731,1.1731,1.1758,1.1888,1.1906,1.1627,1.08,1.0626,1.0383,0.9755,0.9637,0.958,0.95,0.9102,0.8581,0.8059,0.7994,0.7762,0.7242,0.7697,0.7994,0.7994,0.7177,0.656,0.6203,0.5686,0.5395,0.5395,0.5395,0.5395,0.5395,0.5395,0.5395,0.5395,0.5395,0.5395,0.5395,0.5395,0.5395,0.5395,0.5395,0.5395,0.5395,0.5395,0.5395,0.5395,0.5395,0.5395,0.5395,1.5784,1.5784,1.5784,1.5784,1.5784,1.5784,1.5784,1.5784,1.5784,1.5784,1.5784,1.5784,1.5784,1.5784,1.5784,1.5784,1.5784,1.5784,1.5784,1.5784,1.5784,1.5784,1.5784,1.5784,1.5784,1.5784,1.5784,1.5784,1.5784,1.5784,1.5784,1.5784,1.5784,1.5784,1.5784,1.5784,1.5784,1.5784,1.5784,1.5784,1.5784,1.5784,1.5784,1.5784,1.5784,1.5784,1.5784,1.5784,1.5784,1.5784,1.5784,1.5792,1.5591,1.5471,1.5277,1.4689,1.4382,1.4202,1.4115,1.4088,1.4015,1.3673,1.3453,1.324,1.2878,1.2623,1.2418,1.2318,1.2305,1.2238,1.2044,1.204,1.1904,1.1617,1.1263,1.1042,1.1109,1.0701,1.0468,1.0707,1.013,0.9364,0.8484,0.842,0.8059,0.7177,0.7929,0.842,0.842,0.7832,0.7405,0.7111,0.6531,0.621,0.621,0.569,0.5395,0.5395,0.5395,0.5395,0.5395,0.5395,0.5395,0.5395,0.5395,0.5395,0.5395,0.5395,0.5395,0.5395,0.5395,0.5395,0.5395,0.5395,0.5395,0.5395,1.5784,1.5784,1.5784,1.5784,1.5784,1.5784,1.5784,1.5784,1.5784,1.5784,1.5784,1.5784,1.5784,1.5784,1.5784,1.5784,1.5784,1.5784,1.5784,1.5784,1.5784,1.5784,1.5784,1.5784,1.5784,1.5784,1.5784,1.5784,1.5784,1.5784,1.5784,1.5784,1.5784,1.5784,1.5784,1.5784,1.5784,1.5784,1.5784,1.5784,1.5784,1.5784,1.5784,1.5784,1.5784,1.5784,1.5784,1.5784,1.5784,1.5784,1.5784,1.5784,1.5784,1.5631,1.5284,1.4696,1.4479,1.4456,1.4168,1.4088,1.4015,1.368,1.36,1.3447,1.2931,1.279,1.2697,1.2365,1.2305,1.2305,1.2305,1.2305,1.2204,1.1953,1.1906,1.1764,1.1435,1.1182,1.0995,1.0995,1.0774,1.0269,0.9402,0.9306,0.8941,0.8059,0.8812,0.9306,0.9306,0.9306,0.8909,0.8027,0.7994,0.7994,0.7994,0.6272,0.5395,0.5395,0.5395,0.5395,0.5395,0.5395,0.5395,0.5395,0.5395,0.5395,0.5395,0.5395,0.5395,0.5395,0.5395,0.5395,0.5395,0.5395,0.5395,0.5395,1.5784,1.5784,1.5784,1.5784,1.5784,1.5784,1.5784,1.5784,1.5784,1.5784,1.5784,1.5784,1.5784,1.5784,1.5784,1.5784,1.5784,1.5784,1.5784,1.5784,1.5784,1.5784,1.5784,1.5784,1.5784,1.5784,1.5784,1.5784,1.5784,1.5784,1.5784,1.5784,1.5784,1.5784,1.5784,1.5784,1.5784,1.5784,1.5784,1.5784,1.5784,1.5784,1.5784,1.5784,1.5784,1.5784,1.5784,1.5784,1.5784,1.5784,1.5784,1.5784,1.5784,1.5631,1.5364,1.5184,1.4843,1.4502,1.4416,1.4242,1.4068,1.3975,1.376,1.3553,1.342,1.3085,1.2757,1.267,1.2445,1.2305,1.2305,1.2305,1.2271,1.2184,1.2004,1.1873,1.175,1.1483,1.1223,1.1015,1.0915,1.0458,0.942,0.9306,0.8941,0.8059,0.8812,0.9306,0.9306,0.9306,0.9172,0.8909,0.8323,0.7994,0.7994,0.6887,0.6301,0.6301,0.5686,0.5395,0.5395,0.5395,0.5395,0.5395,0.5395,0.5395,0.5395,0.5395,0.5395,0.5395,0.5395,0.5395,0.5395,0.5395,0.5395,0.5395,1.5784,1.5784,1.5784,1.5784,1.5784,1.5784,1.5784,1.5784,1.5784,1.5784,1.5784,1.5784,1.5784,1.5784,1.5784,1.5784,1.5784,1.5784,1.5784,1.5784,1.5784,1.5784,1.5784,1.5784,1.5784,1.5784,1.5784,1.5784,1.5784,1.5784,1.5784,1.5784,1.5784,1.5784,1.5784,1.5784,1.5784,1.5784,1.5784,1.5784,1.5784,1.5784,1.5784,1.5784,1.5784,1.5784,1.5784,1.5784,1.5784,1.5784,1.5784,1.5784,1.5784,1.5712,1.5545,1.5431,1.5144,1.4816,1.4583,1.4389,1.4229,1.4115,1.3948,1.3746,1.3626,1.336,1.3072,1.2837,1.2643,1.2445,1.2325,1.2305,1.2305,1.2305,1.2151,1.2074,1.2074,1.1784,1.1536,1.1397,1.1136,1.0725,1.003,0.988,0.9588,0.9064,0.9204,0.9466,0.9786,0.9817,0.9817,0.9817,0.9294,0.9032,0.9032,0.8156,0.7567,0.7209,0.6334,0.5914,0.5914,0.5557,0.5395,0.5395,0.5395,0.5395,0.5428,0.5785,0.5914,0.5943,0.6305,0.6437,0.6437,0.6437,0.6207,0.5914,1.5784,1.5784,1.5784,1.5784,1.5784,1.5784,1.5784,1.5784,1.5784,1.5784,1.5784,1.5784,1.5784,1.5784,1.5784,1.5784,1.5784,1.5784,1.5784,1.5784,1.5784,1.5784,1.5784,1.5784,1.5784,1.5784,1.5784,1.5784,1.5784,1.5784,1.5784,1.5784,1.5784,1.5784,1.5784,1.5784,1.5784,1.5784,1.5784,1.5784,1.5784,1.5784,1.5784,1.5784,1.5784,1.5784,1.5784,1.5784,1.5784,1.5784,1.5784,1.5784,1.5784,1.5784,1.5731,1.5511,1.5418,1.5271,1.471,1.4536,1.4449,1.4162,1.4088,1.4015,1.37,1.362,1.3447,1.2978,1.2817,1.2703,1.2392,1.2318,1.2305,1.2305,1.2305,1.2305,1.2305,1.2078,1.1933,1.1906,1.1396,1.1049,1.0995,1.076,1.0561,1.0491,0.9817,0.9722,1.0466,1.0561,1.0593,1.0593,1.0593,1.0593,1.0593,0.9817,0.8973,0.8091,0.7242,0.6785,0.6687,0.5881,0.5462,0.5395,0.5395,0.5395,0.5458,0.6268,0.6621,0.6785,0.7567,0.7929,0.7994,0.7994,0.7502,0.6817,1.5784,1.5784,1.5784,1.5784,1.5784,1.5784,1.5784,1.5784,1.5784,1.5784,1.5784,1.5784,1.5784,1.5784,1.5784,1.5784,1.5784,1.5784,1.5784,1.5784,1.5784,1.5784,1.5784,1.5784,1.5784,1.5784,1.5784,1.5784,1.5784,1.5784,1.5784,1.5784,1.5784,1.5784,1.5784,1.5784,1.5784,1.5784,1.5784,1.5784,1.5784,1.5784,1.5784,1.5784,1.5784,1.5784,1.5784,1.5784,1.5784,1.5784,1.5784,1.5784,1.5784,1.5784,1.5771,1.5752,1.5571,1.5317,1.4963,1.4696,1.4449,1.4162,1.4088,1.4068,1.4008,1.3808,1.3567,1.3433,1.3073,1.2764,1.2697,1.2496,1.2305,1.2305,1.2305,1.2305,1.2305,1.2245,1.2124,1.1933,1.1792,1.1531,1.1035,1.076,1.0333,0.9626,1.004,1.011,0.9594,1.0238,1.0593,1.0593,1.0593,1.0593,1.0593,1.0396,0.9881,0.9011,0.8124,0.7372,0.6687,0.6494,0.6042,0.5395,0.5395,0.5395,0.5428,0.5591,0.6075,0.6719,0.6915,0.7405,0.7994,0.7994,0.7897,0.7735,1.5784,1.5784,1.5784,1.5784,1.5784,1.5784,1.5784,1.5784,1.5784,1.5784,1.5784,1.5784,1.5784,1.5784,1.5784,1.5784,1.5784,1.5784,1.5784,1.5784,1.5784,1.5784,1.5784,1.5784,1.5784,1.5784,1.5784,1.5784,1.5784,1.5784,1.5784,1.5784,1.5784,1.5784,1.5784,1.5784,1.5784,1.5784,1.5784,1.5784,1.5784,1.5784,1.5784,1.5784,1.5784,1.5784,1.5784,1.5784,1.5784,1.5784,1.5784,1.5784,1.5784,1.5784,1.5784,1.5784,1.5718,1.5538,1.5251,1.4957,1.4663,1.4369,1.4188,1.4088,1.4088,1.3968,1.3773,1.3633,1.3287,1.2958,1.2811,1.2543,1.2305,1.2305,1.2305,1.2305,1.2305,1.2305,1.2245,1.2091,1.1986,1.169,1.1243,1.1062,1.0745,1.0153,1.066,1.0686,0.9964,1.0588,1.0842,1.06,1.0727,1.0734,1.0593,1.0593,1.0364,0.9913,0.9037,0.8388,0.7929,0.7079,0.6461,0.6009,0.5587,0.5395,0.5428,0.5848,0.6531,0.7372,0.7762,0.8479,0.9224,0.9224,0.8967,0.8549,1.5784,1.5784,1.5784,1.5784,1.5784,1.5784,1.5784,1.5784,1.5784,1.5784,1.5784,1.5784,1.5784,1.5784,1.5784,1.5784,1.5784,1.5784,1.5784,1.5784,1.5784,1.5784,1.5784,1.5784,1.5784,1.5784,1.5784,1.5784,1.5784,1.5784,1.5784,1.5784,1.5784,1.5784,1.5784,1.5784,1.5784,1.5784,1.5784,1.5784,1.5784,1.5784,1.5784,1.5784,1.5784,1.5784,1.5784,1.5784,1.5784,1.5784,1.5784,1.5784,1.5784,1.5784,1.5784,1.5784,1.5784,1.5718,1.5478,1.5184,1.4941,1.4596,1.4302,1.4088,1.4088,1.4088,1.4015,1.3726,1.3447,1.3206,1.2985,1.2612,1.2378,1.2378,1.2338,1.2305,1.2305,1.2305,1.2305,1.2305,1.2044,1.177,1.1523,1.1422,1.1323,1.1089,1.1255,1.1216,1.0767,1.1169,1.1182,1.068,1.0868,1.0888,1.0593,1.0593,1.0593,1.0593,0.9856,0.9434,0.9242,0.78,0.7079,0.6883,0.6174,0.5851,0.5914,0.6625,0.7437,0.8285,0.9011,0.9817,1.0593,1.0593,1.0142,0.9434,1.5784,1.5784,1.5784,1.5784,1.5784,1.5784,1.5784,1.5784,1.5784,1.5784,1.5784,1.5784,1.5784,1.5784,1.5784,1.5784,1.5784,1.5784,1.5784,1.5784,1.5784,1.5784,1.5784,1.5784,1.5784,1.5784,1.5784,1.5784,1.5784,1.5784,1.5784,1.5784,1.5784,1.5784,1.5784,1.5784,1.5784,1.5784,1.5784,1.5784,1.5784,1.5784,1.5784,1.5784,1.5784,1.5784,1.5784,1.5784,1.5784,1.5784,1.5784,1.5784,1.5784,1.5784,1.5784,1.5784,1.5784,1.5718,1.5478,1.5184,1.4941,1.4596,1.4302,1.4088,1.4088,1.4088,1.4075,1.4035,1.3753,1.3533,1.3487,1.3066,1.2723,1.2723,1.2509,1.2305,1.2305,1.2305,1.2305,1.2305,1.2044,1.1893,1.1852,1.1577,1.1375,1.1335,1.1369,1.1362,1.1316,1.1349,1.1276,1.0949,1.0969,1.0888,1.0593,1.0593,1.0593,1.0593,1.0466,1.0047,0.9306,0.9043,0.8549,0.7827,0.7702,0.7637,0.767,0.7767,0.835,0.9139,0.9242,0.9817,1.0593,1.0593,1.053,1.0396,1.5784,1.5784,1.5784,1.5784,1.5784,1.5784,1.5784,1.5784,1.5784,1.5784,1.5784,1.5784,1.5784,1.5784,1.5784,1.5784,1.5784,1.5784,1.5784,1.5784,1.5784,1.5784,1.5784,1.5784,1.5784,1.5784,1.5784,1.5784,1.5784,1.5784,1.5784,1.5784,1.5784,1.5784,1.5784,1.5784,1.5784,1.5784,1.5784,1.5784,1.5784,1.5784,1.5784,1.5784,1.5784,1.5784,1.5784,1.5784,1.5784,1.5784,1.5784,1.5784,1.5784,1.5784,1.5784,1.5784,1.5784,1.5751,1.5671,1.5424,1.5137,1.4843,1.4549,1.4282,1.4122,1.4088,1.4088,1.4088,1.3848,1.36,1.36,1.3153,1.2784,1.2784,1.2529,1.2305,1.2305,1.2305,1.2305,1.2305,1.2191,1.2111,1.2111,1.1991,1.1844,1.1683,1.1824,1.177,1.1409,1.1737,1.163,1.1009,1.1149,1.1015,1.0593,1.0593,1.0593,1.0593,1.0593,1.0396,1.0009,0.953,0.9075,0.8716,0.8221,0.7994,0.7994,0.7994,0.8517,0.9306,0.9306,0.9817,1.0593,1.0593,1.0593,1.0593]}]]